<?xml version="1.0" encoding="UTF-8" standalone="no" ?>
<gpx xmlns="http://www.topografix.com/GPX/1/1" xmlns:xsi="http://www.w3.org/2001/XMLSchema-instance" xsi:schemaLocation="http://www.topografix.com/GPX/1/1 http://www.topografix.com/GPX/1/1/gpx.xsd" version="1.1" creator="VisuGPX - https://www.visugpx.com">
  <metadata>
    <name>Trail de l\'ours 2011</name>
    <desc><![CDATA[trail de l\'ours 2011, 9 octobre 2011]]></desc>
  </metadata>
  <trk>
    <name><![CDATA[trail de l'ours 2011]]></name>
    <desc><![CDATA[la boucle nord sera le théatre du trail court. 3 ravitaillement ; 7,5 km, 14 km , 18 km]]></desc>
    <trkseg>
      <trkpt lat="45.4182" lon="5.85505">
        <ele>644.40002441406</ele>
        <time>2011-07-24T08:34:56.000Z</time>
      </trkpt>
      <trkpt lat="45.4182" lon="5.85505">
        <ele>644.40002441406</ele>
        <time>2011-07-24T08:34:59.000Z</time>
      </trkpt>
      <trkpt lat="45.41836" lon="5.85537">
        <ele>644.59997558594</ele>
        <time>2011-07-24T08:35:09.000Z</time>
      </trkpt>
      <trkpt lat="45.41853" lon="5.85572">
        <ele>646.20001220703</ele>
        <time>2011-07-24T08:35:18.000Z</time>
      </trkpt>
      <trkpt lat="45.41876" lon="5.85601">
        <ele>648.59997558594</ele>
        <time>2011-07-24T08:35:29.000Z</time>
      </trkpt>
      <trkpt lat="45.41892" lon="5.85616">
        <ele>649.20001220703</ele>
        <time>2011-07-24T08:35:36.000Z</time>
      </trkpt>
      <trkpt lat="45.41903" lon="5.8563">
        <ele>649</ele>
        <time>2011-07-24T08:35:41.000Z</time>
      </trkpt>
      <trkpt lat="45.41919" lon="5.85647">
        <ele>648</ele>
        <time>2011-07-24T08:35:48.000Z</time>
      </trkpt>
      <trkpt lat="45.41931" lon="5.85666">
        <ele>650</ele>
        <time>2011-07-24T08:35:56.000Z</time>
      </trkpt>
      <trkpt lat="45.41946" lon="5.85702">
        <ele>653.40002441406</ele>
        <time>2011-07-24T08:36:06.000Z</time>
      </trkpt>
      <trkpt lat="45.41979" lon="5.85728">
        <ele>653.20001220703</ele>
        <time>2011-07-24T08:36:17.000Z</time>
      </trkpt>
      <trkpt lat="45.41998" lon="5.85737">
        <ele>651.40002441406</ele>
        <time>2011-07-24T08:36:25.000Z</time>
      </trkpt>
      <trkpt lat="45.42014" lon="5.85754">
        <ele>652.20001220703</ele>
        <time>2011-07-24T08:36:32.000Z</time>
      </trkpt>
      <trkpt lat="45.42033" lon="5.85771">
        <ele>654.79998779297</ele>
        <time>2011-07-24T08:36:39.000Z</time>
      </trkpt>
      <trkpt lat="45.4204" lon="5.85776">
        <ele>655.40002441406</ele>
        <time>2011-07-24T08:36:43.000Z</time>
      </trkpt>
      <trkpt lat="45.42049" lon="5.8578">
        <ele>656.40002441406</ele>
        <time>2011-07-24T08:36:47.000Z</time>
      </trkpt>
      <trkpt lat="45.42063" lon="5.85784">
        <ele>657.79998779297</ele>
        <time>2011-07-24T08:36:55.000Z</time>
      </trkpt>
      <trkpt lat="45.42065" lon="5.85784">
        <ele>658</ele>
        <time>2011-07-24T08:36:57.000Z</time>
      </trkpt>
      <trkpt lat="45.42067" lon="5.85785">
        <ele>658.20001220703</ele>
        <time>2011-07-24T08:36:59.000Z</time>
      </trkpt>
      <trkpt lat="45.42084" lon="5.85787">
        <ele>660</ele>
        <time>2011-07-24T08:37:07.000Z</time>
      </trkpt>
      <trkpt lat="45.42091" lon="5.85788">
        <ele>662</ele>
        <time>2011-07-24T08:37:09.000Z</time>
      </trkpt>
      <trkpt lat="45.42119" lon="5.85793">
        <ele>668.59997558594</ele>
        <time>2011-07-24T08:37:16.000Z</time>
      </trkpt>
      <trkpt lat="45.4213" lon="5.85812">
        <ele>665.59997558594</ele>
        <time>2011-07-24T08:37:22.000Z</time>
      </trkpt>
      <trkpt lat="45.42147" lon="5.85824">
        <ele>665.59997558594</ele>
        <time>2011-07-24T08:37:27.000Z</time>
      </trkpt>
      <trkpt lat="45.42159" lon="5.85853">
        <ele>664.59997558594</ele>
        <time>2011-07-24T08:37:37.000Z</time>
      </trkpt>
      <trkpt lat="45.42168" lon="5.85882">
        <ele>665.20001220703</ele>
        <time>2011-07-24T08:37:49.000Z</time>
      </trkpt>
      <trkpt lat="45.42169" lon="5.85895">
        <ele>664.79998779297</ele>
        <time>2011-07-24T08:37:53.000Z</time>
      </trkpt>
      <trkpt lat="45.42168" lon="5.85925">
        <ele>663</ele>
        <time>2011-07-24T08:38:00.000Z</time>
      </trkpt>
      <trkpt lat="45.42165" lon="5.85939">
        <ele>662.40002441406</ele>
        <time>2011-07-24T08:38:04.000Z</time>
      </trkpt>
      <trkpt lat="45.42165" lon="5.85962">
        <ele>661.79998779297</ele>
        <time>2011-07-24T08:38:11.000Z</time>
      </trkpt>
      <trkpt lat="45.42171" lon="5.85988">
        <ele>662.40002441406</ele>
        <time>2011-07-24T08:38:18.000Z</time>
      </trkpt>
      <trkpt lat="45.42182" lon="5.86013">
        <ele>663.79998779297</ele>
        <time>2011-07-24T08:38:27.000Z</time>
      </trkpt>
      <trkpt lat="45.42193" lon="5.86027">
        <ele>664.59997558594</ele>
        <time>2011-07-24T08:38:34.000Z</time>
      </trkpt>
      <trkpt lat="45.422" lon="5.86027">
        <ele>666</ele>
        <time>2011-07-24T08:38:38.000Z</time>
      </trkpt>
      <trkpt lat="45.42196" lon="5.85989">
        <ele>668.59997558594</ele>
        <time>2011-07-24T08:38:49.000Z</time>
      </trkpt>
      <trkpt lat="45.42193" lon="5.8595">
        <ele>670.20001220703</ele>
        <time>2011-07-24T08:39:01.000Z</time>
      </trkpt>
      <trkpt lat="45.42193" lon="5.85943">
        <ele>670.59997558594</ele>
        <time>2011-07-24T08:39:03.000Z</time>
      </trkpt>
      <trkpt lat="45.42202" lon="5.85941">
        <ele>673.59997558594</ele>
        <time>2011-07-24T08:39:10.000Z</time>
      </trkpt>
      <trkpt lat="45.42215" lon="5.85971">
        <ele>674.79998779297</ele>
        <time>2011-07-24T08:39:20.000Z</time>
      </trkpt>
      <trkpt lat="45.42216" lon="5.85973">
        <ele>675.20001220703</ele>
        <time>2011-07-24T08:39:40.000Z</time>
      </trkpt>
      <trkpt lat="45.42222" lon="5.85991">
        <ele>675</ele>
        <time>2011-07-24T08:39:47.000Z</time>
      </trkpt>
      <trkpt lat="45.42242" lon="5.86006">
        <ele>677.79998779297</ele>
        <time>2011-07-24T08:39:57.000Z</time>
      </trkpt>
      <trkpt lat="45.42244" lon="5.86007">
        <ele>678</ele>
        <time>2011-07-24T08:39:58.000Z</time>
      </trkpt>
      <trkpt lat="45.42248" lon="5.86009">
        <ele>678.59997558594</ele>
        <time>2011-07-24T08:40:00.000Z</time>
      </trkpt>
      <trkpt lat="45.4227" lon="5.86016">
        <ele>681.20001220703</ele>
        <time>2011-07-24T08:40:10.000Z</time>
      </trkpt>
      <trkpt lat="45.42277" lon="5.86019">
        <ele>681.79998779297</ele>
        <time>2011-07-24T08:40:13.000Z</time>
      </trkpt>
      <trkpt lat="45.42299" lon="5.86038">
        <ele>681.20001220703</ele>
        <time>2011-07-24T08:40:23.000Z</time>
      </trkpt>
      <trkpt lat="45.42301" lon="5.8604">
        <ele>681.20001220703</ele>
        <time>2011-07-24T08:40:24.000Z</time>
      </trkpt>
      <trkpt lat="45.42321" lon="5.86058">
        <ele>680.40002441406</ele>
        <time>2011-07-24T08:40:33.000Z</time>
      </trkpt>
      <trkpt lat="45.42324" lon="5.86059">
        <ele>680.40002441406</ele>
        <time>2011-07-24T08:40:34.000Z</time>
      </trkpt>
      <trkpt lat="45.42339" lon="5.86064">
        <ele>682.20001220703</ele>
        <time>2011-07-24T08:40:40.000Z</time>
      </trkpt>
      <trkpt lat="45.42366" lon="5.8608">
        <ele>685.40002441406</ele>
        <time>2011-07-24T08:40:50.000Z</time>
      </trkpt>
      <trkpt lat="45.42377" lon="5.86088">
        <ele>686.59997558594</ele>
        <time>2011-07-24T08:40:54.000Z</time>
      </trkpt>
      <trkpt lat="45.42408" lon="5.86112">
        <ele>688.59997558594</ele>
        <time>2011-07-24T08:41:05.000Z</time>
      </trkpt>
      <trkpt lat="45.4244" lon="5.86128">
        <ele>692.59997558594</ele>
        <time>2011-07-24T08:41:17.000Z</time>
      </trkpt>
      <trkpt lat="45.42455" lon="5.86142">
        <ele>693.20001220703</ele>
        <time>2011-07-24T08:41:24.000Z</time>
      </trkpt>
      <trkpt lat="45.42466" lon="5.86153">
        <ele>693.20001220703</ele>
        <time>2011-07-24T08:41:29.000Z</time>
      </trkpt>
      <trkpt lat="45.42491" lon="5.86178">
        <ele>695.20001220703</ele>
        <time>2011-07-24T08:41:40.000Z</time>
      </trkpt>
      <trkpt lat="45.42504" lon="5.86203">
        <ele>696.20001220703</ele>
        <time>2011-07-24T08:41:50.000Z</time>
      </trkpt>
      <trkpt lat="45.42509" lon="5.86234">
        <ele>694</ele>
        <time>2011-07-24T08:41:59.000Z</time>
      </trkpt>
      <trkpt lat="45.42523" lon="5.86259">
        <ele>693.59997558594</ele>
        <time>2011-07-24T08:42:09.000Z</time>
      </trkpt>
      <trkpt lat="45.42546" lon="5.8627">
        <ele>696</ele>
        <time>2011-07-24T08:42:20.000Z</time>
      </trkpt>
      <trkpt lat="45.42552" lon="5.86277">
        <ele>696.20001220703</ele>
        <time>2011-07-24T08:42:23.000Z</time>
      </trkpt>
      <trkpt lat="45.42574" lon="5.86265">
        <ele>700.40002441406</ele>
        <time>2011-07-24T08:42:33.000Z</time>
      </trkpt>
      <trkpt lat="45.42597" lon="5.86237">
        <ele>706.40002441406</ele>
        <time>2011-07-24T08:42:45.000Z</time>
      </trkpt>
      <trkpt lat="45.42612" lon="5.86229">
        <ele>708.79998779297</ele>
        <time>2011-07-24T08:42:55.000Z</time>
      </trkpt>
      <trkpt lat="45.42637" lon="5.86232">
        <ele>710</ele>
        <time>2011-07-24T08:43:03.000Z</time>
      </trkpt>
      <trkpt lat="45.42658" lon="5.86244">
        <ele>710</ele>
        <time>2011-07-24T08:43:09.000Z</time>
      </trkpt>
      <trkpt lat="45.42685" lon="5.8624">
        <ele>714.59997558594</ele>
        <time>2011-07-24T08:43:19.000Z</time>
      </trkpt>
      <trkpt lat="45.42705" lon="5.86232">
        <ele>719.40002441406</ele>
        <time>2011-07-24T08:43:27.000Z</time>
      </trkpt>
      <trkpt lat="45.42716" lon="5.8623">
        <ele>721.59997558594</ele>
        <time>2011-07-24T08:43:31.000Z</time>
      </trkpt>
      <trkpt lat="45.42731" lon="5.86245">
        <ele>722.79998779297</ele>
        <time>2011-07-24T08:43:43.000Z</time>
      </trkpt>
      <trkpt lat="45.42732" lon="5.86256">
        <ele>722.79998779297</ele>
        <time>2011-07-24T08:43:48.000Z</time>
      </trkpt>
      <trkpt lat="45.42736" lon="5.86258">
        <ele>723.79998779297</ele>
        <time>2011-07-24T08:44:09.000Z</time>
      </trkpt>
      <trkpt lat="45.42737" lon="5.86263">
        <ele>724.40002441406</ele>
        <time>2011-07-24T08:45:22.000Z</time>
      </trkpt>
      <trkpt lat="45.42738" lon="5.86266">
        <ele>724.79998779297</ele>
        <time>2011-07-24T08:45:24.000Z</time>
      </trkpt>
      <trkpt lat="45.42721" lon="5.86309">
        <ele>723.40002441406</ele>
        <time>2011-07-24T08:45:38.000Z</time>
      </trkpt>
      <trkpt lat="45.4272" lon="5.86317">
        <ele>723.40002441406</ele>
        <time>2011-07-24T08:45:43.000Z</time>
      </trkpt>
      <trkpt lat="45.42718" lon="5.86324">
        <ele>723</ele>
        <time>2011-07-24T08:45:47.000Z</time>
      </trkpt>
      <trkpt lat="45.42711" lon="5.86343">
        <ele>721.59997558594</ele>
        <time>2011-07-24T08:45:57.000Z</time>
      </trkpt>
      <trkpt lat="45.42707" lon="5.86366">
        <ele>720.79998779297</ele>
        <time>2011-07-24T08:46:06.000Z</time>
      </trkpt>
      <trkpt lat="45.42707" lon="5.86369">
        <ele>720.79998779297</ele>
        <time>2011-07-24T08:46:07.000Z</time>
      </trkpt>
      <trkpt lat="45.42708" lon="5.86389">
        <ele>721.59997558594</ele>
        <time>2011-07-24T08:46:14.000Z</time>
      </trkpt>
      <trkpt lat="45.4271" lon="5.86402">
        <ele>722.59997558594</ele>
        <time>2011-07-24T08:46:17.000Z</time>
      </trkpt>
      <trkpt lat="45.42716" lon="5.86414">
        <ele>724.40002441406</ele>
        <time>2011-07-24T08:46:21.000Z</time>
      </trkpt>
      <trkpt lat="45.42725" lon="5.86419">
        <ele>726.79998779297</ele>
        <time>2011-07-24T08:46:26.000Z</time>
      </trkpt>
      <trkpt lat="45.42734" lon="5.8641">
        <ele>729.40002441406</ele>
        <time>2011-07-24T08:46:34.000Z</time>
      </trkpt>
      <trkpt lat="45.4274" lon="5.86401">
        <ele>731</ele>
        <time>2011-07-24T08:46:43.000Z</time>
      </trkpt>
      <trkpt lat="45.42746" lon="5.86394">
        <ele>732.79998779297</ele>
        <time>2011-07-24T08:46:48.000Z</time>
      </trkpt>
      <trkpt lat="45.42755" lon="5.86376">
        <ele>735.40002441406</ele>
        <time>2011-07-24T08:46:56.000Z</time>
      </trkpt>
      <trkpt lat="45.42757" lon="5.86368">
        <ele>736.20001220703</ele>
        <time>2011-07-24T08:46:59.000Z</time>
      </trkpt>
      <trkpt lat="45.42759" lon="5.86359">
        <ele>736.79998779297</ele>
        <time>2011-07-24T08:47:03.000Z</time>
      </trkpt>
      <trkpt lat="45.42759" lon="5.86347">
        <ele>736.79998779297</ele>
        <time>2011-07-24T08:47:09.000Z</time>
      </trkpt>
      <trkpt lat="45.42759" lon="5.8634">
        <ele>737</ele>
        <time>2011-07-24T08:47:13.000Z</time>
      </trkpt>
      <trkpt lat="45.42762" lon="5.86335">
        <ele>738</ele>
        <time>2011-07-24T08:47:16.000Z</time>
      </trkpt>
      <trkpt lat="45.42774" lon="5.86329">
        <ele>741.59997558594</ele>
        <time>2011-07-24T08:47:29.000Z</time>
      </trkpt>
      <trkpt lat="45.42778" lon="5.86326">
        <ele>742.59997558594</ele>
        <time>2011-07-24T08:47:32.000Z</time>
      </trkpt>
      <trkpt lat="45.42788" lon="5.86319">
        <ele>744.59997558594</ele>
        <time>2011-07-24T08:47:40.000Z</time>
      </trkpt>
      <trkpt lat="45.42791" lon="5.86319">
        <ele>745.59997558594</ele>
        <time>2011-07-24T08:47:43.000Z</time>
      </trkpt>
      <trkpt lat="45.42793" lon="5.86322">
        <ele>746.79998779297</ele>
        <time>2011-07-24T08:47:46.000Z</time>
      </trkpt>
      <trkpt lat="45.42788" lon="5.86335">
        <ele>746.59997558594</ele>
        <time>2011-07-24T08:47:52.000Z</time>
      </trkpt>
      <trkpt lat="45.42788" lon="5.86341">
        <ele>746.40002441406</ele>
        <time>2011-07-24T08:47:55.000Z</time>
      </trkpt>
      <trkpt lat="45.42792" lon="5.86345">
        <ele>747.79998779297</ele>
        <time>2011-07-24T08:47:58.000Z</time>
      </trkpt>
      <trkpt lat="45.42802" lon="5.86344">
        <ele>750.79998779297</ele>
        <time>2011-07-24T08:48:03.000Z</time>
      </trkpt>
      <trkpt lat="45.42808" lon="5.86339">
        <ele>753.20001220703</ele>
        <time>2011-07-24T08:48:09.000Z</time>
      </trkpt>
      <trkpt lat="45.42816" lon="5.86336">
        <ele>756</ele>
        <time>2011-07-24T08:48:14.000Z</time>
      </trkpt>
      <trkpt lat="45.42819" lon="5.86335">
        <ele>757.20001220703</ele>
        <time>2011-07-24T08:48:16.000Z</time>
      </trkpt>
      <trkpt lat="45.42833" lon="5.86336">
        <ele>761.40002441406</ele>
        <time>2011-07-24T08:48:24.000Z</time>
      </trkpt>
      <trkpt lat="45.42849" lon="5.86336">
        <ele>765.79998779297</ele>
        <time>2011-07-24T08:48:34.000Z</time>
      </trkpt>
      <trkpt lat="45.4285" lon="5.86337">
        <ele>766</ele>
        <time>2011-07-24T08:48:35.000Z</time>
      </trkpt>
      <trkpt lat="45.42857" lon="5.86337">
        <ele>768</ele>
        <time>2011-07-24T08:48:40.000Z</time>
      </trkpt>
      <trkpt lat="45.4286" lon="5.86337">
        <ele>768.79998779297</ele>
        <time>2011-07-24T08:48:42.000Z</time>
      </trkpt>
      <trkpt lat="45.42867" lon="5.86336">
        <ele>770.59997558594</ele>
        <time>2011-07-24T08:48:47.000Z</time>
      </trkpt>
      <trkpt lat="45.42879" lon="5.86337">
        <ele>773.79998779297</ele>
        <time>2011-07-24T08:48:55.000Z</time>
      </trkpt>
      <trkpt lat="45.42892" lon="5.86337">
        <ele>777.20001220703</ele>
        <time>2011-07-24T08:49:05.000Z</time>
      </trkpt>
      <trkpt lat="45.42894" lon="5.86337">
        <ele>777.59997558594</ele>
        <time>2011-07-24T08:49:06.000Z</time>
      </trkpt>
      <trkpt lat="45.42898" lon="5.86339">
        <ele>778.79998779297</ele>
        <time>2011-07-24T08:49:10.000Z</time>
      </trkpt>
      <trkpt lat="45.42905" lon="5.86339">
        <ele>780.40002441406</ele>
        <time>2011-07-24T08:49:16.000Z</time>
      </trkpt>
      <trkpt lat="45.42914" lon="5.86338">
        <ele>782.79998779297</ele>
        <time>2011-07-24T08:49:23.000Z</time>
      </trkpt>
      <trkpt lat="45.4292" lon="5.8634">
        <ele>784.40002441406</ele>
        <time>2011-07-24T08:49:28.000Z</time>
      </trkpt>
      <trkpt lat="45.42933" lon="5.86339">
        <ele>788.79998779297</ele>
        <time>2011-07-24T08:49:37.000Z</time>
      </trkpt>
      <trkpt lat="45.42937" lon="5.86339">
        <ele>790.20001220703</ele>
        <time>2011-07-24T08:49:40.000Z</time>
      </trkpt>
      <trkpt lat="45.42941" lon="5.86345">
        <ele>791.20001220703</ele>
        <time>2011-07-24T08:49:44.000Z</time>
      </trkpt>
      <trkpt lat="45.42944" lon="5.86351">
        <ele>791.79998779297</ele>
        <time>2011-07-24T08:49:47.000Z</time>
      </trkpt>
      <trkpt lat="45.42948" lon="5.86357">
        <ele>792.79998779297</ele>
        <time>2011-07-24T08:49:51.000Z</time>
      </trkpt>
      <trkpt lat="45.42957" lon="5.86366">
        <ele>795.40002441406</ele>
        <time>2011-07-24T08:49:58.000Z</time>
      </trkpt>
      <trkpt lat="45.4296" lon="5.86368">
        <ele>796.40002441406</ele>
        <time>2011-07-24T08:50:00.000Z</time>
      </trkpt>
      <trkpt lat="45.42965" lon="5.86369">
        <ele>797.79998779297</ele>
        <time>2011-07-24T08:50:14.000Z</time>
      </trkpt>
      <trkpt lat="45.42965" lon="5.8637">
        <ele>798.20001220703</ele>
        <time>2011-07-24T08:50:15.000Z</time>
      </trkpt>
      <trkpt lat="45.4297" lon="5.86371">
        <ele>799.59997558594</ele>
        <time>2011-07-24T08:50:18.000Z</time>
      </trkpt>
      <trkpt lat="45.42973" lon="5.86371">
        <ele>800.79998779297</ele>
        <time>2011-07-24T08:50:20.000Z</time>
      </trkpt>
      <trkpt lat="45.42982" lon="5.86374">
        <ele>803.79998779297</ele>
        <time>2011-07-24T08:50:26.000Z</time>
      </trkpt>
      <trkpt lat="45.42986" lon="5.86375">
        <ele>804.79998779297</ele>
        <time>2011-07-24T08:50:28.000Z</time>
      </trkpt>
      <trkpt lat="45.42998" lon="5.86384">
        <ele>808.59997558594</ele>
        <time>2011-07-24T08:50:39.000Z</time>
      </trkpt>
      <trkpt lat="45.43001" lon="5.86385">
        <ele>810.20001220703</ele>
        <time>2011-07-24T08:50:41.000Z</time>
      </trkpt>
      <trkpt lat="45.43013" lon="5.86388">
        <ele>816.40002441406</ele>
        <time>2011-07-24T08:50:48.000Z</time>
      </trkpt>
      <trkpt lat="45.43018" lon="5.8639">
        <ele>818.79998779297</ele>
        <time>2011-07-24T08:50:52.000Z</time>
      </trkpt>
      <trkpt lat="45.43022" lon="5.86393">
        <ele>821</ele>
        <time>2011-07-24T08:50:57.000Z</time>
      </trkpt>
      <trkpt lat="45.43026" lon="5.86394">
        <ele>823</ele>
        <time>2011-07-24T08:51:01.000Z</time>
      </trkpt>
      <trkpt lat="45.43033" lon="5.86396">
        <ele>827.20001220703</ele>
        <time>2011-07-24T08:51:11.000Z</time>
      </trkpt>
      <trkpt lat="45.43042" lon="5.86396">
        <ele>831.79998779297</ele>
        <time>2011-07-24T08:51:21.000Z</time>
      </trkpt>
      <trkpt lat="45.43049" lon="5.864">
        <ele>835.79998779297</ele>
        <time>2011-07-24T08:51:30.000Z</time>
      </trkpt>
      <trkpt lat="45.43055" lon="5.86409">
        <ele>839</ele>
        <time>2011-07-24T08:51:38.000Z</time>
      </trkpt>
      <trkpt lat="45.43061" lon="5.86425">
        <ele>840.79998779297</ele>
        <time>2011-07-24T08:51:49.000Z</time>
      </trkpt>
      <trkpt lat="45.43066" lon="5.86431">
        <ele>842.59997558594</ele>
        <time>2011-07-24T08:51:55.000Z</time>
      </trkpt>
      <trkpt lat="45.43067" lon="5.86432">
        <ele>843</ele>
        <time>2011-07-24T08:51:56.000Z</time>
      </trkpt>
      <trkpt lat="45.43076" lon="5.86434">
        <ele>848.20001220703</ele>
        <time>2011-07-24T08:52:07.000Z</time>
      </trkpt>
      <trkpt lat="45.43082" lon="5.86443">
        <ele>850.59997558594</ele>
        <time>2011-07-24T08:52:17.000Z</time>
      </trkpt>
      <trkpt lat="45.43083" lon="5.86444">
        <ele>850.79998779297</ele>
        <time>2011-07-24T08:52:18.000Z</time>
      </trkpt>
      <trkpt lat="45.43087" lon="5.8645">
        <ele>851.79998779297</ele>
        <time>2011-07-24T08:52:24.000Z</time>
      </trkpt>
      <trkpt lat="45.43091" lon="5.86453">
        <ele>853.79998779297</ele>
        <time>2011-07-24T08:52:29.000Z</time>
      </trkpt>
      <trkpt lat="45.43096" lon="5.86464">
        <ele>855.20001220703</ele>
        <time>2011-07-24T08:52:40.000Z</time>
      </trkpt>
      <trkpt lat="45.43097" lon="5.86464">
        <ele>855.40002441406</ele>
        <time>2011-07-24T08:52:41.000Z</time>
      </trkpt>
      <trkpt lat="45.43099" lon="5.86474">
        <ele>855.20001220703</ele>
        <time>2011-07-24T08:52:51.000Z</time>
      </trkpt>
      <trkpt lat="45.43101" lon="5.86481">
        <ele>855.20001220703</ele>
        <time>2011-07-24T08:52:58.000Z</time>
      </trkpt>
      <trkpt lat="45.43107" lon="5.86483">
        <ele>858</ele>
        <time>2011-07-24T08:53:05.000Z</time>
      </trkpt>
      <trkpt lat="45.43112" lon="5.86489">
        <ele>859.79998779297</ele>
        <time>2011-07-24T08:53:14.000Z</time>
      </trkpt>
      <trkpt lat="45.43119" lon="5.86497">
        <ele>862</ele>
        <time>2011-07-24T08:53:25.000Z</time>
      </trkpt>
      <trkpt lat="45.4312" lon="5.86498">
        <ele>862.59997558594</ele>
        <time>2011-07-24T08:53:26.000Z</time>
      </trkpt>
      <trkpt lat="45.4313" lon="5.86498">
        <ele>867.79998779297</ele>
        <time>2011-07-24T08:53:35.000Z</time>
      </trkpt>
      <trkpt lat="45.43142" lon="5.865">
        <ele>873.79998779297</ele>
        <time>2011-07-24T08:53:47.000Z</time>
      </trkpt>
      <trkpt lat="45.43155" lon="5.86501">
        <ele>880.59997558594</ele>
        <time>2011-07-24T08:53:56.000Z</time>
      </trkpt>
      <trkpt lat="45.43156" lon="5.86501">
        <ele>881.40002441406</ele>
        <time>2011-07-24T08:53:57.000Z</time>
      </trkpt>
      <trkpt lat="45.43167" lon="5.86499">
        <ele>887.20001220703</ele>
        <time>2011-07-24T08:54:05.000Z</time>
      </trkpt>
      <trkpt lat="45.43175" lon="5.865">
        <ele>889.20001220703</ele>
        <time>2011-07-24T08:54:11.000Z</time>
      </trkpt>
      <trkpt lat="45.43177" lon="5.865">
        <ele>889.79998779297</ele>
        <time>2011-07-24T08:54:12.000Z</time>
      </trkpt>
      <trkpt lat="45.43179" lon="5.865">
        <ele>890.40002441406</ele>
        <time>2011-07-24T08:54:13.000Z</time>
      </trkpt>
      <trkpt lat="45.43193" lon="5.86493">
        <ele>895.40002441406</ele>
        <time>2011-07-24T08:54:26.000Z</time>
      </trkpt>
      <trkpt lat="45.43203" lon="5.86494">
        <ele>898</ele>
        <time>2011-07-24T08:54:38.000Z</time>
      </trkpt>
      <trkpt lat="45.43206" lon="5.86493">
        <ele>898.59997558594</ele>
        <time>2011-07-24T08:54:41.000Z</time>
      </trkpt>
      <trkpt lat="45.43216" lon="5.86489">
        <ele>902.20001220703</ele>
        <time>2011-07-24T08:54:51.000Z</time>
      </trkpt>
      <trkpt lat="45.43227" lon="5.8649">
        <ele>905</ele>
        <time>2011-07-24T08:55:01.000Z</time>
      </trkpt>
      <trkpt lat="45.43234" lon="5.86492">
        <ele>906.59997558594</ele>
        <time>2011-07-24T08:55:08.000Z</time>
      </trkpt>
      <trkpt lat="45.43248" lon="5.865">
        <ele>908.40002441406</ele>
        <time>2011-07-24T08:55:16.000Z</time>
      </trkpt>
      <trkpt lat="45.4327" lon="5.86512">
        <ele>908.59997558594</ele>
        <time>2011-07-24T08:55:27.000Z</time>
      </trkpt>
      <trkpt lat="45.43281" lon="5.8652">
        <ele>907.79998779297</ele>
        <time>2011-07-24T08:55:35.000Z</time>
      </trkpt>
      <trkpt lat="45.43283" lon="5.86521">
        <ele>907.59997558594</ele>
        <time>2011-07-24T08:55:37.000Z</time>
      </trkpt>
      <trkpt lat="45.43287" lon="5.86524">
        <ele>907.40002441406</ele>
        <time>2011-07-24T08:55:40.000Z</time>
      </trkpt>
      <trkpt lat="45.433" lon="5.86526">
        <ele>908.20001220703</ele>
        <time>2011-07-24T08:55:45.000Z</time>
      </trkpt>
      <trkpt lat="45.43314" lon="5.86531">
        <ele>908</ele>
        <time>2011-07-24T08:55:51.000Z</time>
      </trkpt>
      <trkpt lat="45.43329" lon="5.86529">
        <ele>910.79998779297</ele>
        <time>2011-07-24T08:56:00.000Z</time>
      </trkpt>
      <trkpt lat="45.43332" lon="5.86525">
        <ele>912.40002441406</ele>
        <time>2011-07-24T08:56:02.000Z</time>
      </trkpt>
      <trkpt lat="45.43339" lon="5.86519">
        <ele>916</ele>
        <time>2011-07-24T08:56:10.000Z</time>
      </trkpt>
      <trkpt lat="45.4334" lon="5.86518">
        <ele>916.40002441406</ele>
        <time>2011-07-24T08:56:11.000Z</time>
      </trkpt>
      <trkpt lat="45.43348" lon="5.86514">
        <ele>918.59997558594</ele>
        <time>2011-07-24T08:56:15.000Z</time>
      </trkpt>
      <trkpt lat="45.43362" lon="5.86509">
        <ele>922.20001220703</ele>
        <time>2011-07-24T08:56:24.000Z</time>
      </trkpt>
      <trkpt lat="45.43373" lon="5.86503">
        <ele>925.40002441406</ele>
        <time>2011-07-24T08:56:37.000Z</time>
      </trkpt>
      <trkpt lat="45.43375" lon="5.86501">
        <ele>926.40002441406</ele>
        <time>2011-07-24T08:56:39.000Z</time>
      </trkpt>
      <trkpt lat="45.43397" lon="5.86499">
        <ele>929</ele>
        <time>2011-07-24T08:56:50.000Z</time>
      </trkpt>
      <trkpt lat="45.43406" lon="5.86497">
        <ele>930.59997558594</ele>
        <time>2011-07-24T08:57:01.000Z</time>
      </trkpt>
      <trkpt lat="45.43421" lon="5.86489">
        <ele>934.79998779297</ele>
        <time>2011-07-24T08:57:11.000Z</time>
      </trkpt>
      <trkpt lat="45.43429" lon="5.86485">
        <ele>937</ele>
        <time>2011-07-24T08:57:17.000Z</time>
      </trkpt>
      <trkpt lat="45.43432" lon="5.86482">
        <ele>938.40002441406</ele>
        <time>2011-07-24T08:57:21.000Z</time>
      </trkpt>
      <trkpt lat="45.43444" lon="5.86478">
        <ele>940.59997558594</ele>
        <time>2011-07-24T08:57:30.000Z</time>
      </trkpt>
      <trkpt lat="45.43454" lon="5.86477">
        <ele>941.20001220703</ele>
        <time>2011-07-24T08:57:38.000Z</time>
      </trkpt>
      <trkpt lat="45.43476" lon="5.86469">
        <ele>945.79998779297</ele>
        <time>2011-07-24T08:57:50.000Z</time>
      </trkpt>
      <trkpt lat="45.43495" lon="5.86462">
        <ele>950</ele>
        <time>2011-07-24T08:58:02.000Z</time>
      </trkpt>
      <trkpt lat="45.43507" lon="5.86456">
        <ele>953</ele>
        <time>2011-07-24T08:58:13.000Z</time>
      </trkpt>
      <trkpt lat="45.43513" lon="5.86454">
        <ele>954.20001220703</ele>
        <time>2011-07-24T08:58:24.000Z</time>
      </trkpt>
      <trkpt lat="45.4352" lon="5.86454">
        <ele>954.40002441406</ele>
        <time>2011-07-24T08:58:28.000Z</time>
      </trkpt>
      <trkpt lat="45.43542" lon="5.86449">
        <ele>957.20001220703</ele>
        <time>2011-07-24T08:58:39.000Z</time>
      </trkpt>
      <trkpt lat="45.43546" lon="5.86442">
        <ele>960</ele>
        <time>2011-07-24T08:58:44.000Z</time>
      </trkpt>
      <trkpt lat="45.43556" lon="5.86428">
        <ele>965.20001220703</ele>
        <time>2011-07-24T08:58:54.000Z</time>
      </trkpt>
      <trkpt lat="45.43568" lon="5.86418">
        <ele>968.79998779297</ele>
        <time>2011-07-24T08:59:02.000Z</time>
      </trkpt>
      <trkpt lat="45.4357" lon="5.86418">
        <ele>968.79998779297</ele>
        <time>2011-07-24T08:59:03.000Z</time>
      </trkpt>
      <trkpt lat="45.43579" lon="5.86419">
        <ele>968.20001220703</ele>
        <time>2011-07-24T08:59:07.000Z</time>
      </trkpt>
      <trkpt lat="45.43603" lon="5.86417">
        <ele>970.40002441406</ele>
        <time>2011-07-24T08:59:20.000Z</time>
      </trkpt>
      <trkpt lat="45.43607" lon="5.86418">
        <ele>970.40002441406</ele>
        <time>2011-07-24T08:59:23.000Z</time>
      </trkpt>
      <trkpt lat="45.43622" lon="5.8642">
        <ele>971</ele>
        <time>2011-07-24T08:59:31.000Z</time>
      </trkpt>
      <trkpt lat="45.43625" lon="5.86419">
        <ele>971.79998779297</ele>
        <time>2011-07-24T08:59:37.000Z</time>
      </trkpt>
      <trkpt lat="45.43641" lon="5.86419">
        <ele>973</ele>
        <time>2011-07-24T08:59:45.000Z</time>
      </trkpt>
      <trkpt lat="45.43652" lon="5.86414">
        <ele>975.59997558594</ele>
        <time>2011-07-24T08:59:55.000Z</time>
      </trkpt>
      <trkpt lat="45.43664" lon="5.864">
        <ele>980.40002441406</ele>
        <time>2011-07-24T09:00:03.000Z</time>
      </trkpt>
      <trkpt lat="45.43669" lon="5.86394">
        <ele>982.59997558594</ele>
        <time>2011-07-24T09:00:06.000Z</time>
      </trkpt>
      <trkpt lat="45.43672" lon="5.86387">
        <ele>984.79998779297</ele>
        <time>2011-07-24T09:00:12.000Z</time>
      </trkpt>
      <trkpt lat="45.43662" lon="5.86379">
        <ele>986.59997558594</ele>
        <time>2011-07-24T09:00:19.000Z</time>
      </trkpt>
      <trkpt lat="45.43649" lon="5.86358">
        <ele>992.59997558594</ele>
        <time>2011-07-24T09:00:29.000Z</time>
      </trkpt>
      <trkpt lat="45.43643" lon="5.86354">
        <ele>993.79998779297</ele>
        <time>2011-07-24T09:00:38.000Z</time>
      </trkpt>
      <trkpt lat="45.43637" lon="5.8635">
        <ele>994.79998779297</ele>
        <time>2011-07-24T09:00:42.000Z</time>
      </trkpt>
      <trkpt lat="45.43629" lon="5.86347">
        <ele>996</ele>
        <time>2011-07-24T09:00:46.000Z</time>
      </trkpt>
      <trkpt lat="45.4361" lon="5.8634">
        <ele>998.20001220703</ele>
        <time>2011-07-24T09:00:56.000Z</time>
      </trkpt>
      <trkpt lat="45.43584" lon="5.8634">
        <ele>998.20001220703</ele>
        <time>2011-07-24T09:01:08.000Z</time>
      </trkpt>
      <trkpt lat="45.4357" lon="5.86329">
        <ele>1002.799987793</ele>
        <time>2011-07-24T09:01:18.000Z</time>
      </trkpt>
      <trkpt lat="45.43569" lon="5.86327">
        <ele>1003.5999755859</ele>
        <time>2011-07-24T09:01:21.000Z</time>
      </trkpt>
      <trkpt lat="45.43564" lon="5.86325">
        <ele>1004.5999755859</ele>
        <time>2011-07-24T09:01:26.000Z</time>
      </trkpt>
      <trkpt lat="45.43557" lon="5.86316">
        <ele>1007.5999755859</ele>
        <time>2011-07-24T09:01:35.000Z</time>
      </trkpt>
      <trkpt lat="45.43553" lon="5.86308">
        <ele>1010.4000244141</ele>
        <time>2011-07-24T09:01:44.000Z</time>
      </trkpt>
      <trkpt lat="45.43551" lon="5.86302">
        <ele>1012</ele>
        <time>2011-07-24T09:01:51.000Z</time>
      </trkpt>
      <trkpt lat="45.43554" lon="5.86288">
        <ele>1016.4000244141</ele>
        <time>2011-07-24T09:02:05.000Z</time>
      </trkpt>
      <trkpt lat="45.43558" lon="5.86277">
        <ele>1020</ele>
        <time>2011-07-24T09:02:15.000Z</time>
      </trkpt>
      <trkpt lat="45.43563" lon="5.86267">
        <ele>1023</ele>
        <time>2011-07-24T09:02:25.000Z</time>
      </trkpt>
      <trkpt lat="45.43564" lon="5.86259">
        <ele>1025.5999755859</ele>
        <time>2011-07-24T09:02:34.000Z</time>
      </trkpt>
      <trkpt lat="45.43568" lon="5.86251">
        <ele>1028</ele>
        <time>2011-07-24T09:02:45.000Z</time>
      </trkpt>
      <trkpt lat="45.43568" lon="5.8625">
        <ele>1028.4000244141</ele>
        <time>2011-07-24T09:02:46.000Z</time>
      </trkpt>
      <trkpt lat="45.43572" lon="5.86236">
        <ele>1030.4000244141</ele>
        <time>2011-07-24T09:02:56.000Z</time>
      </trkpt>
      <trkpt lat="45.43569" lon="5.86225">
        <ele>1031.4000244141</ele>
        <time>2011-07-24T09:03:04.000Z</time>
      </trkpt>
      <trkpt lat="45.4357" lon="5.86222">
        <ele>1032</ele>
        <time>2011-07-24T09:03:07.000Z</time>
      </trkpt>
      <trkpt lat="45.43577" lon="5.86206">
        <ele>1034.8000488281</ele>
        <time>2011-07-24T09:03:15.000Z</time>
      </trkpt>
      <trkpt lat="45.43592" lon="5.86178">
        <ele>1041</ele>
        <time>2011-07-24T09:03:32.000Z</time>
      </trkpt>
      <trkpt lat="45.43592" lon="5.86176">
        <ele>1041.4000244141</ele>
        <time>2011-07-24T09:03:34.000Z</time>
      </trkpt>
      <trkpt lat="45.43595" lon="5.86175">
        <ele>1041.8000488281</ele>
        <time>2011-07-24T09:03:38.000Z</time>
      </trkpt>
      <trkpt lat="45.43613" lon="5.86184">
        <ele>1042</ele>
        <time>2011-07-24T09:03:50.000Z</time>
      </trkpt>
      <trkpt lat="45.43624" lon="5.86191">
        <ele>1041.1999511719</ele>
        <time>2011-07-24T09:03:56.000Z</time>
      </trkpt>
      <trkpt lat="45.43638" lon="5.86195">
        <ele>1041</ele>
        <time>2011-07-24T09:04:05.000Z</time>
      </trkpt>
      <trkpt lat="45.43647" lon="5.86193">
        <ele>1042.4000244141</ele>
        <time>2011-07-24T09:04:14.000Z</time>
      </trkpt>
      <trkpt lat="45.43661" lon="5.86194">
        <ele>1042.8000488281</ele>
        <time>2011-07-24T09:04:22.000Z</time>
      </trkpt>
      <trkpt lat="45.43675" lon="5.86194">
        <ele>1043.4000244141</ele>
        <time>2011-07-24T09:04:28.000Z</time>
      </trkpt>
      <trkpt lat="45.43678" lon="5.86194">
        <ele>1043.5999755859</ele>
        <time>2011-07-24T09:04:30.000Z</time>
      </trkpt>
      <trkpt lat="45.43683" lon="5.86194">
        <ele>1043.5999755859</ele>
        <time>2011-07-24T09:04:33.000Z</time>
      </trkpt>
      <trkpt lat="45.43689" lon="5.86194">
        <ele>1043.5999755859</ele>
        <time>2011-07-24T09:04:37.000Z</time>
      </trkpt>
      <trkpt lat="45.43698" lon="5.86187">
        <ele>1046.1999511719</ele>
        <time>2011-07-24T09:04:45.000Z</time>
      </trkpt>
      <trkpt lat="45.4372" lon="5.8618">
        <ele>1048.5999755859</ele>
        <time>2011-07-24T09:04:55.000Z</time>
      </trkpt>
      <trkpt lat="45.43721" lon="5.86177">
        <ele>1049.8000488281</ele>
        <time>2011-07-24T09:04:57.000Z</time>
      </trkpt>
      <trkpt lat="45.4373" lon="5.86169">
        <ele>1053</ele>
        <time>2011-07-24T09:05:07.000Z</time>
      </trkpt>
      <trkpt lat="45.43738" lon="5.86161">
        <ele>1056</ele>
        <time>2011-07-24T09:05:14.000Z</time>
      </trkpt>
      <trkpt lat="45.43747" lon="5.86149">
        <ele>1060.1999511719</ele>
        <time>2011-07-24T09:05:27.000Z</time>
      </trkpt>
      <trkpt lat="45.43747" lon="5.86148">
        <ele>1060.5999755859</ele>
        <time>2011-07-24T09:05:28.000Z</time>
      </trkpt>
      <trkpt lat="45.43758" lon="5.86138">
        <ele>1064.8000488281</ele>
        <time>2011-07-24T09:05:40.000Z</time>
      </trkpt>
      <trkpt lat="45.43762" lon="5.86137">
        <ele>1065.8000488281</ele>
        <time>2011-07-24T09:05:48.000Z</time>
      </trkpt>
      <trkpt lat="45.43766" lon="5.86129">
        <ele>1069</ele>
        <time>2011-07-24T09:05:56.000Z</time>
      </trkpt>
      <trkpt lat="45.43769" lon="5.86127">
        <ele>1069.8000488281</ele>
        <time>2011-07-24T09:06:05.000Z</time>
      </trkpt>
      <trkpt lat="45.43774" lon="5.86125">
        <ele>1071</ele>
        <time>2011-07-24T09:06:11.000Z</time>
      </trkpt>
      <trkpt lat="45.43779" lon="5.86124">
        <ele>1071.4000244141</ele>
        <time>2011-07-24T09:06:15.000Z</time>
      </trkpt>
      <trkpt lat="45.43787" lon="5.86125">
        <ele>1072</ele>
        <time>2011-07-24T09:06:21.000Z</time>
      </trkpt>
      <trkpt lat="45.43814" lon="5.86138">
        <ele>1070.1999511719</ele>
        <time>2011-07-24T09:06:32.000Z</time>
      </trkpt>
      <trkpt lat="45.43826" lon="5.86141">
        <ele>1070.4000244141</ele>
        <time>2011-07-24T09:06:37.000Z</time>
      </trkpt>
      <trkpt lat="45.43835" lon="5.86141">
        <ele>1071.1999511719</ele>
        <time>2011-07-24T09:06:41.000Z</time>
      </trkpt>
      <trkpt lat="45.43858" lon="5.86135">
        <ele>1075.1999511719</ele>
        <time>2011-07-24T09:06:53.000Z</time>
      </trkpt>
      <trkpt lat="45.43875" lon="5.8613">
        <ele>1078</ele>
        <time>2011-07-24T09:07:03.000Z</time>
      </trkpt>
      <trkpt lat="45.43887" lon="5.86122">
        <ele>1081.4000244141</ele>
        <time>2011-07-24T09:07:13.000Z</time>
      </trkpt>
      <trkpt lat="45.43886" lon="5.86114">
        <ele>1083.4000244141</ele>
        <time>2011-07-24T09:07:19.000Z</time>
      </trkpt>
      <trkpt lat="45.43887" lon="5.86112">
        <ele>1084</ele>
        <time>2011-07-24T09:07:20.000Z</time>
      </trkpt>
      <trkpt lat="45.43892" lon="5.86102">
        <ele>1086.8000488281</ele>
        <time>2011-07-24T09:07:29.000Z</time>
      </trkpt>
      <trkpt lat="45.43893" lon="5.86094">
        <ele>1089.1999511719</ele>
        <time>2011-07-24T09:07:36.000Z</time>
      </trkpt>
      <trkpt lat="45.43897" lon="5.86084">
        <ele>1092</ele>
        <time>2011-07-24T09:07:46.000Z</time>
      </trkpt>
      <trkpt lat="45.43904" lon="5.86077">
        <ele>1094.8000488281</ele>
        <time>2011-07-24T09:07:59.000Z</time>
      </trkpt>
      <trkpt lat="45.43902" lon="5.86069">
        <ele>1097</ele>
        <time>2011-07-24T09:08:06.000Z</time>
      </trkpt>
      <trkpt lat="45.43899" lon="5.86062">
        <ele>1099</ele>
        <time>2011-07-24T09:08:13.000Z</time>
      </trkpt>
      <trkpt lat="45.43899" lon="5.8606">
        <ele>1099.8000488281</ele>
        <time>2011-07-24T09:08:15.000Z</time>
      </trkpt>
      <trkpt lat="45.43905" lon="5.86053">
        <ele>1102.5999755859</ele>
        <time>2011-07-24T09:08:32.000Z</time>
      </trkpt>
      <trkpt lat="45.43906" lon="5.86053">
        <ele>1102.4000244141</ele>
        <time>2011-07-24T09:08:33.000Z</time>
      </trkpt>
      <trkpt lat="45.43909" lon="5.86053">
        <ele>1102.5999755859</ele>
        <time>2011-07-24T09:08:35.000Z</time>
      </trkpt>
      <trkpt lat="45.43922" lon="5.86043">
        <ele>1106.4000244141</ele>
        <time>2011-07-24T09:08:52.000Z</time>
      </trkpt>
      <trkpt lat="45.43922" lon="5.86043">
        <ele>1106.5999755859</ele>
        <time>2011-07-24T09:08:53.000Z</time>
      </trkpt>
      <trkpt lat="45.43933" lon="5.86038">
        <ele>1109</ele>
        <time>2011-07-24T09:09:05.000Z</time>
      </trkpt>
      <trkpt lat="45.43934" lon="5.86038">
        <ele>1109.1999511719</ele>
        <time>2011-07-24T09:09:06.000Z</time>
      </trkpt>
      <trkpt lat="45.43946" lon="5.86033">
        <ele>1111.8000488281</ele>
        <time>2011-07-24T09:09:19.000Z</time>
      </trkpt>
      <trkpt lat="45.43953" lon="5.86024">
        <ele>1115.4000244141</ele>
        <time>2011-07-24T09:09:28.000Z</time>
      </trkpt>
      <trkpt lat="45.43966" lon="5.8601">
        <ele>1121.5999755859</ele>
        <time>2011-07-24T09:09:42.000Z</time>
      </trkpt>
      <trkpt lat="45.43979" lon="5.86">
        <ele>1126.4000244141</ele>
        <time>2011-07-24T09:09:53.000Z</time>
      </trkpt>
      <trkpt lat="45.4399" lon="5.8599">
        <ele>1130.5999755859</ele>
        <time>2011-07-24T09:10:03.000Z</time>
      </trkpt>
      <trkpt lat="45.44" lon="5.85985">
        <ele>1133.1999511719</ele>
        <time>2011-07-24T09:10:20.000Z</time>
      </trkpt>
      <trkpt lat="45.44005" lon="5.85992">
        <ele>1131</ele>
        <time>2011-07-24T09:10:39.000Z</time>
      </trkpt>
      <trkpt lat="45.44015" lon="5.85993">
        <ele>1130.5999755859</ele>
        <time>2011-07-24T09:11:07.000Z</time>
      </trkpt>
      <trkpt lat="45.44019" lon="5.85992">
        <ele>1131</ele>
        <time>2011-07-24T09:11:10.000Z</time>
      </trkpt>
      <trkpt lat="45.4404" lon="5.85982">
        <ele>1133.4000244141</ele>
        <time>2011-07-24T09:11:21.000Z</time>
      </trkpt>
      <trkpt lat="45.4405" lon="5.85978">
        <ele>1134.5999755859</ele>
        <time>2011-07-24T09:11:26.000Z</time>
      </trkpt>
      <trkpt lat="45.44059" lon="5.8598">
        <ele>1133.8000488281</ele>
        <time>2011-07-24T09:11:31.000Z</time>
      </trkpt>
      <trkpt lat="45.44068" lon="5.85977">
        <ele>1134.4000244141</ele>
        <time>2011-07-24T09:11:36.000Z</time>
      </trkpt>
      <trkpt lat="45.4408" lon="5.85978">
        <ele>1134</ele>
        <time>2011-07-24T09:11:40.000Z</time>
      </trkpt>
      <trkpt lat="45.44093" lon="5.85985">
        <ele>1132.1999511719</ele>
        <time>2011-07-24T09:11:50.000Z</time>
      </trkpt>
      <trkpt lat="45.44096" lon="5.85986">
        <ele>1131.8000488281</ele>
        <time>2011-07-24T09:11:53.000Z</time>
      </trkpt>
      <trkpt lat="45.44109" lon="5.8599">
        <ele>1131</ele>
        <time>2011-07-24T09:12:02.000Z</time>
      </trkpt>
      <trkpt lat="45.44113" lon="5.85987">
        <ele>1132</ele>
        <time>2011-07-24T09:12:06.000Z</time>
      </trkpt>
      <trkpt lat="45.44116" lon="5.85981">
        <ele>1133.8000488281</ele>
        <time>2011-07-24T09:12:10.000Z</time>
      </trkpt>
      <trkpt lat="45.44133" lon="5.85974">
        <ele>1136.4000244141</ele>
        <time>2011-07-24T09:12:21.000Z</time>
      </trkpt>
      <trkpt lat="45.44148" lon="5.85984">
        <ele>1133.8000488281</ele>
        <time>2011-07-24T09:12:37.000Z</time>
      </trkpt>
      <trkpt lat="45.4416" lon="5.85988">
        <ele>1133</ele>
        <time>2011-07-24T09:12:43.000Z</time>
      </trkpt>
      <trkpt lat="45.44182" lon="5.85994">
        <ele>1132.8000488281</ele>
        <time>2011-07-24T09:12:52.000Z</time>
      </trkpt>
      <trkpt lat="45.44204" lon="5.86001">
        <ele>1132.4000244141</ele>
        <time>2011-07-24T09:13:02.000Z</time>
      </trkpt>
      <trkpt lat="45.44212" lon="5.86007">
        <ele>1131.5999755859</ele>
        <time>2011-07-24T09:13:06.000Z</time>
      </trkpt>
      <trkpt lat="45.44232" lon="5.8601">
        <ele>1132.5999755859</ele>
        <time>2011-07-24T09:13:16.000Z</time>
      </trkpt>
      <trkpt lat="45.44247" lon="5.86009">
        <ele>1134</ele>
        <time>2011-07-24T09:13:23.000Z</time>
      </trkpt>
      <trkpt lat="45.44261" lon="5.85998">
        <ele>1137</ele>
        <time>2011-07-24T09:13:31.000Z</time>
      </trkpt>
      <trkpt lat="45.44271" lon="5.85996">
        <ele>1138.4000244141</ele>
        <time>2011-07-24T09:13:37.000Z</time>
      </trkpt>
      <trkpt lat="45.44292" lon="5.86004">
        <ele>1138.4000244141</ele>
        <time>2011-07-24T09:13:47.000Z</time>
      </trkpt>
      <trkpt lat="45.44316" lon="5.86005">
        <ele>1140</ele>
        <time>2011-07-24T09:13:59.000Z</time>
      </trkpt>
      <trkpt lat="45.44331" lon="5.86008">
        <ele>1140.8000488281</ele>
        <time>2011-07-24T09:14:08.000Z</time>
      </trkpt>
      <trkpt lat="45.44347" lon="5.8601">
        <ele>1143.1999511719</ele>
        <time>2011-07-24T09:14:21.000Z</time>
      </trkpt>
      <trkpt lat="45.44348" lon="5.86011">
        <ele>1143.1999511719</ele>
        <time>2011-07-24T09:14:22.000Z</time>
      </trkpt>
      <trkpt lat="45.44359" lon="5.86009">
        <ele>1145.4000244141</ele>
        <time>2011-07-24T09:14:29.000Z</time>
      </trkpt>
      <trkpt lat="45.44387" lon="5.86012">
        <ele>1149.8000488281</ele>
        <time>2011-07-24T09:14:41.000Z</time>
      </trkpt>
      <trkpt lat="45.44413" lon="5.86015">
        <ele>1154.1999511719</ele>
        <time>2011-07-24T09:14:52.000Z</time>
      </trkpt>
      <trkpt lat="45.44434" lon="5.86018">
        <ele>1156.8000488281</ele>
        <time>2011-07-24T09:15:01.000Z</time>
      </trkpt>
      <trkpt lat="45.44456" lon="5.86016">
        <ele>1159.5999755859</ele>
        <time>2011-07-24T09:15:10.000Z</time>
      </trkpt>
      <trkpt lat="45.44476" lon="5.86016">
        <ele>1162</ele>
        <time>2011-07-24T09:15:18.000Z</time>
      </trkpt>
      <trkpt lat="45.44484" lon="5.86015">
        <ele>1163.1999511719</ele>
        <time>2011-07-24T09:15:23.000Z</time>
      </trkpt>
      <trkpt lat="45.44496" lon="5.86017">
        <ele>1164.5999755859</ele>
        <time>2011-07-24T09:15:32.000Z</time>
      </trkpt>
      <trkpt lat="45.44497" lon="5.86017">
        <ele>1164.8000488281</ele>
        <time>2011-07-24T09:15:44.000Z</time>
      </trkpt>
      <trkpt lat="45.44498" lon="5.86018">
        <ele>1164.8000488281</ele>
        <time>2011-07-24T09:15:46.000Z</time>
      </trkpt>
      <trkpt lat="45.44497" lon="5.8603">
        <ele>1164</ele>
        <time>2011-07-24T09:15:51.000Z</time>
      </trkpt>
      <trkpt lat="45.44482" lon="5.8606">
        <ele>1160.5999755859</ele>
        <time>2011-07-24T09:16:01.000Z</time>
      </trkpt>
      <trkpt lat="45.44467" lon="5.86072">
        <ele>1157.8000488281</ele>
        <time>2011-07-24T09:16:08.000Z</time>
      </trkpt>
      <trkpt lat="45.44456" lon="5.86084">
        <ele>1155.5999755859</ele>
        <time>2011-07-24T09:16:15.000Z</time>
      </trkpt>
      <trkpt lat="45.4445" lon="5.8609">
        <ele>1155.4000244141</ele>
        <time>2011-07-24T09:16:19.000Z</time>
      </trkpt>
      <trkpt lat="45.44446" lon="5.86093">
        <ele>1154.8000488281</ele>
        <time>2011-07-24T09:16:21.000Z</time>
      </trkpt>
      <trkpt lat="45.44429" lon="5.86101">
        <ele>1152.1999511719</ele>
        <time>2011-07-24T09:16:27.000Z</time>
      </trkpt>
      <trkpt lat="45.44414" lon="5.86122">
        <ele>1149.1999511719</ele>
        <time>2011-07-24T09:16:37.000Z</time>
      </trkpt>
      <trkpt lat="45.44408" lon="5.86132">
        <ele>1147.8000488281</ele>
        <time>2011-07-24T09:16:41.000Z</time>
      </trkpt>
      <trkpt lat="45.444" lon="5.86159">
        <ele>1145</ele>
        <time>2011-07-24T09:16:48.000Z</time>
      </trkpt>
      <trkpt lat="45.44392" lon="5.86189">
        <ele>1144.1999511719</ele>
        <time>2011-07-24T09:16:56.000Z</time>
      </trkpt>
      <trkpt lat="45.44391" lon="5.86192">
        <ele>1144</ele>
        <time>2011-07-24T09:16:57.000Z</time>
      </trkpt>
      <trkpt lat="45.44379" lon="5.86236">
        <ele>1143.1999511719</ele>
        <time>2011-07-24T09:17:08.000Z</time>
      </trkpt>
      <trkpt lat="45.44374" lon="5.86251">
        <ele>1142.1999511719</ele>
        <time>2011-07-24T09:17:12.000Z</time>
      </trkpt>
      <trkpt lat="45.4437" lon="5.86264">
        <ele>1141.8000488281</ele>
        <time>2011-07-24T09:17:16.000Z</time>
      </trkpt>
      <trkpt lat="45.44359" lon="5.86283">
        <ele>1139.4000244141</ele>
        <time>2011-07-24T09:17:22.000Z</time>
      </trkpt>
      <trkpt lat="45.4434" lon="5.86307">
        <ele>1132.4000244141</ele>
        <time>2011-07-24T09:17:29.000Z</time>
      </trkpt>
      <trkpt lat="45.44333" lon="5.86323">
        <ele>1130.1999511719</ele>
        <time>2011-07-24T09:17:33.000Z</time>
      </trkpt>
      <trkpt lat="45.44328" lon="5.86338">
        <ele>1129</ele>
        <time>2011-07-24T09:17:38.000Z</time>
      </trkpt>
      <trkpt lat="45.44326" lon="5.86357">
        <ele>1129.8000488281</ele>
        <time>2011-07-24T09:17:43.000Z</time>
      </trkpt>
      <trkpt lat="45.44317" lon="5.86399">
        <ele>1129.5999755859</ele>
        <time>2011-07-24T09:17:53.000Z</time>
      </trkpt>
      <trkpt lat="45.44308" lon="5.86429">
        <ele>1127.4000244141</ele>
        <time>2011-07-24T09:18:01.000Z</time>
      </trkpt>
      <trkpt lat="45.44299" lon="5.86456">
        <ele>1125.1999511719</ele>
        <time>2011-07-24T09:18:08.000Z</time>
      </trkpt>
      <trkpt lat="45.44295" lon="5.86469">
        <ele>1124.5999755859</ele>
        <time>2011-07-24T09:18:12.000Z</time>
      </trkpt>
      <trkpt lat="45.44272" lon="5.86506">
        <ele>1117.4000244141</ele>
        <time>2011-07-24T09:18:24.000Z</time>
      </trkpt>
      <trkpt lat="45.44254" lon="5.86525">
        <ele>1110.5999755859</ele>
        <time>2011-07-24T09:18:33.000Z</time>
      </trkpt>
      <trkpt lat="45.44248" lon="5.86533">
        <ele>1108.8000488281</ele>
        <time>2011-07-24T09:18:36.000Z</time>
      </trkpt>
      <trkpt lat="45.44244" lon="5.86547">
        <ele>1108.5999755859</ele>
        <time>2011-07-24T09:18:40.000Z</time>
      </trkpt>
      <trkpt lat="45.44245" lon="5.86554">
        <ele>1109.4000244141</ele>
        <time>2011-07-24T09:18:42.000Z</time>
      </trkpt>
      <trkpt lat="45.44246" lon="5.86558">
        <ele>1109.5999755859</ele>
        <time>2011-07-24T09:18:43.000Z</time>
      </trkpt>
      <trkpt lat="45.44245" lon="5.86566">
        <ele>1110</ele>
        <time>2011-07-24T09:18:45.000Z</time>
      </trkpt>
      <trkpt lat="45.44242" lon="5.86576">
        <ele>1110</ele>
        <time>2011-07-24T09:18:48.000Z</time>
      </trkpt>
      <trkpt lat="45.4424" lon="5.86581">
        <ele>1109.8000488281</ele>
        <time>2011-07-24T09:18:50.000Z</time>
      </trkpt>
      <trkpt lat="45.44237" lon="5.86584">
        <ele>1109.4000244141</ele>
        <time>2011-07-24T09:18:52.000Z</time>
      </trkpt>
      <trkpt lat="45.44231" lon="5.86592">
        <ele>1106.1999511719</ele>
        <time>2011-07-24T09:18:56.000Z</time>
      </trkpt>
      <trkpt lat="45.44222" lon="5.86598">
        <ele>1103.8000488281</ele>
        <time>2011-07-24T09:19:00.000Z</time>
      </trkpt>
      <trkpt lat="45.44211" lon="5.86599">
        <ele>1101.8000488281</ele>
        <time>2011-07-24T09:19:07.000Z</time>
      </trkpt>
      <trkpt lat="45.44191" lon="5.86599">
        <ele>1098.8000488281</ele>
        <time>2011-07-24T09:19:13.000Z</time>
      </trkpt>
      <trkpt lat="45.44181" lon="5.86599">
        <ele>1097.1999511719</ele>
        <time>2011-07-24T09:19:16.000Z</time>
      </trkpt>
      <trkpt lat="45.44164" lon="5.86612">
        <ele>1093</ele>
        <time>2011-07-24T09:19:23.000Z</time>
      </trkpt>
      <trkpt lat="45.44157" lon="5.86619">
        <ele>1090.1999511719</ele>
        <time>2011-07-24T09:19:26.000Z</time>
      </trkpt>
      <trkpt lat="45.44148" lon="5.86625">
        <ele>1087.4000244141</ele>
        <time>2011-07-24T09:19:29.000Z</time>
      </trkpt>
      <trkpt lat="45.44134" lon="5.86632">
        <ele>1083.1999511719</ele>
        <time>2011-07-24T09:19:35.000Z</time>
      </trkpt>
      <trkpt lat="45.44128" lon="5.86635">
        <ele>1081.8000488281</ele>
        <time>2011-07-24T09:19:37.000Z</time>
      </trkpt>
      <trkpt lat="45.44119" lon="5.86639">
        <ele>1079.1999511719</ele>
        <time>2011-07-24T09:19:41.000Z</time>
      </trkpt>
      <trkpt lat="45.44109" lon="5.86644">
        <ele>1077</ele>
        <time>2011-07-24T09:19:46.000Z</time>
      </trkpt>
      <trkpt lat="45.44102" lon="5.86644">
        <ele>1075.1999511719</ele>
        <time>2011-07-24T09:19:49.000Z</time>
      </trkpt>
      <trkpt lat="45.44099" lon="5.86643">
        <ele>1074.4000244141</ele>
        <time>2011-07-24T09:19:51.000Z</time>
      </trkpt>
      <trkpt lat="45.44085" lon="5.86638">
        <ele>1071</ele>
        <time>2011-07-24T09:19:56.000Z</time>
      </trkpt>
      <trkpt lat="45.44068" lon="5.86639">
        <ele>1067</ele>
        <time>2011-07-24T09:20:01.000Z</time>
      </trkpt>
      <trkpt lat="45.44055" lon="5.86654">
        <ele>1065</ele>
        <time>2011-07-24T09:20:07.000Z</time>
      </trkpt>
      <trkpt lat="45.44046" lon="5.8667">
        <ele>1063.1999511719</ele>
        <time>2011-07-24T09:20:12.000Z</time>
      </trkpt>
      <trkpt lat="45.44042" lon="5.86676">
        <ele>1061</ele>
        <time>2011-07-24T09:20:15.000Z</time>
      </trkpt>
      <trkpt lat="45.44039" lon="5.86679">
        <ele>1059.8000488281</ele>
        <time>2011-07-24T09:20:17.000Z</time>
      </trkpt>
      <trkpt lat="45.44032" lon="5.86681">
        <ele>1058</ele>
        <time>2011-07-24T09:20:21.000Z</time>
      </trkpt>
      <trkpt lat="45.44026" lon="5.8669">
        <ele>1055</ele>
        <time>2011-07-24T09:20:27.000Z</time>
      </trkpt>
      <trkpt lat="45.44031" lon="5.86695">
        <ele>1055</ele>
        <time>2011-07-24T09:20:30.000Z</time>
      </trkpt>
      <trkpt lat="45.4406" lon="5.86702">
        <ele>1059.4000244141</ele>
        <time>2011-07-24T09:20:40.000Z</time>
      </trkpt>
      <trkpt lat="45.44071" lon="5.86704">
        <ele>1061.1999511719</ele>
        <time>2011-07-24T09:20:44.000Z</time>
      </trkpt>
      <trkpt lat="45.44103" lon="5.86713">
        <ele>1063</ele>
        <time>2011-07-24T09:20:56.000Z</time>
      </trkpt>
      <trkpt lat="45.44128" lon="5.86715">
        <ele>1064</ele>
        <time>2011-07-24T09:21:05.000Z</time>
      </trkpt>
      <trkpt lat="45.44131" lon="5.86715">
        <ele>1064.4000244141</ele>
        <time>2011-07-24T09:21:06.000Z</time>
      </trkpt>
      <trkpt lat="45.44146" lon="5.86709">
        <ele>1067.8000488281</ele>
        <time>2011-07-24T09:21:13.000Z</time>
      </trkpt>
      <trkpt lat="45.44153" lon="5.86707">
        <ele>1069.1999511719</ele>
        <time>2011-07-24T09:21:17.000Z</time>
      </trkpt>
      <trkpt lat="45.44177" lon="5.867">
        <ele>1073.8000488281</ele>
        <time>2011-07-24T09:21:25.000Z</time>
      </trkpt>
      <trkpt lat="45.4418" lon="5.867">
        <ele>1073.5999755859</ele>
        <time>2011-07-24T09:21:26.000Z</time>
      </trkpt>
      <trkpt lat="45.44192" lon="5.86702">
        <ele>1073</ele>
        <time>2011-07-24T09:21:30.000Z</time>
      </trkpt>
      <trkpt lat="45.44198" lon="5.86703">
        <ele>1072.1999511719</ele>
        <time>2011-07-24T09:21:32.000Z</time>
      </trkpt>
      <trkpt lat="45.44225" lon="5.86719">
        <ele>1065.4000244141</ele>
        <time>2011-07-24T09:21:41.000Z</time>
      </trkpt>
      <trkpt lat="45.44249" lon="5.8675">
        <ele>1051.8000488281</ele>
        <time>2011-07-24T09:21:52.000Z</time>
      </trkpt>
      <trkpt lat="45.44251" lon="5.86752">
        <ele>1051.4000244141</ele>
        <time>2011-07-24T09:21:53.000Z</time>
      </trkpt>
      <trkpt lat="45.44261" lon="5.86764">
        <ele>1049.1999511719</ele>
        <time>2011-07-24T09:21:58.000Z</time>
      </trkpt>
      <trkpt lat="45.44271" lon="5.86774">
        <ele>1047.8000488281</ele>
        <time>2011-07-24T09:22:03.000Z</time>
      </trkpt>
      <trkpt lat="45.44285" lon="5.86782">
        <ele>1047.5999755859</ele>
        <time>2011-07-24T09:22:09.000Z</time>
      </trkpt>
      <trkpt lat="45.44292" lon="5.86784">
        <ele>1048</ele>
        <time>2011-07-24T09:22:12.000Z</time>
      </trkpt>
      <trkpt lat="45.44306" lon="5.86795">
        <ele>1047</ele>
        <time>2011-07-24T09:22:18.000Z</time>
      </trkpt>
      <trkpt lat="45.44308" lon="5.86798">
        <ele>1046.5999755859</ele>
        <time>2011-07-24T09:22:19.000Z</time>
      </trkpt>
      <trkpt lat="45.44317" lon="5.86806">
        <ele>1045.8000488281</ele>
        <time>2011-07-24T09:22:23.000Z</time>
      </trkpt>
      <trkpt lat="45.44324" lon="5.86809">
        <ele>1046</ele>
        <time>2011-07-24T09:22:26.000Z</time>
      </trkpt>
      <trkpt lat="45.44338" lon="5.86817">
        <ele>1045.4000244141</ele>
        <time>2011-07-24T09:22:33.000Z</time>
      </trkpt>
      <trkpt lat="45.44338" lon="5.8682">
        <ele>1044.5999755859</ele>
        <time>2011-07-24T09:22:35.000Z</time>
      </trkpt>
      <trkpt lat="45.44333" lon="5.86828">
        <ele>1042.1999511719</ele>
        <time>2011-07-24T09:22:40.000Z</time>
      </trkpt>
      <trkpt lat="45.44333" lon="5.8683">
        <ele>1041.5999755859</ele>
        <time>2011-07-24T09:22:41.000Z</time>
      </trkpt>
      <trkpt lat="45.44326" lon="5.86845">
        <ele>1039</ele>
        <time>2011-07-24T09:22:48.000Z</time>
      </trkpt>
      <trkpt lat="45.44325" lon="5.86847">
        <ele>1038.5999755859</ele>
        <time>2011-07-24T09:22:49.000Z</time>
      </trkpt>
      <trkpt lat="45.44328" lon="5.86859">
        <ele>1038.1999511719</ele>
        <time>2011-07-24T09:22:55.000Z</time>
      </trkpt>
      <trkpt lat="45.44329" lon="5.86863">
        <ele>1038.1999511719</ele>
        <time>2011-07-24T09:22:57.000Z</time>
      </trkpt>
      <trkpt lat="45.44335" lon="5.86877">
        <ele>1037.5999755859</ele>
        <time>2011-07-24T09:23:02.000Z</time>
      </trkpt>
      <trkpt lat="45.4434" lon="5.8689">
        <ele>1035.8000488281</ele>
        <time>2011-07-24T09:23:07.000Z</time>
      </trkpt>
      <trkpt lat="45.44341" lon="5.86891">
        <ele>1035.4000244141</ele>
        <time>2011-07-24T09:23:08.000Z</time>
      </trkpt>
      <trkpt lat="45.44347" lon="5.86902">
        <ele>1033.1999511719</ele>
        <time>2011-07-24T09:23:12.000Z</time>
      </trkpt>
      <trkpt lat="45.44349" lon="5.86904">
        <ele>1032.5999755859</ele>
        <time>2011-07-24T09:23:13.000Z</time>
      </trkpt>
      <trkpt lat="45.44354" lon="5.86912">
        <ele>1030.4000244141</ele>
        <time>2011-07-24T09:23:16.000Z</time>
      </trkpt>
      <trkpt lat="45.44356" lon="5.86914">
        <ele>1029.5999755859</ele>
        <time>2011-07-24T09:23:17.000Z</time>
      </trkpt>
      <trkpt lat="45.4436" lon="5.86921">
        <ele>1027.8000488281</ele>
        <time>2011-07-24T09:23:20.000Z</time>
      </trkpt>
      <trkpt lat="45.44374" lon="5.86946">
        <ele>1022.5999755859</ele>
        <time>2011-07-24T09:23:29.000Z</time>
      </trkpt>
      <trkpt lat="45.44376" lon="5.86949">
        <ele>1022</ele>
        <time>2011-07-24T09:23:30.000Z</time>
      </trkpt>
      <trkpt lat="45.44392" lon="5.86969">
        <ele>1016.200012207</ele>
        <time>2011-07-24T09:23:38.000Z</time>
      </trkpt>
      <trkpt lat="45.44397" lon="5.86971">
        <ele>1014.5999755859</ele>
        <time>2011-07-24T09:23:40.000Z</time>
      </trkpt>
      <trkpt lat="45.44405" lon="5.86953">
        <ele>1014</ele>
        <time>2011-07-24T09:23:48.000Z</time>
      </trkpt>
      <trkpt lat="45.44416" lon="5.86944">
        <ele>1012</ele>
        <time>2011-07-24T09:23:53.000Z</time>
      </trkpt>
      <trkpt lat="45.44422" lon="5.86939">
        <ele>1011.200012207</ele>
        <time>2011-07-24T09:23:55.000Z</time>
      </trkpt>
      <trkpt lat="45.44436" lon="5.86927">
        <ele>1010.200012207</ele>
        <time>2011-07-24T09:24:00.000Z</time>
      </trkpt>
      <trkpt lat="45.44459" lon="5.86921">
        <ele>1007.799987793</ele>
        <time>2011-07-24T09:24:08.000Z</time>
      </trkpt>
      <trkpt lat="45.44468" lon="5.86924">
        <ele>1006</ele>
        <time>2011-07-24T09:24:11.000Z</time>
      </trkpt>
      <trkpt lat="45.44477" lon="5.86928">
        <ele>1004</ele>
        <time>2011-07-24T09:24:14.000Z</time>
      </trkpt>
      <trkpt lat="45.445" lon="5.86941">
        <ele>998.20001220703</ele>
        <time>2011-07-24T09:24:22.000Z</time>
      </trkpt>
      <trkpt lat="45.44502" lon="5.86943">
        <ele>997.79998779297</ele>
        <time>2011-07-24T09:24:23.000Z</time>
      </trkpt>
      <trkpt lat="45.4452" lon="5.8695">
        <ele>994.59997558594</ele>
        <time>2011-07-24T09:24:30.000Z</time>
      </trkpt>
      <trkpt lat="45.44523" lon="5.86951">
        <ele>994.20001220703</ele>
        <time>2011-07-24T09:24:31.000Z</time>
      </trkpt>
      <trkpt lat="45.44535" lon="5.86954">
        <ele>992.20001220703</ele>
        <time>2011-07-24T09:24:37.000Z</time>
      </trkpt>
      <trkpt lat="45.44539" lon="5.86957">
        <ele>991</ele>
        <time>2011-07-24T09:24:39.000Z</time>
      </trkpt>
      <trkpt lat="45.44548" lon="5.86962">
        <ele>988.59997558594</ele>
        <time>2011-07-24T09:24:43.000Z</time>
      </trkpt>
      <trkpt lat="45.44553" lon="5.86968">
        <ele>986.20001220703</ele>
        <time>2011-07-24T09:24:46.000Z</time>
      </trkpt>
      <trkpt lat="45.44559" lon="5.86978">
        <ele>982.59997558594</ele>
        <time>2011-07-24T09:24:50.000Z</time>
      </trkpt>
      <trkpt lat="45.44567" lon="5.86991">
        <ele>977</ele>
        <time>2011-07-24T09:24:55.000Z</time>
      </trkpt>
      <trkpt lat="45.44576" lon="5.86997">
        <ele>973.59997558594</ele>
        <time>2011-07-24T09:25:00.000Z</time>
      </trkpt>
      <trkpt lat="45.44582" lon="5.87002">
        <ele>970.79998779297</ele>
        <time>2011-07-24T09:25:04.000Z</time>
      </trkpt>
      <trkpt lat="45.4459" lon="5.87012">
        <ele>968.59997558594</ele>
        <time>2011-07-24T09:25:08.000Z</time>
      </trkpt>
      <trkpt lat="45.446" lon="5.87026">
        <ele>965.40002441406</ele>
        <time>2011-07-24T09:25:13.000Z</time>
      </trkpt>
      <trkpt lat="45.44604" lon="5.87032">
        <ele>964</ele>
        <time>2011-07-24T09:25:15.000Z</time>
      </trkpt>
      <trkpt lat="45.44614" lon="5.87051">
        <ele>960.20001220703</ele>
        <time>2011-07-24T09:25:21.000Z</time>
      </trkpt>
      <trkpt lat="45.44632" lon="5.87063">
        <ele>955.79998779297</ele>
        <time>2011-07-24T09:25:29.000Z</time>
      </trkpt>
      <trkpt lat="45.44635" lon="5.87064">
        <ele>955.20001220703</ele>
        <time>2011-07-24T09:25:30.000Z</time>
      </trkpt>
      <trkpt lat="45.44646" lon="5.87119">
        <ele>949.20001220703</ele>
        <time>2011-07-24T09:25:42.000Z</time>
      </trkpt>
      <trkpt lat="45.44646" lon="5.87165">
        <ele>947.40002441406</ele>
        <time>2011-07-24T09:25:52.000Z</time>
      </trkpt>
      <trkpt lat="45.44649" lon="5.87191">
        <ele>946.20001220703</ele>
        <time>2011-07-24T09:25:58.000Z</time>
      </trkpt>
      <trkpt lat="45.44637" lon="5.87224">
        <ele>946.40002441406</ele>
        <time>2011-07-24T09:26:07.000Z</time>
      </trkpt>
      <trkpt lat="45.44645" lon="5.87267">
        <ele>943.20001220703</ele>
        <time>2011-07-24T09:26:17.000Z</time>
      </trkpt>
      <trkpt lat="45.44658" lon="5.87297">
        <ele>940.20001220703</ele>
        <time>2011-07-24T09:26:25.000Z</time>
      </trkpt>
      <trkpt lat="45.44664" lon="5.87313">
        <ele>939</ele>
        <time>2011-07-24T09:26:29.000Z</time>
      </trkpt>
      <trkpt lat="45.44679" lon="5.87336">
        <ele>935.59997558594</ele>
        <time>2011-07-24T09:26:36.000Z</time>
      </trkpt>
      <trkpt lat="45.44686" lon="5.87357">
        <ele>932.20001220703</ele>
        <time>2011-07-24T09:26:42.000Z</time>
      </trkpt>
      <trkpt lat="45.44675" lon="5.87377">
        <ele>931</ele>
        <time>2011-07-24T09:26:49.000Z</time>
      </trkpt>
      <trkpt lat="45.44647" lon="5.87379">
        <ele>930.59997558594</ele>
        <time>2011-07-24T09:26:59.000Z</time>
      </trkpt>
      <trkpt lat="45.44644" lon="5.87381">
        <ele>930</ele>
        <time>2011-07-24T09:27:01.000Z</time>
      </trkpt>
      <trkpt lat="45.44616" lon="5.87392">
        <ele>927.40002441406</ele>
        <time>2011-07-24T09:27:11.000Z</time>
      </trkpt>
      <trkpt lat="45.44597" lon="5.87395">
        <ele>926.20001220703</ele>
        <time>2011-07-24T09:27:19.000Z</time>
      </trkpt>
      <trkpt lat="45.4459" lon="5.87397">
        <ele>925.79998779297</ele>
        <time>2011-07-24T09:27:22.000Z</time>
      </trkpt>
      <trkpt lat="45.44584" lon="5.874">
        <ele>925.20001220703</ele>
        <time>2011-07-24T09:27:25.000Z</time>
      </trkpt>
      <trkpt lat="45.44577" lon="5.87401">
        <ele>924.59997558594</ele>
        <time>2011-07-24T09:27:28.000Z</time>
      </trkpt>
      <trkpt lat="45.44564" lon="5.87405">
        <ele>923.40002441406</ele>
        <time>2011-07-24T09:27:33.000Z</time>
      </trkpt>
      <trkpt lat="45.44535" lon="5.87419">
        <ele>918.59997558594</ele>
        <time>2011-07-24T09:27:43.000Z</time>
      </trkpt>
      <trkpt lat="45.44525" lon="5.87424">
        <ele>916.59997558594</ele>
        <time>2011-07-24T09:27:47.000Z</time>
      </trkpt>
      <trkpt lat="45.44497" lon="5.87429">
        <ele>913.59997558594</ele>
        <time>2011-07-24T09:27:57.000Z</time>
      </trkpt>
      <trkpt lat="45.44453" lon="5.87437">
        <ele>914</ele>
        <time>2011-07-24T09:28:11.000Z</time>
      </trkpt>
      <trkpt lat="45.44434" lon="5.87442">
        <ele>914</ele>
        <time>2011-07-24T09:28:19.000Z</time>
      </trkpt>
      <trkpt lat="45.44416" lon="5.87442">
        <ele>914.79998779297</ele>
        <time>2011-07-24T09:28:28.000Z</time>
      </trkpt>
      <trkpt lat="45.44394" lon="5.87451">
        <ele>911</ele>
        <time>2011-07-24T09:28:37.000Z</time>
      </trkpt>
      <trkpt lat="45.44386" lon="5.87453">
        <ele>910.20001220703</ele>
        <time>2011-07-24T09:28:40.000Z</time>
      </trkpt>
      <trkpt lat="45.44378" lon="5.87456">
        <ele>908.79998779297</ele>
        <time>2011-07-24T09:28:44.000Z</time>
      </trkpt>
      <trkpt lat="45.44371" lon="5.87458">
        <ele>907.59997558594</ele>
        <time>2011-07-24T09:28:47.000Z</time>
      </trkpt>
      <trkpt lat="45.44363" lon="5.87462">
        <ele>906</ele>
        <time>2011-07-24T09:28:51.000Z</time>
      </trkpt>
      <trkpt lat="45.44359" lon="5.87466">
        <ele>904.40002441406</ele>
        <time>2011-07-24T09:28:53.000Z</time>
      </trkpt>
      <trkpt lat="45.4435" lon="5.87478">
        <ele>900</ele>
        <time>2011-07-24T09:28:57.000Z</time>
      </trkpt>
      <trkpt lat="45.44342" lon="5.87487">
        <ele>896.40002441406</ele>
        <time>2011-07-24T09:29:01.000Z</time>
      </trkpt>
      <trkpt lat="45.44333" lon="5.87491">
        <ele>893.79998779297</ele>
        <time>2011-07-24T09:29:05.000Z</time>
      </trkpt>
      <trkpt lat="45.44322" lon="5.87498">
        <ele>890.20001220703</ele>
        <time>2011-07-24T09:29:11.000Z</time>
      </trkpt>
      <trkpt lat="45.44318" lon="5.875">
        <ele>889</ele>
        <time>2011-07-24T09:29:13.000Z</time>
      </trkpt>
      <trkpt lat="45.44312" lon="5.87503">
        <ele>887.40002441406</ele>
        <time>2011-07-24T09:29:16.000Z</time>
      </trkpt>
      <trkpt lat="45.44305" lon="5.87506">
        <ele>885.59997558594</ele>
        <time>2011-07-24T09:29:20.000Z</time>
      </trkpt>
      <trkpt lat="45.44302" lon="5.8751">
        <ele>883.40002441406</ele>
        <time>2011-07-24T09:29:23.000Z</time>
      </trkpt>
      <trkpt lat="45.44299" lon="5.87516">
        <ele>880.59997558594</ele>
        <time>2011-07-24T09:29:26.000Z</time>
      </trkpt>
      <trkpt lat="45.44293" lon="5.87518">
        <ele>879</ele>
        <time>2011-07-24T09:29:30.000Z</time>
      </trkpt>
      <trkpt lat="45.44287" lon="5.87518">
        <ele>878.40002441406</ele>
        <time>2011-07-24T09:29:34.000Z</time>
      </trkpt>
      <trkpt lat="45.44285" lon="5.8752">
        <ele>877.59997558594</ele>
        <time>2011-07-24T09:29:37.000Z</time>
      </trkpt>
      <trkpt lat="45.44285" lon="5.87523">
        <ele>876.20001220703</ele>
        <time>2011-07-24T09:29:40.000Z</time>
      </trkpt>
      <trkpt lat="45.44288" lon="5.87527">
        <ele>875</ele>
        <time>2011-07-24T09:29:43.000Z</time>
      </trkpt>
      <trkpt lat="45.44291" lon="5.8753">
        <ele>874</ele>
        <time>2011-07-24T09:29:45.000Z</time>
      </trkpt>
      <trkpt lat="45.44301" lon="5.87539">
        <ele>871.20001220703</ele>
        <time>2011-07-24T09:29:51.000Z</time>
      </trkpt>
      <trkpt lat="45.44307" lon="5.87544">
        <ele>870</ele>
        <time>2011-07-24T09:29:58.000Z</time>
      </trkpt>
      <trkpt lat="45.4431" lon="5.87545">
        <ele>869.79998779297</ele>
        <time>2011-07-24T09:30:00.000Z</time>
      </trkpt>
      <trkpt lat="45.4432" lon="5.8755">
        <ele>869</ele>
        <time>2011-07-24T09:30:04.000Z</time>
      </trkpt>
      <trkpt lat="45.44322" lon="5.87551">
        <ele>868.79998779297</ele>
        <time>2011-07-24T09:30:05.000Z</time>
      </trkpt>
      <trkpt lat="45.44332" lon="5.87555">
        <ele>868.40002441406</ele>
        <time>2011-07-24T09:30:11.000Z</time>
      </trkpt>
      <trkpt lat="45.44344" lon="5.87556">
        <ele>868.40002441406</ele>
        <time>2011-07-24T09:30:16.000Z</time>
      </trkpt>
      <trkpt lat="45.44353" lon="5.87559">
        <ele>867.40002441406</ele>
        <time>2011-07-24T09:30:19.000Z</time>
      </trkpt>
      <trkpt lat="45.44367" lon="5.87563">
        <ele>865.79998779297</ele>
        <time>2011-07-24T09:30:24.000Z</time>
      </trkpt>
      <trkpt lat="45.44388" lon="5.8757">
        <ele>863</ele>
        <time>2011-07-24T09:30:31.000Z</time>
      </trkpt>
      <trkpt lat="45.44403" lon="5.87573">
        <ele>862</ele>
        <time>2011-07-24T09:30:36.000Z</time>
      </trkpt>
      <trkpt lat="45.44415" lon="5.87574">
        <ele>861.79998779297</ele>
        <time>2011-07-24T09:30:41.000Z</time>
      </trkpt>
      <trkpt lat="45.44427" lon="5.87572">
        <ele>862</ele>
        <time>2011-07-24T09:30:47.000Z</time>
      </trkpt>
      <trkpt lat="45.44452" lon="5.8757">
        <ele>861.59997558594</ele>
        <time>2011-07-24T09:30:57.000Z</time>
      </trkpt>
      <trkpt lat="45.44479" lon="5.8756">
        <ele>864.79998779297</ele>
        <time>2011-07-24T09:31:07.000Z</time>
      </trkpt>
      <trkpt lat="45.44488" lon="5.87557">
        <ele>865.59997558594</ele>
        <time>2011-07-24T09:31:10.000Z</time>
      </trkpt>
      <trkpt lat="45.44495" lon="5.87556">
        <ele>865.79998779297</ele>
        <time>2011-07-24T09:31:13.000Z</time>
      </trkpt>
      <trkpt lat="45.44497" lon="5.87556">
        <ele>865.79998779297</ele>
        <time>2011-07-24T09:31:14.000Z</time>
      </trkpt>
      <trkpt lat="45.44525" lon="5.87557">
        <ele>865.79998779297</ele>
        <time>2011-07-24T09:31:24.000Z</time>
      </trkpt>
      <trkpt lat="45.44537" lon="5.87557">
        <ele>865.79998779297</ele>
        <time>2011-07-24T09:31:28.000Z</time>
      </trkpt>
      <trkpt lat="45.44548" lon="5.8756">
        <ele>864.59997558594</ele>
        <time>2011-07-24T09:31:33.000Z</time>
      </trkpt>
      <trkpt lat="45.4458" lon="5.8756">
        <ele>864.79998779297</ele>
        <time>2011-07-24T09:31:46.000Z</time>
      </trkpt>
      <trkpt lat="45.44593" lon="5.87568">
        <ele>861.79998779297</ele>
        <time>2011-07-24T09:31:53.000Z</time>
      </trkpt>
      <trkpt lat="45.44594" lon="5.87576">
        <ele>858</ele>
        <time>2011-07-24T09:31:57.000Z</time>
      </trkpt>
      <trkpt lat="45.44593" lon="5.87585">
        <ele>854.20001220703</ele>
        <time>2011-07-24T09:32:00.000Z</time>
      </trkpt>
      <trkpt lat="45.44589" lon="5.876">
        <ele>850.20001220703</ele>
        <time>2011-07-24T09:32:07.000Z</time>
      </trkpt>
      <trkpt lat="45.44592" lon="5.87617">
        <ele>846.59997558594</ele>
        <time>2011-07-24T09:32:12.000Z</time>
      </trkpt>
      <trkpt lat="45.44603" lon="5.87643">
        <ele>841.20001220703</ele>
        <time>2011-07-24T09:32:19.000Z</time>
      </trkpt>
      <trkpt lat="45.44605" lon="5.8765">
        <ele>839.59997558594</ele>
        <time>2011-07-24T09:32:21.000Z</time>
      </trkpt>
      <trkpt lat="45.44622" lon="5.87685">
        <ele>833.59997558594</ele>
        <time>2011-07-24T09:32:31.000Z</time>
      </trkpt>
      <trkpt lat="45.44641" lon="5.87702">
        <ele>831.59997558594</ele>
        <time>2011-07-24T09:32:40.000Z</time>
      </trkpt>
      <trkpt lat="45.44658" lon="5.877">
        <ele>833.20001220703</ele>
        <time>2011-07-24T09:32:46.000Z</time>
      </trkpt>
      <trkpt lat="45.4466" lon="5.87691">
        <ele>835.20001220703</ele>
        <time>2011-07-24T09:32:55.000Z</time>
      </trkpt>
      <trkpt lat="45.44663" lon="5.87695">
        <ele>834.59997558594</ele>
        <time>2011-07-24T09:33:07.000Z</time>
      </trkpt>
      <trkpt lat="45.44663" lon="5.87695">
        <ele>834.59997558594</ele>
        <time>2011-07-24T09:33:13.000Z</time>
      </trkpt>
      <trkpt lat="45.44682" lon="5.87694">
        <ele>836.40002441406</ele>
        <time>2011-07-24T09:33:22.000Z</time>
      </trkpt>
      <trkpt lat="45.44706" lon="5.87694">
        <ele>838.40002441406</ele>
        <time>2011-07-24T09:33:32.000Z</time>
      </trkpt>
      <trkpt lat="45.44714" lon="5.87692">
        <ele>839.40002441406</ele>
        <time>2011-07-24T09:33:36.000Z</time>
      </trkpt>
      <trkpt lat="45.44719" lon="5.87685">
        <ele>841.40002441406</ele>
        <time>2011-07-24T09:33:40.000Z</time>
      </trkpt>
      <trkpt lat="45.44723" lon="5.87669">
        <ele>845.20001220703</ele>
        <time>2011-07-24T09:33:51.000Z</time>
      </trkpt>
      <trkpt lat="45.44723" lon="5.87665">
        <ele>846</ele>
        <time>2011-07-24T09:33:55.000Z</time>
      </trkpt>
      <trkpt lat="45.44724" lon="5.87663">
        <ele>846.59997558594</ele>
        <time>2011-07-24T09:33:58.000Z</time>
      </trkpt>
      <trkpt lat="45.44731" lon="5.87663">
        <ele>847.40002441406</ele>
        <time>2011-07-24T09:34:02.000Z</time>
      </trkpt>
      <trkpt lat="45.44752" lon="5.87667">
        <ele>848.40002441406</ele>
        <time>2011-07-24T09:34:13.000Z</time>
      </trkpt>
      <trkpt lat="45.44763" lon="5.8767">
        <ele>851.40002441406</ele>
        <time>2011-07-24T09:34:23.000Z</time>
      </trkpt>
      <trkpt lat="45.44772" lon="5.87675">
        <ele>853.59997558594</ele>
        <time>2011-07-24T09:34:35.000Z</time>
      </trkpt>
      <trkpt lat="45.44784" lon="5.87684">
        <ele>855.79998779297</ele>
        <time>2011-07-24T09:34:42.000Z</time>
      </trkpt>
      <trkpt lat="45.44796" lon="5.87695">
        <ele>857.20001220703</ele>
        <time>2011-07-24T09:34:54.000Z</time>
      </trkpt>
      <trkpt lat="45.44801" lon="5.87711">
        <ele>855.20001220703</ele>
        <time>2011-07-24T09:35:03.000Z</time>
      </trkpt>
      <trkpt lat="45.44801" lon="5.87716">
        <ele>854.40002441406</ele>
        <time>2011-07-24T09:35:05.000Z</time>
      </trkpt>
      <trkpt lat="45.44821" lon="5.8774">
        <ele>855.79998779297</ele>
        <time>2011-07-24T09:35:18.000Z</time>
      </trkpt>
      <trkpt lat="45.44836" lon="5.87762">
        <ele>856</ele>
        <time>2011-07-24T09:35:27.000Z</time>
      </trkpt>
      <trkpt lat="45.44851" lon="5.87781">
        <ele>858.20001220703</ele>
        <time>2011-07-24T09:35:37.000Z</time>
      </trkpt>
      <trkpt lat="45.44865" lon="5.87801">
        <ele>858.79998779297</ele>
        <time>2011-07-24T09:35:48.000Z</time>
      </trkpt>
      <trkpt lat="45.44879" lon="5.87826">
        <ele>858.59997558594</ele>
        <time>2011-07-24T09:36:01.000Z</time>
      </trkpt>
      <trkpt lat="45.44897" lon="5.87854">
        <ele>858.59997558594</ele>
        <time>2011-07-24T09:36:11.000Z</time>
      </trkpt>
      <trkpt lat="45.44899" lon="5.87857">
        <ele>858.40002441406</ele>
        <time>2011-07-24T09:36:12.000Z</time>
      </trkpt>
      <trkpt lat="45.44919" lon="5.87889">
        <ele>855.59997558594</ele>
        <time>2011-07-24T09:36:25.000Z</time>
      </trkpt>
      <trkpt lat="45.4493" lon="5.87906">
        <ele>853.20001220703</ele>
        <time>2011-07-24T09:36:36.000Z</time>
      </trkpt>
      <trkpt lat="45.44932" lon="5.87908">
        <ele>853</ele>
        <time>2011-07-24T09:36:38.000Z</time>
      </trkpt>
      <trkpt lat="45.44942" lon="5.87922">
        <ele>851.79998779297</ele>
        <time>2011-07-24T09:36:49.000Z</time>
      </trkpt>
      <trkpt lat="45.44958" lon="5.87933">
        <ele>853.40002441406</ele>
        <time>2011-07-24T09:36:59.000Z</time>
      </trkpt>
      <trkpt lat="45.44979" lon="5.87954">
        <ele>853.59997558594</ele>
        <time>2011-07-24T09:37:10.000Z</time>
      </trkpt>
      <trkpt lat="45.45" lon="5.87975">
        <ele>853.59997558594</ele>
        <time>2011-07-24T09:37:21.000Z</time>
      </trkpt>
      <trkpt lat="45.45004" lon="5.87981">
        <ele>852.40002441406</ele>
        <time>2011-07-24T09:37:27.000Z</time>
      </trkpt>
      <trkpt lat="45.45009" lon="5.87987">
        <ele>851.59997558594</ele>
        <time>2011-07-24T09:37:37.000Z</time>
      </trkpt>
      <trkpt lat="45.45013" lon="5.87993">
        <ele>850.79998779297</ele>
        <time>2011-07-24T09:37:43.000Z</time>
      </trkpt>
      <trkpt lat="45.45019" lon="5.87989">
        <ele>852.40002441406</ele>
        <time>2011-07-24T09:37:51.000Z</time>
      </trkpt>
      <trkpt lat="45.45023" lon="5.87987">
        <ele>853.20001220703</ele>
        <time>2011-07-24T09:38:01.000Z</time>
      </trkpt>
      <trkpt lat="45.45024" lon="5.87986">
        <ele>853.40002441406</ele>
        <time>2011-07-24T09:38:03.000Z</time>
      </trkpt>
      <trkpt lat="45.45027" lon="5.8798">
        <ele>854.79998779297</ele>
        <time>2011-07-24T09:38:13.000Z</time>
      </trkpt>
      <trkpt lat="45.45035" lon="5.87981">
        <ele>855.40002441406</ele>
        <time>2011-07-24T09:38:26.000Z</time>
      </trkpt>
      <trkpt lat="45.45035" lon="5.87981">
        <ele>855.40002441406</ele>
        <time>2011-07-24T09:38:27.000Z</time>
      </trkpt>
      <trkpt lat="45.4504" lon="5.87988">
        <ele>854.40002441406</ele>
        <time>2011-07-24T09:38:35.000Z</time>
      </trkpt>
      <trkpt lat="45.45048" lon="5.87997">
        <ele>853.59997558594</ele>
        <time>2011-07-24T09:38:39.000Z</time>
      </trkpt>
      <trkpt lat="45.45052" lon="5.88003">
        <ele>853</ele>
        <time>2011-07-24T09:38:41.000Z</time>
      </trkpt>
      <trkpt lat="45.45056" lon="5.88009">
        <ele>852.40002441406</ele>
        <time>2011-07-24T09:38:43.000Z</time>
      </trkpt>
      <trkpt lat="45.45064" lon="5.88018">
        <ele>851.59997558594</ele>
        <time>2011-07-24T09:38:47.000Z</time>
      </trkpt>
      <trkpt lat="45.45082" lon="5.88027">
        <ele>851.79998779297</ele>
        <time>2011-07-24T09:38:55.000Z</time>
      </trkpt>
      <trkpt lat="45.45084" lon="5.88029">
        <ele>851.79998779297</ele>
        <time>2011-07-24T09:38:56.000Z</time>
      </trkpt>
      <trkpt lat="45.45106" lon="5.88042">
        <ele>852</ele>
        <time>2011-07-24T09:39:06.000Z</time>
      </trkpt>
      <trkpt lat="45.4513" lon="5.88062">
        <ele>851.40002441406</ele>
        <time>2011-07-24T09:39:16.000Z</time>
      </trkpt>
      <trkpt lat="45.45147" lon="5.88082">
        <ele>849</ele>
        <time>2011-07-24T09:39:24.000Z</time>
      </trkpt>
      <trkpt lat="45.4517" lon="5.88105">
        <ele>846.20001220703</ele>
        <time>2011-07-24T09:39:34.000Z</time>
      </trkpt>
      <trkpt lat="45.45179" lon="5.88113">
        <ele>844.59997558594</ele>
        <time>2011-07-24T09:39:39.000Z</time>
      </trkpt>
      <trkpt lat="45.45184" lon="5.88112">
        <ele>845.20001220703</ele>
        <time>2011-07-24T09:39:43.000Z</time>
      </trkpt>
      <trkpt lat="45.45187" lon="5.88102">
        <ele>847.40002441406</ele>
        <time>2011-07-24T09:39:48.000Z</time>
      </trkpt>
      <trkpt lat="45.4519" lon="5.88098">
        <ele>848.20001220703</ele>
        <time>2011-07-24T09:39:50.000Z</time>
      </trkpt>
      <trkpt lat="45.45195" lon="5.88092">
        <ele>849.40002441406</ele>
        <time>2011-07-24T09:39:53.000Z</time>
      </trkpt>
      <trkpt lat="45.45207" lon="5.8808">
        <ele>852</ele>
        <time>2011-07-24T09:39:58.000Z</time>
      </trkpt>
      <trkpt lat="45.45218" lon="5.88079">
        <ele>852.40002441406</ele>
        <time>2011-07-24T09:40:02.000Z</time>
      </trkpt>
      <trkpt lat="45.45226" lon="5.88088">
        <ele>850.79998779297</ele>
        <time>2011-07-24T09:40:06.000Z</time>
      </trkpt>
      <trkpt lat="45.45219" lon="5.88105">
        <ele>847.20001220703</ele>
        <time>2011-07-24T09:40:15.000Z</time>
      </trkpt>
      <trkpt lat="45.45216" lon="5.8811">
        <ele>846.20001220703</ele>
        <time>2011-07-24T09:40:18.000Z</time>
      </trkpt>
      <trkpt lat="45.45212" lon="5.88113">
        <ele>845.40002441406</ele>
        <time>2011-07-24T09:40:20.000Z</time>
      </trkpt>
      <trkpt lat="45.4521" lon="5.88126">
        <ele>842.59997558594</ele>
        <time>2011-07-24T09:40:25.000Z</time>
      </trkpt>
      <trkpt lat="45.45217" lon="5.88134">
        <ele>841.40002441406</ele>
        <time>2011-07-24T09:40:29.000Z</time>
      </trkpt>
      <trkpt lat="45.45242" lon="5.88145">
        <ele>839.79998779297</ele>
        <time>2011-07-24T09:40:40.000Z</time>
      </trkpt>
      <trkpt lat="45.4526" lon="5.88163">
        <ele>837.79998779297</ele>
        <time>2011-07-24T09:40:49.000Z</time>
      </trkpt>
      <trkpt lat="45.45262" lon="5.88172">
        <ele>837</ele>
        <time>2011-07-24T09:40:53.000Z</time>
      </trkpt>
      <trkpt lat="45.45274" lon="5.88212">
        <ele>834.59997558594</ele>
        <time>2011-07-24T09:41:02.000Z</time>
      </trkpt>
      <trkpt lat="45.45273" lon="5.88227">
        <ele>833</ele>
        <time>2011-07-24T09:41:06.000Z</time>
      </trkpt>
      <trkpt lat="45.45265" lon="5.88245">
        <ele>830.59997558594</ele>
        <time>2011-07-24T09:41:11.000Z</time>
      </trkpt>
      <trkpt lat="45.45257" lon="5.8828">
        <ele>832.20001220703</ele>
        <time>2011-07-24T09:41:23.000Z</time>
      </trkpt>
      <trkpt lat="45.45252" lon="5.88297">
        <ele>833.59997558594</ele>
        <time>2011-07-24T09:41:36.000Z</time>
      </trkpt>
      <trkpt lat="45.45245" lon="5.88322">
        <ele>835.79998779297</ele>
        <time>2011-07-24T09:41:42.000Z</time>
      </trkpt>
      <trkpt lat="45.45242" lon="5.88332">
        <ele>836.79998779297</ele>
        <time>2011-07-24T09:41:45.000Z</time>
      </trkpt>
      <trkpt lat="45.45231" lon="5.88336">
        <ele>837.40002441406</ele>
        <time>2011-07-24T09:41:52.000Z</time>
      </trkpt>
      <trkpt lat="45.45201" lon="5.88317">
        <ele>835.79998779297</ele>
        <time>2011-07-24T09:42:04.000Z</time>
      </trkpt>
      <trkpt lat="45.45174" lon="5.88314">
        <ele>835.40002441406</ele>
        <time>2011-07-24T09:42:13.000Z</time>
      </trkpt>
      <trkpt lat="45.45172" lon="5.88314">
        <ele>835.59997558594</ele>
        <time>2011-07-24T09:42:14.000Z</time>
      </trkpt>
      <trkpt lat="45.45141" lon="5.8832">
        <ele>837.20001220703</ele>
        <time>2011-07-24T09:42:25.000Z</time>
      </trkpt>
      <trkpt lat="45.45133" lon="5.88321">
        <ele>837.59997558594</ele>
        <time>2011-07-24T09:42:28.000Z</time>
      </trkpt>
      <trkpt lat="45.45124" lon="5.88319">
        <ele>837.59997558594</ele>
        <time>2011-07-24T09:42:32.000Z</time>
      </trkpt>
      <trkpt lat="45.45099" lon="5.88307">
        <ele>837.40002441406</ele>
        <time>2011-07-24T09:42:41.000Z</time>
      </trkpt>
      <trkpt lat="45.45091" lon="5.88304">
        <ele>837.40002441406</ele>
        <time>2011-07-24T09:42:46.000Z</time>
      </trkpt>
      <trkpt lat="45.4507" lon="5.88301">
        <ele>838</ele>
        <time>2011-07-24T09:42:52.000Z</time>
      </trkpt>
      <trkpt lat="45.45054" lon="5.88307">
        <ele>839.20001220703</ele>
        <time>2011-07-24T09:42:57.000Z</time>
      </trkpt>
      <trkpt lat="45.45048" lon="5.88306">
        <ele>839.40002441406</ele>
        <time>2011-07-24T09:42:59.000Z</time>
      </trkpt>
      <trkpt lat="45.45039" lon="5.88294">
        <ele>838.40002441406</ele>
        <time>2011-07-24T09:43:03.000Z</time>
      </trkpt>
      <trkpt lat="45.45025" lon="5.88248">
        <ele>833.20001220703</ele>
        <time>2011-07-24T09:43:15.000Z</time>
      </trkpt>
      <trkpt lat="45.45026" lon="5.88222">
        <ele>831.79998779297</ele>
        <time>2011-07-24T09:43:22.000Z</time>
      </trkpt>
      <trkpt lat="45.45031" lon="5.88209">
        <ele>831.40002441406</ele>
        <time>2011-07-24T09:43:26.000Z</time>
      </trkpt>
      <trkpt lat="45.45029" lon="5.88192">
        <ele>830.59997558594</ele>
        <time>2011-07-24T09:43:32.000Z</time>
      </trkpt>
      <trkpt lat="45.45017" lon="5.88167">
        <ele>828.79998779297</ele>
        <time>2011-07-24T09:43:40.000Z</time>
      </trkpt>
      <trkpt lat="45.45014" lon="5.88165">
        <ele>828.79998779297</ele>
        <time>2011-07-24T09:43:42.000Z</time>
      </trkpt>
      <trkpt lat="45.45011" lon="5.88162">
        <ele>828.59997558594</ele>
        <time>2011-07-24T09:43:44.000Z</time>
      </trkpt>
      <trkpt lat="45.44989" lon="5.88151">
        <ele>829.20001220703</ele>
        <time>2011-07-24T09:43:54.000Z</time>
      </trkpt>
      <trkpt lat="45.44981" lon="5.88151">
        <ele>829.40002441406</ele>
        <time>2011-07-24T09:43:57.000Z</time>
      </trkpt>
      <trkpt lat="45.44945" lon="5.88147">
        <ele>830.79998779297</ele>
        <time>2011-07-24T09:44:08.000Z</time>
      </trkpt>
      <trkpt lat="45.4492" lon="5.88137">
        <ele>830.59997558594</ele>
        <time>2011-07-24T09:44:19.000Z</time>
      </trkpt>
      <trkpt lat="45.44898" lon="5.88126">
        <ele>831.59997558594</ele>
        <time>2011-07-24T09:44:27.000Z</time>
      </trkpt>
      <trkpt lat="45.44884" lon="5.88107">
        <ele>830.59997558594</ele>
        <time>2011-07-24T09:44:41.000Z</time>
      </trkpt>
      <trkpt lat="45.44877" lon="5.88101">
        <ele>830.40002441406</ele>
        <time>2011-07-24T09:44:44.000Z</time>
      </trkpt>
      <trkpt lat="45.44862" lon="5.88082">
        <ele>829.40002441406</ele>
        <time>2011-07-24T09:44:50.000Z</time>
      </trkpt>
      <trkpt lat="45.44857" lon="5.88069">
        <ele>829</ele>
        <time>2011-07-24T09:44:55.000Z</time>
      </trkpt>
      <trkpt lat="45.44857" lon="5.88059">
        <ele>828.59997558594</ele>
        <time>2011-07-24T09:45:02.000Z</time>
      </trkpt>
      <trkpt lat="45.44852" lon="5.88049">
        <ele>828</ele>
        <time>2011-07-24T09:45:06.000Z</time>
      </trkpt>
      <trkpt lat="45.44843" lon="5.88023">
        <ele>825.79998779297</ele>
        <time>2011-07-24T09:45:13.000Z</time>
      </trkpt>
      <trkpt lat="45.44826" lon="5.8798">
        <ele>823.79998779297</ele>
        <time>2011-07-24T09:45:26.000Z</time>
      </trkpt>
      <trkpt lat="45.44821" lon="5.87975">
        <ele>824</ele>
        <time>2011-07-24T09:45:29.000Z</time>
      </trkpt>
      <trkpt lat="45.44814" lon="5.87967">
        <ele>824.20001220703</ele>
        <time>2011-07-24T09:45:33.000Z</time>
      </trkpt>
      <trkpt lat="45.44807" lon="5.8795">
        <ele>824</ele>
        <time>2011-07-24T09:45:39.000Z</time>
      </trkpt>
      <trkpt lat="45.44801" lon="5.87931">
        <ele>823.40002441406</ele>
        <time>2011-07-24T09:45:45.000Z</time>
      </trkpt>
      <trkpt lat="45.44792" lon="5.87889">
        <ele>824.40002441406</ele>
        <time>2011-07-24T09:45:54.000Z</time>
      </trkpt>
      <trkpt lat="45.44791" lon="5.8788">
        <ele>824.79998779297</ele>
        <time>2011-07-24T09:45:56.000Z</time>
      </trkpt>
      <trkpt lat="45.44791" lon="5.87873">
        <ele>825.40002441406</ele>
        <time>2011-07-24T09:45:58.000Z</time>
      </trkpt>
      <trkpt lat="45.44783" lon="5.8786">
        <ele>824.79998779297</ele>
        <time>2011-07-24T09:46:04.000Z</time>
      </trkpt>
      <trkpt lat="45.44773" lon="5.87846">
        <ele>823.20001220703</ele>
        <time>2011-07-24T09:46:11.000Z</time>
      </trkpt>
      <trkpt lat="45.44771" lon="5.87845">
        <ele>823</ele>
        <time>2011-07-24T09:46:12.000Z</time>
      </trkpt>
      <trkpt lat="45.44768" lon="5.87842">
        <ele>822.20001220703</ele>
        <time>2011-07-24T09:46:15.000Z</time>
      </trkpt>
      <trkpt lat="45.4476" lon="5.87843">
        <ele>820.40002441406</ele>
        <time>2011-07-24T09:46:21.000Z</time>
      </trkpt>
      <trkpt lat="45.44752" lon="5.87843">
        <ele>818.40002441406</ele>
        <time>2011-07-24T09:46:25.000Z</time>
      </trkpt>
      <trkpt lat="45.44748" lon="5.87842">
        <ele>817.79998779297</ele>
        <time>2011-07-24T09:46:27.000Z</time>
      </trkpt>
      <trkpt lat="45.44734" lon="5.87839">
        <ele>817</ele>
        <time>2011-07-24T09:46:35.000Z</time>
      </trkpt>
      <trkpt lat="45.44728" lon="5.87837">
        <ele>816.59997558594</ele>
        <time>2011-07-24T09:46:39.000Z</time>
      </trkpt>
      <trkpt lat="45.44723" lon="5.8783">
        <ele>816.79998779297</ele>
        <time>2011-07-24T09:46:43.000Z</time>
      </trkpt>
      <trkpt lat="45.44706" lon="5.87806">
        <ele>818.79998779297</ele>
        <time>2011-07-24T09:46:54.000Z</time>
      </trkpt>
      <trkpt lat="45.44685" lon="5.87795">
        <ele>818.79998779297</ele>
        <time>2011-07-24T09:47:03.000Z</time>
      </trkpt>
      <trkpt lat="45.44669" lon="5.87789">
        <ele>818.40002441406</ele>
        <time>2011-07-24T09:47:13.000Z</time>
      </trkpt>
      <trkpt lat="45.44665" lon="5.87788">
        <ele>818.40002441406</ele>
        <time>2011-07-24T09:47:16.000Z</time>
      </trkpt>
      <trkpt lat="45.44644" lon="5.87784">
        <ele>818.59997558594</ele>
        <time>2011-07-24T09:47:24.000Z</time>
      </trkpt>
      <trkpt lat="45.44622" lon="5.87787">
        <ele>818</ele>
        <time>2011-07-24T09:47:33.000Z</time>
      </trkpt>
      <trkpt lat="45.44595" lon="5.87791">
        <ele>817.59997558594</ele>
        <time>2011-07-24T09:47:44.000Z</time>
      </trkpt>
      <trkpt lat="45.44567" lon="5.87798">
        <ele>816.59997558594</ele>
        <time>2011-07-24T09:47:54.000Z</time>
      </trkpt>
      <trkpt lat="45.44563" lon="5.87797">
        <ele>816.59997558594</ele>
        <time>2011-07-24T09:47:56.000Z</time>
      </trkpt>
      <trkpt lat="45.44541" lon="5.87785">
        <ele>816.40002441406</ele>
        <time>2011-07-24T09:48:07.000Z</time>
      </trkpt>
      <trkpt lat="45.44523" lon="5.87772">
        <ele>816.59997558594</ele>
        <time>2011-07-24T09:48:14.000Z</time>
      </trkpt>
      <trkpt lat="45.44518" lon="5.87771">
        <ele>816.40002441406</ele>
        <time>2011-07-24T09:48:16.000Z</time>
      </trkpt>
      <trkpt lat="45.44491" lon="5.87764">
        <ele>815.59997558594</ele>
        <time>2011-07-24T09:48:28.000Z</time>
      </trkpt>
      <trkpt lat="45.44478" lon="5.87766">
        <ele>814.79998779297</ele>
        <time>2011-07-24T09:48:32.000Z</time>
      </trkpt>
      <trkpt lat="45.4446" lon="5.87771">
        <ele>813.20001220703</ele>
        <time>2011-07-24T09:48:40.000Z</time>
      </trkpt>
      <trkpt lat="45.44449" lon="5.87772">
        <ele>812.40002441406</ele>
        <time>2011-07-24T09:48:47.000Z</time>
      </trkpt>
      <trkpt lat="45.44419" lon="5.87789">
        <ele>808.40002441406</ele>
        <time>2011-07-24T09:48:57.000Z</time>
      </trkpt>
      <trkpt lat="45.44414" lon="5.87796">
        <ele>807</ele>
        <time>2011-07-24T09:49:02.000Z</time>
      </trkpt>
      <trkpt lat="45.44404" lon="5.87795">
        <ele>805.59997558594</ele>
        <time>2011-07-24T09:49:07.000Z</time>
      </trkpt>
      <trkpt lat="45.44396" lon="5.87802">
        <ele>803.59997558594</ele>
        <time>2011-07-24T09:49:13.000Z</time>
      </trkpt>
      <trkpt lat="45.44392" lon="5.87809">
        <ele>802.20001220703</ele>
        <time>2011-07-24T09:49:16.000Z</time>
      </trkpt>
      <trkpt lat="45.44389" lon="5.87813">
        <ele>801.40002441406</ele>
        <time>2011-07-24T09:49:19.000Z</time>
      </trkpt>
      <trkpt lat="45.44386" lon="5.87812">
        <ele>801.20001220703</ele>
        <time>2011-07-24T09:49:22.000Z</time>
      </trkpt>
      <trkpt lat="45.4438" lon="5.87811">
        <ele>800.20001220703</ele>
        <time>2011-07-24T09:49:26.000Z</time>
      </trkpt>
      <trkpt lat="45.44373" lon="5.87814">
        <ele>799</ele>
        <time>2011-07-24T09:49:30.000Z</time>
      </trkpt>
      <trkpt lat="45.44358" lon="5.87813">
        <ele>797</ele>
        <time>2011-07-24T09:49:37.000Z</time>
      </trkpt>
      <trkpt lat="45.44351" lon="5.87813">
        <ele>796</ele>
        <time>2011-07-24T09:49:40.000Z</time>
      </trkpt>
      <trkpt lat="45.44343" lon="5.87814">
        <ele>794.59997558594</ele>
        <time>2011-07-24T09:49:43.000Z</time>
      </trkpt>
      <trkpt lat="45.44339" lon="5.87814">
        <ele>794.20001220703</ele>
        <time>2011-07-24T09:49:44.000Z</time>
      </trkpt>
      <trkpt lat="45.44332" lon="5.87814">
        <ele>793.20001220703</ele>
        <time>2011-07-24T09:49:46.000Z</time>
      </trkpt>
      <trkpt lat="45.44324" lon="5.87812">
        <ele>792.20001220703</ele>
        <time>2011-07-24T09:49:49.000Z</time>
      </trkpt>
      <trkpt lat="45.4432" lon="5.87811">
        <ele>791.59997558594</ele>
        <time>2011-07-24T09:49:51.000Z</time>
      </trkpt>
      <trkpt lat="45.44318" lon="5.87814">
        <ele>791</ele>
        <time>2011-07-24T09:49:53.000Z</time>
      </trkpt>
      <trkpt lat="45.44311" lon="5.87832">
        <ele>789</ele>
        <time>2011-07-24T09:49:59.000Z</time>
      </trkpt>
      <trkpt lat="45.44319" lon="5.87863">
        <ele>793</ele>
        <time>2011-07-24T09:50:09.000Z</time>
      </trkpt>
      <trkpt lat="45.44328" lon="5.87869">
        <ele>794.40002441406</ele>
        <time>2011-07-24T09:50:17.000Z</time>
      </trkpt>
      <trkpt lat="45.44332" lon="5.87867">
        <ele>794.59997558594</ele>
        <time>2011-07-24T09:50:20.000Z</time>
      </trkpt>
      <trkpt lat="45.44334" lon="5.87867">
        <ele>794.79998779297</ele>
        <time>2011-07-24T09:50:21.000Z</time>
      </trkpt>
      <trkpt lat="45.44332" lon="5.87868">
        <ele>794.79998779297</ele>
        <time>2011-07-24T09:50:24.000Z</time>
      </trkpt>
      <trkpt lat="45.44325" lon="5.87872">
        <ele>794.40002441406</ele>
        <time>2011-07-24T09:50:34.000Z</time>
      </trkpt>
      <trkpt lat="45.44328" lon="5.87869">
        <ele>794.40002441406</ele>
        <time>2011-07-24T09:50:44.000Z</time>
      </trkpt>
      <trkpt lat="45.44328" lon="5.87869">
        <ele>794.40002441406</ele>
        <time>2011-07-24T09:50:50.000Z</time>
      </trkpt>
      <trkpt lat="45.44327" lon="5.87872">
        <ele>794.59997558594</ele>
        <time>2011-07-24T09:50:58.000Z</time>
      </trkpt>
      <trkpt lat="45.44327" lon="5.87873">
        <ele>794.59997558594</ele>
        <time>2011-07-24T09:50:59.000Z</time>
      </trkpt>
      <trkpt lat="45.44329" lon="5.87889">
        <ele>796.40002441406</ele>
        <time>2011-07-24T09:51:10.000Z</time>
      </trkpt>
      <trkpt lat="45.44325" lon="5.87888">
        <ele>796</ele>
        <time>2011-07-24T09:51:19.000Z</time>
      </trkpt>
      <trkpt lat="45.44321" lon="5.87884">
        <ele>795.20001220703</ele>
        <time>2011-07-24T09:51:27.000Z</time>
      </trkpt>
      <trkpt lat="45.44318" lon="5.87885">
        <ele>795.20001220703</ele>
        <time>2011-07-24T09:51:31.000Z</time>
      </trkpt>
      <trkpt lat="45.44313" lon="5.87887">
        <ele>795</ele>
        <time>2011-07-24T09:51:41.000Z</time>
      </trkpt>
      <trkpt lat="45.44308" lon="5.87886">
        <ele>794.59997558594</ele>
        <time>2011-07-24T09:51:49.000Z</time>
      </trkpt>
      <trkpt lat="45.44304" lon="5.87887">
        <ele>794.40002441406</ele>
        <time>2011-07-24T09:51:53.000Z</time>
      </trkpt>
      <trkpt lat="45.44288" lon="5.87875">
        <ele>791.59997558594</ele>
        <time>2011-07-24T09:52:03.000Z</time>
      </trkpt>
      <trkpt lat="45.44276" lon="5.87847">
        <ele>786.40002441406</ele>
        <time>2011-07-24T09:52:17.000Z</time>
      </trkpt>
      <trkpt lat="45.44268" lon="5.87827">
        <ele>783.59997558594</ele>
        <time>2011-07-24T09:52:22.000Z</time>
      </trkpt>
      <trkpt lat="45.44258" lon="5.87814">
        <ele>783</ele>
        <time>2011-07-24T09:52:26.000Z</time>
      </trkpt>
      <trkpt lat="45.44231" lon="5.87791">
        <ele>781</ele>
        <time>2011-07-24T09:52:35.000Z</time>
      </trkpt>
      <trkpt lat="45.44203" lon="5.87783">
        <ele>778.59997558594</ele>
        <time>2011-07-24T09:52:44.000Z</time>
      </trkpt>
      <trkpt lat="45.44175" lon="5.87792">
        <ele>775.20001220703</ele>
        <time>2011-07-24T09:52:53.000Z</time>
      </trkpt>
      <trkpt lat="45.44154" lon="5.87806">
        <ele>773.79998779297</ele>
        <time>2011-07-24T09:53:02.000Z</time>
      </trkpt>
      <trkpt lat="45.44146" lon="5.87813">
        <ele>773.79998779297</ele>
        <time>2011-07-24T09:53:05.000Z</time>
      </trkpt>
      <trkpt lat="45.44125" lon="5.87816">
        <ele>774.40002441406</ele>
        <time>2011-07-24T09:53:15.000Z</time>
      </trkpt>
      <trkpt lat="45.44099" lon="5.87809">
        <ele>775.20001220703</ele>
        <time>2011-07-24T09:53:25.000Z</time>
      </trkpt>
      <trkpt lat="45.44068" lon="5.87798">
        <ele>776.20001220703</ele>
        <time>2011-07-24T09:53:36.000Z</time>
      </trkpt>
      <trkpt lat="45.44045" lon="5.87801">
        <ele>777.40002441406</ele>
        <time>2011-07-24T09:53:45.000Z</time>
      </trkpt>
      <trkpt lat="45.44033" lon="5.87808">
        <ele>778.59997558594</ele>
        <time>2011-07-24T09:53:54.000Z</time>
      </trkpt>
      <trkpt lat="45.4403" lon="5.8781">
        <ele>778.79998779297</ele>
        <time>2011-07-24T09:53:56.000Z</time>
      </trkpt>
      <trkpt lat="45.44011" lon="5.87826">
        <ele>781.40002441406</ele>
        <time>2011-07-24T09:54:06.000Z</time>
      </trkpt>
      <trkpt lat="45.44009" lon="5.87827">
        <ele>781.59997558594</ele>
        <time>2011-07-24T09:54:07.000Z</time>
      </trkpt>
      <trkpt lat="45.44006" lon="5.87825">
        <ele>781.59997558594</ele>
        <time>2011-07-24T09:54:09.000Z</time>
      </trkpt>
      <trkpt lat="45.44002" lon="5.87823">
        <ele>781.79998779297</ele>
        <time>2011-07-24T09:54:12.000Z</time>
      </trkpt>
      <trkpt lat="45.43982" lon="5.87812">
        <ele>783.20001220703</ele>
        <time>2011-07-24T09:54:23.000Z</time>
      </trkpt>
      <trkpt lat="45.43975" lon="5.87807">
        <ele>783.40002441406</ele>
        <time>2011-07-24T09:54:28.000Z</time>
      </trkpt>
      <trkpt lat="45.43968" lon="5.87805">
        <ele>784.20001220703</ele>
        <time>2011-07-24T09:54:32.000Z</time>
      </trkpt>
      <trkpt lat="45.43947" lon="5.87797">
        <ele>785.79998779297</ele>
        <time>2011-07-24T09:54:41.000Z</time>
      </trkpt>
      <trkpt lat="45.43926" lon="5.87786">
        <ele>786.40002441406</ele>
        <time>2011-07-24T09:54:49.000Z</time>
      </trkpt>
      <trkpt lat="45.43923" lon="5.87784">
        <ele>786.59997558594</ele>
        <time>2011-07-24T09:54:51.000Z</time>
      </trkpt>
      <trkpt lat="45.43918" lon="5.87782">
        <ele>786.79998779297</ele>
        <time>2011-07-24T09:54:54.000Z</time>
      </trkpt>
      <trkpt lat="45.439" lon="5.87777">
        <ele>787.20001220703</ele>
        <time>2011-07-24T09:55:03.000Z</time>
      </trkpt>
      <trkpt lat="45.43882" lon="5.87768">
        <ele>786.40002441406</ele>
        <time>2011-07-24T09:55:12.000Z</time>
      </trkpt>
      <trkpt lat="45.43848" lon="5.87754">
        <ele>783.79998779297</ele>
        <time>2011-07-24T09:55:21.000Z</time>
      </trkpt>
      <trkpt lat="45.43822" lon="5.87744">
        <ele>784.59997558594</ele>
        <time>2011-07-24T09:55:30.000Z</time>
      </trkpt>
      <trkpt lat="45.43816" lon="5.87743">
        <ele>785</ele>
        <time>2011-07-24T09:55:33.000Z</time>
      </trkpt>
      <trkpt lat="45.43797" lon="5.87744">
        <ele>784.79998779297</ele>
        <time>2011-07-24T09:55:39.000Z</time>
      </trkpt>
      <trkpt lat="45.43757" lon="5.87739">
        <ele>785.59997558594</ele>
        <time>2011-07-24T09:55:49.000Z</time>
      </trkpt>
      <trkpt lat="45.43739" lon="5.87734">
        <ele>786.20001220703</ele>
        <time>2011-07-24T09:55:54.000Z</time>
      </trkpt>
      <trkpt lat="45.43723" lon="5.87734">
        <ele>786.79998779297</ele>
        <time>2011-07-24T09:56:00.000Z</time>
      </trkpt>
      <trkpt lat="45.437" lon="5.87736">
        <ele>787.40002441406</ele>
        <time>2011-07-24T09:56:09.000Z</time>
      </trkpt>
      <trkpt lat="45.43694" lon="5.87736">
        <ele>787.59997558594</ele>
        <time>2011-07-24T09:56:11.000Z</time>
      </trkpt>
      <trkpt lat="45.43687" lon="5.87737">
        <ele>787.59997558594</ele>
        <time>2011-07-24T09:56:17.000Z</time>
      </trkpt>
      <trkpt lat="45.4365" lon="5.87723">
        <ele>789.59997558594</ele>
        <time>2011-07-24T09:56:31.000Z</time>
      </trkpt>
      <trkpt lat="45.43643" lon="5.8772">
        <ele>790</ele>
        <time>2011-07-24T09:56:34.000Z</time>
      </trkpt>
      <trkpt lat="45.43634" lon="5.87716">
        <ele>790</ele>
        <time>2011-07-24T09:56:38.000Z</time>
      </trkpt>
      <trkpt lat="45.43627" lon="5.87717">
        <ele>790.40002441406</ele>
        <time>2011-07-24T09:56:43.000Z</time>
      </trkpt>
      <trkpt lat="45.43626" lon="5.87717">
        <ele>790.40002441406</ele>
        <time>2011-07-24T09:56:44.000Z</time>
      </trkpt>
      <trkpt lat="45.43616" lon="5.87721">
        <ele>791</ele>
        <time>2011-07-24T09:56:53.000Z</time>
      </trkpt>
      <trkpt lat="45.4361" lon="5.87724">
        <ele>791.59997558594</ele>
        <time>2011-07-24T09:56:58.000Z</time>
      </trkpt>
      <trkpt lat="45.43593" lon="5.87727">
        <ele>792.79998779297</ele>
        <time>2011-07-24T09:57:08.000Z</time>
      </trkpt>
      <trkpt lat="45.43572" lon="5.87733">
        <ele>794.79998779297</ele>
        <time>2011-07-24T09:57:21.000Z</time>
      </trkpt>
      <trkpt lat="45.4356" lon="5.87732">
        <ele>795.20001220703</ele>
        <time>2011-07-24T09:57:31.000Z</time>
      </trkpt>
      <trkpt lat="45.43547" lon="5.87733">
        <ele>796.20001220703</ele>
        <time>2011-07-24T09:57:42.000Z</time>
      </trkpt>
      <trkpt lat="45.43541" lon="5.87754">
        <ele>801.40002441406</ele>
        <time>2011-07-24T09:57:54.000Z</time>
      </trkpt>
      <trkpt lat="45.43527" lon="5.87762">
        <ele>804.79998779297</ele>
        <time>2011-07-24T09:58:12.000Z</time>
      </trkpt>
      <trkpt lat="45.43525" lon="5.87764">
        <ele>805.40002441406</ele>
        <time>2011-07-24T09:58:19.000Z</time>
      </trkpt>
      <trkpt lat="45.43521" lon="5.87765">
        <ele>806.20001220703</ele>
        <time>2011-07-24T09:58:27.000Z</time>
      </trkpt>
      <trkpt lat="45.4351" lon="5.87766">
        <ele>807.40002441406</ele>
        <time>2011-07-24T09:58:36.000Z</time>
      </trkpt>
      <trkpt lat="45.43503" lon="5.87766">
        <ele>807.79998779297</ele>
        <time>2011-07-24T09:58:40.000Z</time>
      </trkpt>
      <trkpt lat="45.43497" lon="5.87762">
        <ele>807.59997558594</ele>
        <time>2011-07-24T09:58:46.000Z</time>
      </trkpt>
      <trkpt lat="45.43494" lon="5.87762">
        <ele>807.59997558594</ele>
        <time>2011-07-24T09:58:49.000Z</time>
      </trkpt>
      <trkpt lat="45.43482" lon="5.8775">
        <ele>806.20001220703</ele>
        <time>2011-07-24T09:59:02.000Z</time>
      </trkpt>
      <trkpt lat="45.43476" lon="5.87742">
        <ele>804.79998779297</ele>
        <time>2011-07-24T09:59:06.000Z</time>
      </trkpt>
      <trkpt lat="45.43474" lon="5.87741">
        <ele>804.79998779297</ele>
        <time>2011-07-24T09:59:07.000Z</time>
      </trkpt>
      <trkpt lat="45.43465" lon="5.87738">
        <ele>805.40002441406</ele>
        <time>2011-07-24T09:59:11.000Z</time>
      </trkpt>
      <trkpt lat="45.43458" lon="5.87738">
        <ele>806.59997558594</ele>
        <time>2011-07-24T09:59:14.000Z</time>
      </trkpt>
      <trkpt lat="45.43427" lon="5.87723">
        <ele>809</ele>
        <time>2011-07-24T09:59:26.000Z</time>
      </trkpt>
      <trkpt lat="45.43412" lon="5.87737">
        <ele>812.79998779297</ele>
        <time>2011-07-24T09:59:39.000Z</time>
      </trkpt>
      <trkpt lat="45.43413" lon="5.87741">
        <ele>813</ele>
        <time>2011-07-24T09:59:43.000Z</time>
      </trkpt>
      <trkpt lat="45.43422" lon="5.87747">
        <ele>813</ele>
        <time>2011-07-24T09:59:54.000Z</time>
      </trkpt>
      <trkpt lat="45.43424" lon="5.87752">
        <ele>813.40002441406</ele>
        <time>2011-07-24T09:59:57.000Z</time>
      </trkpt>
      <trkpt lat="45.43425" lon="5.87757">
        <ele>814</ele>
        <time>2011-07-24T09:59:59.000Z</time>
      </trkpt>
      <trkpt lat="45.43427" lon="5.87764">
        <ele>815</ele>
        <time>2011-07-24T10:00:02.000Z</time>
      </trkpt>
      <trkpt lat="45.43427" lon="5.87769">
        <ele>815.79998779297</ele>
        <time>2011-07-24T10:00:04.000Z</time>
      </trkpt>
      <trkpt lat="45.43428" lon="5.87777">
        <ele>817</ele>
        <time>2011-07-24T10:00:07.000Z</time>
      </trkpt>
      <trkpt lat="45.43422" lon="5.87791">
        <ele>819.79998779297</ele>
        <time>2011-07-24T10:00:14.000Z</time>
      </trkpt>
      <trkpt lat="45.43397" lon="5.87803">
        <ele>821.79998779297</ele>
        <time>2011-07-24T10:00:27.000Z</time>
      </trkpt>
      <trkpt lat="45.43392" lon="5.87805">
        <ele>822.20001220703</ele>
        <time>2011-07-24T10:00:29.000Z</time>
      </trkpt>
      <trkpt lat="45.43375" lon="5.87824">
        <ele>824.20001220703</ele>
        <time>2011-07-24T10:00:40.000Z</time>
      </trkpt>
      <trkpt lat="45.43376" lon="5.87829">
        <ele>825</ele>
        <time>2011-07-24T10:00:43.000Z</time>
      </trkpt>
      <trkpt lat="45.43377" lon="5.87836">
        <ele>826</ele>
        <time>2011-07-24T10:00:46.000Z</time>
      </trkpt>
      <trkpt lat="45.43376" lon="5.87847">
        <ele>827.79998779297</ele>
        <time>2011-07-24T10:00:51.000Z</time>
      </trkpt>
      <trkpt lat="45.43373" lon="5.87855">
        <ele>829</ele>
        <time>2011-07-24T10:00:55.000Z</time>
      </trkpt>
      <trkpt lat="45.4337" lon="5.87869">
        <ele>831.20001220703</ele>
        <time>2011-07-24T10:01:05.000Z</time>
      </trkpt>
      <trkpt lat="45.43374" lon="5.87884">
        <ele>833.79998779297</ele>
        <time>2011-07-24T10:01:18.000Z</time>
      </trkpt>
      <trkpt lat="45.43372" lon="5.87885">
        <ele>834</ele>
        <time>2011-07-24T10:01:20.000Z</time>
      </trkpt>
      <trkpt lat="45.43358" lon="5.87893">
        <ele>834.40002441406</ele>
        <time>2011-07-24T10:01:27.000Z</time>
      </trkpt>
      <trkpt lat="45.43355" lon="5.8789">
        <ele>833.79998779297</ele>
        <time>2011-07-24T10:01:33.000Z</time>
      </trkpt>
      <trkpt lat="45.43356" lon="5.87889">
        <ele>833.79998779297</ele>
        <time>2011-07-24T10:01:37.000Z</time>
      </trkpt>
      <trkpt lat="45.4335" lon="5.8789">
        <ele>833.59997558594</ele>
        <time>2011-07-24T10:01:42.000Z</time>
      </trkpt>
      <trkpt lat="45.43322" lon="5.8789">
        <ele>832.59997558594</ele>
        <time>2011-07-24T10:01:52.000Z</time>
      </trkpt>
      <trkpt lat="45.43288" lon="5.87884">
        <ele>831.59997558594</ele>
        <time>2011-07-24T10:02:03.000Z</time>
      </trkpt>
      <trkpt lat="45.43271" lon="5.8787">
        <ele>830.79998779297</ele>
        <time>2011-07-24T10:02:13.000Z</time>
      </trkpt>
      <trkpt lat="45.43266" lon="5.87862">
        <ele>830.79998779297</ele>
        <time>2011-07-24T10:02:18.000Z</time>
      </trkpt>
      <trkpt lat="45.43261" lon="5.87861">
        <ele>830.79998779297</ele>
        <time>2011-07-24T10:02:22.000Z</time>
      </trkpt>
      <trkpt lat="45.43249" lon="5.87843">
        <ele>831.20001220703</ele>
        <time>2011-07-24T10:02:30.000Z</time>
      </trkpt>
      <trkpt lat="45.4325" lon="5.87827">
        <ele>831.59997558594</ele>
        <time>2011-07-24T10:02:34.000Z</time>
      </trkpt>
      <trkpt lat="45.43252" lon="5.87817">
        <ele>832.40002441406</ele>
        <time>2011-07-24T10:02:37.000Z</time>
      </trkpt>
      <trkpt lat="45.43261" lon="5.87803">
        <ele>832.40002441406</ele>
        <time>2011-07-24T10:02:42.000Z</time>
      </trkpt>
      <trkpt lat="45.43274" lon="5.87767">
        <ele>832.20001220703</ele>
        <time>2011-07-24T10:02:54.000Z</time>
      </trkpt>
      <trkpt lat="45.43275" lon="5.87763">
        <ele>832.20001220703</ele>
        <time>2011-07-24T10:02:55.000Z</time>
      </trkpt>
      <trkpt lat="45.43275" lon="5.87749">
        <ele>832.59997558594</ele>
        <time>2011-07-24T10:03:06.000Z</time>
      </trkpt>
      <trkpt lat="45.43274" lon="5.87748">
        <ele>832.79998779297</ele>
        <time>2011-07-24T10:03:18.000Z</time>
      </trkpt>
      <trkpt lat="45.43282" lon="5.87728">
        <ele>829.40002441406</ele>
        <time>2011-07-24T10:03:23.000Z</time>
      </trkpt>
      <trkpt lat="45.43291" lon="5.877">
        <ele>826.20001220703</ele>
        <time>2011-07-24T10:03:30.000Z</time>
      </trkpt>
      <trkpt lat="45.43288" lon="5.87682">
        <ele>826.20001220703</ele>
        <time>2011-07-24T10:03:36.000Z</time>
      </trkpt>
      <trkpt lat="45.43288" lon="5.87675">
        <ele>826</ele>
        <time>2011-07-24T10:03:38.000Z</time>
      </trkpt>
      <trkpt lat="45.43287" lon="5.87661">
        <ele>826</ele>
        <time>2011-07-24T10:03:42.000Z</time>
      </trkpt>
      <trkpt lat="45.43284" lon="5.8765">
        <ele>827.20001220703</ele>
        <time>2011-07-24T10:03:45.000Z</time>
      </trkpt>
      <trkpt lat="45.43278" lon="5.87611">
        <ele>829.59997558594</ele>
        <time>2011-07-24T10:03:55.000Z</time>
      </trkpt>
      <trkpt lat="45.43267" lon="5.87583">
        <ele>829.79998779297</ele>
        <time>2011-07-24T10:04:02.000Z</time>
      </trkpt>
      <trkpt lat="45.43256" lon="5.87567">
        <ele>829.59997558594</ele>
        <time>2011-07-24T10:04:09.000Z</time>
      </trkpt>
      <trkpt lat="45.4325" lon="5.8756">
        <ele>829.59997558594</ele>
        <time>2011-07-24T10:04:13.000Z</time>
      </trkpt>
      <trkpt lat="45.43247" lon="5.87556">
        <ele>829.59997558594</ele>
        <time>2011-07-24T10:04:15.000Z</time>
      </trkpt>
      <trkpt lat="45.43245" lon="5.87554">
        <ele>829.40002441406</ele>
        <time>2011-07-24T10:04:17.000Z</time>
      </trkpt>
      <trkpt lat="45.4324" lon="5.87549">
        <ele>829.20001220703</ele>
        <time>2011-07-24T10:04:21.000Z</time>
      </trkpt>
      <trkpt lat="45.43236" lon="5.87544">
        <ele>828.79998779297</ele>
        <time>2011-07-24T10:04:25.000Z</time>
      </trkpt>
      <trkpt lat="45.43231" lon="5.8754">
        <ele>828.20001220703</ele>
        <time>2011-07-24T10:04:28.000Z</time>
      </trkpt>
      <trkpt lat="45.43224" lon="5.87535">
        <ele>827</ele>
        <time>2011-07-24T10:04:32.000Z</time>
      </trkpt>
      <trkpt lat="45.43222" lon="5.87534">
        <ele>826.59997558594</ele>
        <time>2011-07-24T10:04:33.000Z</time>
      </trkpt>
      <trkpt lat="45.43217" lon="5.87532">
        <ele>825.59997558594</ele>
        <time>2011-07-24T10:04:36.000Z</time>
      </trkpt>
      <trkpt lat="45.43213" lon="5.8753">
        <ele>825</ele>
        <time>2011-07-24T10:04:38.000Z</time>
      </trkpt>
      <trkpt lat="45.43204" lon="5.87525">
        <ele>822.79998779297</ele>
        <time>2011-07-24T10:04:42.000Z</time>
      </trkpt>
      <trkpt lat="45.43201" lon="5.87523">
        <ele>822</ele>
        <time>2011-07-24T10:04:43.000Z</time>
      </trkpt>
      <trkpt lat="45.43188" lon="5.87511">
        <ele>818.20001220703</ele>
        <time>2011-07-24T10:04:48.000Z</time>
      </trkpt>
      <trkpt lat="45.43184" lon="5.87506">
        <ele>816.40002441406</ele>
        <time>2011-07-24T10:04:50.000Z</time>
      </trkpt>
      <trkpt lat="45.43172" lon="5.87492">
        <ele>811</ele>
        <time>2011-07-24T10:04:56.000Z</time>
      </trkpt>
      <trkpt lat="45.43168" lon="5.87487">
        <ele>809</ele>
        <time>2011-07-24T10:04:58.000Z</time>
      </trkpt>
      <trkpt lat="45.43163" lon="5.87482">
        <ele>808</ele>
        <time>2011-07-24T10:05:00.000Z</time>
      </trkpt>
      <trkpt lat="45.43145" lon="5.87468">
        <ele>805.79998779297</ele>
        <time>2011-07-24T10:05:07.000Z</time>
      </trkpt>
      <trkpt lat="45.43132" lon="5.8746">
        <ele>804.40002441406</ele>
        <time>2011-07-24T10:05:13.000Z</time>
      </trkpt>
      <trkpt lat="45.43124" lon="5.87455">
        <ele>803.20001220703</ele>
        <time>2011-07-24T10:05:17.000Z</time>
      </trkpt>
      <trkpt lat="45.43107" lon="5.87444">
        <ele>800.59997558594</ele>
        <time>2011-07-24T10:05:23.000Z</time>
      </trkpt>
      <trkpt lat="45.43104" lon="5.87442">
        <ele>800</ele>
        <time>2011-07-24T10:05:24.000Z</time>
      </trkpt>
      <trkpt lat="45.43084" lon="5.87435">
        <ele>797.79998779297</ele>
        <time>2011-07-24T10:05:31.000Z</time>
      </trkpt>
      <trkpt lat="45.43076" lon="5.87433">
        <ele>800.59997558594</ele>
        <time>2011-07-24T10:05:34.000Z</time>
      </trkpt>
      <trkpt lat="45.43073" lon="5.87429">
        <ele>801.40002441406</ele>
        <time>2011-07-24T10:05:37.000Z</time>
      </trkpt>
      <trkpt lat="45.43075" lon="5.87429">
        <ele>800.20001220703</ele>
        <time>2011-07-24T10:05:41.000Z</time>
      </trkpt>
      <trkpt lat="45.43076" lon="5.87428">
        <ele>799.59997558594</ele>
        <time>2011-07-24T10:05:44.000Z</time>
      </trkpt>
      <trkpt lat="45.43076" lon="5.87427">
        <ele>798.79998779297</ele>
        <time>2011-07-24T10:05:46.000Z</time>
      </trkpt>
      <trkpt lat="45.43077" lon="5.87425">
        <ele>798</ele>
        <time>2011-07-24T10:05:48.000Z</time>
      </trkpt>
      <trkpt lat="45.43081" lon="5.87419">
        <ele>794.59997558594</ele>
        <time>2011-07-24T10:05:53.000Z</time>
      </trkpt>
      <trkpt lat="45.43081" lon="5.87417">
        <ele>794</ele>
        <time>2011-07-24T10:05:54.000Z</time>
      </trkpt>
      <trkpt lat="45.43084" lon="5.87409">
        <ele>790.79998779297</ele>
        <time>2011-07-24T10:05:58.000Z</time>
      </trkpt>
      <trkpt lat="45.43087" lon="5.87406">
        <ele>790.20001220703</ele>
        <time>2011-07-24T10:06:02.000Z</time>
      </trkpt>
      <trkpt lat="45.43085" lon="5.87403">
        <ele>789</ele>
        <time>2011-07-24T10:06:06.000Z</time>
      </trkpt>
      <trkpt lat="45.43081" lon="5.87388">
        <ele>786.20001220703</ele>
        <time>2011-07-24T10:06:12.000Z</time>
      </trkpt>
      <trkpt lat="45.43088" lon="5.87394">
        <ele>786.79998779297</ele>
        <time>2011-07-24T10:06:16.000Z</time>
      </trkpt>
      <trkpt lat="45.43088" lon="5.87384">
        <ele>784</ele>
        <time>2011-07-24T10:06:22.000Z</time>
      </trkpt>
      <trkpt lat="45.43074" lon="5.87355">
        <ele>780.59997558594</ele>
        <time>2011-07-24T10:06:29.000Z</time>
      </trkpt>
      <trkpt lat="45.43071" lon="5.87323">
        <ele>773.79998779297</ele>
        <time>2011-07-24T10:06:37.000Z</time>
      </trkpt>
      <trkpt lat="45.4307" lon="5.87313">
        <ele>772</ele>
        <time>2011-07-24T10:06:40.000Z</time>
      </trkpt>
      <trkpt lat="45.43071" lon="5.87305">
        <ele>769.59997558594</ele>
        <time>2011-07-24T10:06:42.000Z</time>
      </trkpt>
      <trkpt lat="45.43072" lon="5.87287">
        <ele>764.79998779297</ele>
        <time>2011-07-24T10:06:47.000Z</time>
      </trkpt>
      <trkpt lat="45.4307" lon="5.87256">
        <ele>758.79998779297</ele>
        <time>2011-07-24T10:06:56.000Z</time>
      </trkpt>
      <trkpt lat="45.43067" lon="5.87248">
        <ele>758.20001220703</ele>
        <time>2011-07-24T10:06:58.000Z</time>
      </trkpt>
      <trkpt lat="45.43055" lon="5.87222">
        <ele>757.59997558594</ele>
        <time>2011-07-24T10:07:07.000Z</time>
      </trkpt>
      <trkpt lat="45.43045" lon="5.87202">
        <ele>755.79998779297</ele>
        <time>2011-07-24T10:07:15.000Z</time>
      </trkpt>
      <trkpt lat="45.43041" lon="5.87191">
        <ele>754</ele>
        <time>2011-07-24T10:07:19.000Z</time>
      </trkpt>
      <trkpt lat="45.43039" lon="5.87185">
        <ele>752.79998779297</ele>
        <time>2011-07-24T10:07:21.000Z</time>
      </trkpt>
      <trkpt lat="45.43029" lon="5.87155">
        <ele>747</ele>
        <time>2011-07-24T10:07:31.000Z</time>
      </trkpt>
      <trkpt lat="45.43014" lon="5.87131">
        <ele>743.20001220703</ele>
        <time>2011-07-24T10:07:40.000Z</time>
      </trkpt>
      <trkpt lat="45.43005" lon="5.87112">
        <ele>738.40002441406</ele>
        <time>2011-07-24T10:07:47.000Z</time>
      </trkpt>
      <trkpt lat="45.42998" lon="5.87087">
        <ele>730.79998779297</ele>
        <time>2011-07-24T10:07:55.000Z</time>
      </trkpt>
      <trkpt lat="45.42997" lon="5.87084">
        <ele>730</ele>
        <time>2011-07-24T10:07:56.000Z</time>
      </trkpt>
      <trkpt lat="45.42995" lon="5.8708">
        <ele>729.40002441406</ele>
        <time>2011-07-24T10:07:58.000Z</time>
      </trkpt>
      <trkpt lat="45.42989" lon="5.87068">
        <ele>727.79998779297</ele>
        <time>2011-07-24T10:08:03.000Z</time>
      </trkpt>
      <trkpt lat="45.42987" lon="5.87066">
        <ele>727.40002441406</ele>
        <time>2011-07-24T10:08:04.000Z</time>
      </trkpt>
      <trkpt lat="45.42979" lon="5.87058">
        <ele>726.79998779297</ele>
        <time>2011-07-24T10:08:08.000Z</time>
      </trkpt>
      <trkpt lat="45.42974" lon="5.87056">
        <ele>727</ele>
        <time>2011-07-24T10:08:10.000Z</time>
      </trkpt>
      <trkpt lat="45.42963" lon="5.87056">
        <ele>728.59997558594</ele>
        <time>2011-07-24T10:08:15.000Z</time>
      </trkpt>
      <trkpt lat="45.42961" lon="5.87055">
        <ele>728.79998779297</ele>
        <time>2011-07-24T10:08:16.000Z</time>
      </trkpt>
      <trkpt lat="45.42948" lon="5.87048">
        <ele>728</ele>
        <time>2011-07-24T10:08:21.000Z</time>
      </trkpt>
      <trkpt lat="45.42943" lon="5.87045">
        <ele>727.20001220703</ele>
        <time>2011-07-24T10:08:23.000Z</time>
      </trkpt>
      <trkpt lat="45.42938" lon="5.87041">
        <ele>726.20001220703</ele>
        <time>2011-07-24T10:08:25.000Z</time>
      </trkpt>
      <trkpt lat="45.42928" lon="5.87028">
        <ele>720.79998779297</ele>
        <time>2011-07-24T10:08:30.000Z</time>
      </trkpt>
      <trkpt lat="45.42914" lon="5.87002">
        <ele>709</ele>
        <time>2011-07-24T10:08:36.000Z</time>
      </trkpt>
      <trkpt lat="45.42901" lon="5.86979">
        <ele>711.79998779297</ele>
        <time>2011-07-24T10:08:41.000Z</time>
      </trkpt>
      <trkpt lat="45.42879" lon="5.86955">
        <ele>713.40002441406</ele>
        <time>2011-07-24T10:08:50.000Z</time>
      </trkpt>
      <trkpt lat="45.42857" lon="5.86944">
        <ele>713.40002441406</ele>
        <time>2011-07-24T10:09:00.000Z</time>
      </trkpt>
      <trkpt lat="45.42838" lon="5.86936">
        <ele>711.59997558594</ele>
        <time>2011-07-24T10:09:10.000Z</time>
      </trkpt>
      <trkpt lat="45.42812" lon="5.86921">
        <ele>713.79998779297</ele>
        <time>2011-07-24T10:09:19.000Z</time>
      </trkpt>
      <trkpt lat="45.42807" lon="5.86916">
        <ele>714</ele>
        <time>2011-07-24T10:09:22.000Z</time>
      </trkpt>
      <trkpt lat="45.42798" lon="5.869">
        <ele>716</ele>
        <time>2011-07-24T10:09:30.000Z</time>
      </trkpt>
      <trkpt lat="45.42789" lon="5.86881">
        <ele>717</ele>
        <time>2011-07-24T10:09:36.000Z</time>
      </trkpt>
      <trkpt lat="45.42782" lon="5.86871">
        <ele>717.59997558594</ele>
        <time>2011-07-24T10:09:39.000Z</time>
      </trkpt>
      <trkpt lat="45.42775" lon="5.86863">
        <ele>718.40002441406</ele>
        <time>2011-07-24T10:09:43.000Z</time>
      </trkpt>
      <trkpt lat="45.42767" lon="5.86851">
        <ele>718.40002441406</ele>
        <time>2011-07-24T10:09:48.000Z</time>
      </trkpt>
      <trkpt lat="45.42757" lon="5.86838">
        <ele>718.59997558594</ele>
        <time>2011-07-24T10:09:57.000Z</time>
      </trkpt>
      <trkpt lat="45.42755" lon="5.86829">
        <ele>717</ele>
        <time>2011-07-24T10:10:05.000Z</time>
      </trkpt>
      <trkpt lat="45.42754" lon="5.86827">
        <ele>716.79998779297</ele>
        <time>2011-07-24T10:10:08.000Z</time>
      </trkpt>
      <trkpt lat="45.42753" lon="5.86827">
        <ele>717</ele>
        <time>2011-07-24T10:10:11.000Z</time>
      </trkpt>
      <trkpt lat="45.42753" lon="5.86827">
        <ele>716.79998779297</ele>
        <time>2011-07-24T10:10:24.000Z</time>
      </trkpt>
      <trkpt lat="45.42746" lon="5.86819">
        <ele>715.79998779297</ele>
        <time>2011-07-24T10:10:35.000Z</time>
      </trkpt>
      <trkpt lat="45.42745" lon="5.86815">
        <ele>715</ele>
        <time>2011-07-24T10:10:38.000Z</time>
      </trkpt>
      <trkpt lat="45.42722" lon="5.86802">
        <ele>713</ele>
        <time>2011-07-24T10:10:53.000Z</time>
      </trkpt>
      <trkpt lat="45.42701" lon="5.86799">
        <ele>713.59997558594</ele>
        <time>2011-07-24T10:11:05.000Z</time>
      </trkpt>
      <trkpt lat="45.4268" lon="5.868">
        <ele>714.79998779297</ele>
        <time>2011-07-24T10:11:15.000Z</time>
      </trkpt>
      <trkpt lat="45.4265" lon="5.86796">
        <ele>715.59997558594</ele>
        <time>2011-07-24T10:11:24.000Z</time>
      </trkpt>
      <trkpt lat="45.42624" lon="5.86788">
        <ele>716</ele>
        <time>2011-07-24T10:11:35.000Z</time>
      </trkpt>
      <trkpt lat="45.42615" lon="5.86788">
        <ele>716.40002441406</ele>
        <time>2011-07-24T10:11:39.000Z</time>
      </trkpt>
      <trkpt lat="45.42595" lon="5.86783">
        <ele>717</ele>
        <time>2011-07-24T10:11:46.000Z</time>
      </trkpt>
      <trkpt lat="45.42568" lon="5.86768">
        <ele>717.40002441406</ele>
        <time>2011-07-24T10:11:57.000Z</time>
      </trkpt>
      <trkpt lat="45.42566" lon="5.86765">
        <ele>717.20001220703</ele>
        <time>2011-07-24T10:11:58.000Z</time>
      </trkpt>
      <trkpt lat="45.42552" lon="5.86753">
        <ele>716.40002441406</ele>
        <time>2011-07-24T10:12:04.000Z</time>
      </trkpt>
      <trkpt lat="45.42531" lon="5.86754">
        <ele>718</ele>
        <time>2011-07-24T10:12:13.000Z</time>
      </trkpt>
      <trkpt lat="45.42527" lon="5.86752">
        <ele>717.79998779297</ele>
        <time>2011-07-24T10:12:15.000Z</time>
      </trkpt>
      <trkpt lat="45.42509" lon="5.86751">
        <ele>718.59997558594</ele>
        <time>2011-07-24T10:12:23.000Z</time>
      </trkpt>
      <trkpt lat="45.42487" lon="5.86753">
        <ele>722.20001220703</ele>
        <time>2011-07-24T10:12:33.000Z</time>
      </trkpt>
      <trkpt lat="45.42473" lon="5.86759">
        <ele>725.79998779297</ele>
        <time>2011-07-24T10:12:45.000Z</time>
      </trkpt>
      <trkpt lat="45.42443" lon="5.86765">
        <ele>731.79998779297</ele>
        <time>2011-07-24T10:12:54.000Z</time>
      </trkpt>
      <trkpt lat="45.42427" lon="5.86772">
        <ele>735.59997558594</ele>
        <time>2011-07-24T10:12:59.000Z</time>
      </trkpt>
      <trkpt lat="45.42407" lon="5.86793">
        <ele>742.59997558594</ele>
        <time>2011-07-24T10:13:08.000Z</time>
      </trkpt>
      <trkpt lat="45.42404" lon="5.86795">
        <ele>743.59997558594</ele>
        <time>2011-07-24T10:13:10.000Z</time>
      </trkpt>
      <trkpt lat="45.42399" lon="5.86782">
        <ele>743.20001220703</ele>
        <time>2011-07-24T10:13:28.000Z</time>
      </trkpt>
      <trkpt lat="45.42404" lon="5.8678">
        <ele>741.79998779297</ele>
        <time>2011-07-24T10:13:47.000Z</time>
      </trkpt>
      <trkpt lat="45.42399" lon="5.8678">
        <ele>742.79998779297</ele>
        <time>2011-07-24T10:14:03.000Z</time>
      </trkpt>
      <trkpt lat="45.42403" lon="5.86777">
        <ele>741.79998779297</ele>
        <time>2011-07-24T10:14:09.000Z</time>
      </trkpt>
      <trkpt lat="45.42413" lon="5.8675">
        <ele>735</ele>
        <time>2011-07-24T10:14:28.000Z</time>
      </trkpt>
      <trkpt lat="45.42408" lon="5.86727">
        <ele>735.79998779297</ele>
        <time>2011-07-24T10:14:42.000Z</time>
      </trkpt>
      <trkpt lat="45.42415" lon="5.86708">
        <ele>732.79998779297</ele>
        <time>2011-07-24T10:14:53.000Z</time>
      </trkpt>
      <trkpt lat="45.42422" lon="5.8669">
        <ele>729.20001220703</ele>
        <time>2011-07-24T10:14:58.000Z</time>
      </trkpt>
      <trkpt lat="45.42426" lon="5.86682">
        <ele>727.20001220703</ele>
        <time>2011-07-24T10:15:02.000Z</time>
      </trkpt>
      <trkpt lat="45.42429" lon="5.86651">
        <ele>722.59997558594</ele>
        <time>2011-07-24T10:15:12.000Z</time>
      </trkpt>
      <trkpt lat="45.42426" lon="5.86623">
        <ele>720.20001220703</ele>
        <time>2011-07-24T10:15:20.000Z</time>
      </trkpt>
      <trkpt lat="45.42425" lon="5.86616">
        <ele>719.79998779297</ele>
        <time>2011-07-24T10:15:22.000Z</time>
      </trkpt>
      <trkpt lat="45.42421" lon="5.86598">
        <ele>719.40002441406</ele>
        <time>2011-07-24T10:15:28.000Z</time>
      </trkpt>
      <trkpt lat="45.4242" lon="5.86569">
        <ele>715.59997558594</ele>
        <time>2011-07-24T10:15:34.000Z</time>
      </trkpt>
      <trkpt lat="45.42414" lon="5.86545">
        <ele>714.40002441406</ele>
        <time>2011-07-24T10:15:40.000Z</time>
      </trkpt>
      <trkpt lat="45.42397" lon="5.86512">
        <ele>718.79998779297</ele>
        <time>2011-07-24T10:15:48.000Z</time>
      </trkpt>
      <trkpt lat="45.4239" lon="5.86485">
        <ele>718.79998779297</ele>
        <time>2011-07-24T10:15:56.000Z</time>
      </trkpt>
      <trkpt lat="45.42382" lon="5.86461">
        <ele>719.79998779297</ele>
        <time>2011-07-24T10:16:05.000Z</time>
      </trkpt>
      <trkpt lat="45.42376" lon="5.86451">
        <ele>721.40002441406</ele>
        <time>2011-07-24T10:16:09.000Z</time>
      </trkpt>
      <trkpt lat="45.42371" lon="5.86439">
        <ele>721.40002441406</ele>
        <time>2011-07-24T10:16:14.000Z</time>
      </trkpt>
      <trkpt lat="45.42355" lon="5.86404">
        <ele>721.79998779297</ele>
        <time>2011-07-24T10:16:25.000Z</time>
      </trkpt>
      <trkpt lat="45.42347" lon="5.86395">
        <ele>723.59997558594</ele>
        <time>2011-07-24T10:16:28.000Z</time>
      </trkpt>
      <trkpt lat="45.42331" lon="5.86368">
        <ele>723</ele>
        <time>2011-07-24T10:16:37.000Z</time>
      </trkpt>
      <trkpt lat="45.42313" lon="5.86344">
        <ele>720.20001220703</ele>
        <time>2011-07-24T10:16:47.000Z</time>
      </trkpt>
      <trkpt lat="45.423" lon="5.86328">
        <ele>717.59997558594</ele>
        <time>2011-07-24T10:16:54.000Z</time>
      </trkpt>
      <trkpt lat="45.42281" lon="5.86313">
        <ele>715.79998779297</ele>
        <time>2011-07-24T10:17:03.000Z</time>
      </trkpt>
      <trkpt lat="45.42255" lon="5.863">
        <ele>715.79998779297</ele>
        <time>2011-07-24T10:17:12.000Z</time>
      </trkpt>
      <trkpt lat="45.42244" lon="5.86296">
        <ele>715.59997558594</ele>
        <time>2011-07-24T10:17:16.000Z</time>
      </trkpt>
      <trkpt lat="45.42216" lon="5.86289">
        <ele>715.40002441406</ele>
        <time>2011-07-24T10:17:27.000Z</time>
      </trkpt>
      <trkpt lat="45.42193" lon="5.86282">
        <ele>714.20001220703</ele>
        <time>2011-07-24T10:17:34.000Z</time>
      </trkpt>
      <trkpt lat="45.42169" lon="5.86276">
        <ele>713.79998779297</ele>
        <time>2011-07-24T10:17:43.000Z</time>
      </trkpt>
      <trkpt lat="45.42155" lon="5.86267">
        <ele>713.40002441406</ele>
        <time>2011-07-24T10:17:48.000Z</time>
      </trkpt>
      <trkpt lat="45.42149" lon="5.86261">
        <ele>713.20001220703</ele>
        <time>2011-07-24T10:17:51.000Z</time>
      </trkpt>
      <trkpt lat="45.42143" lon="5.86257">
        <ele>713.20001220703</ele>
        <time>2011-07-24T10:17:53.000Z</time>
      </trkpt>
      <trkpt lat="45.42118" lon="5.86238">
        <ele>714.59997558594</ele>
        <time>2011-07-24T10:18:02.000Z</time>
      </trkpt>
      <trkpt lat="45.42112" lon="5.86233">
        <ele>715</ele>
        <time>2011-07-24T10:18:07.000Z</time>
      </trkpt>
      <trkpt lat="45.42108" lon="5.86229">
        <ele>715</ele>
        <time>2011-07-24T10:18:10.000Z</time>
      </trkpt>
      <trkpt lat="45.42105" lon="5.86226">
        <ele>715.20001220703</ele>
        <time>2011-07-24T10:18:12.000Z</time>
      </trkpt>
      <trkpt lat="45.42101" lon="5.86218">
        <ele>714</ele>
        <time>2011-07-24T10:18:16.000Z</time>
      </trkpt>
      <trkpt lat="45.42098" lon="5.86212">
        <ele>712.79998779297</ele>
        <time>2011-07-24T10:18:19.000Z</time>
      </trkpt>
      <trkpt lat="45.42093" lon="5.86205">
        <ele>712.79998779297</ele>
        <time>2011-07-24T10:18:24.000Z</time>
      </trkpt>
      <trkpt lat="45.42084" lon="5.86188">
        <ele>710.40002441406</ele>
        <time>2011-07-24T10:18:31.000Z</time>
      </trkpt>
      <trkpt lat="45.42084" lon="5.86178">
        <ele>707.20001220703</ele>
        <time>2011-07-24T10:18:35.000Z</time>
      </trkpt>
      <trkpt lat="45.42076" lon="5.86153">
        <ele>702.79998779297</ele>
        <time>2011-07-24T10:18:42.000Z</time>
      </trkpt>
      <trkpt lat="45.42073" lon="5.86144">
        <ele>701.20001220703</ele>
        <time>2011-07-24T10:18:45.000Z</time>
      </trkpt>
      <trkpt lat="45.42066" lon="5.86118">
        <ele>697</ele>
        <time>2011-07-24T10:18:53.000Z</time>
      </trkpt>
      <trkpt lat="45.42065" lon="5.86115">
        <ele>696.59997558594</ele>
        <time>2011-07-24T10:18:54.000Z</time>
      </trkpt>
      <trkpt lat="45.42054" lon="5.86098">
        <ele>695.40002441406</ele>
        <time>2011-07-24T10:18:59.000Z</time>
      </trkpt>
      <trkpt lat="45.42051" lon="5.86094">
        <ele>695</ele>
        <time>2011-07-24T10:19:00.000Z</time>
      </trkpt>
      <trkpt lat="45.42048" lon="5.86089">
        <ele>694.59997558594</ele>
        <time>2011-07-24T10:19:01.000Z</time>
      </trkpt>
      <trkpt lat="45.42044" lon="5.86081">
        <ele>693.79998779297</ele>
        <time>2011-07-24T10:19:03.000Z</time>
      </trkpt>
      <trkpt lat="45.42042" lon="5.86048">
        <ele>689</ele>
        <time>2011-07-24T10:19:11.000Z</time>
      </trkpt>
      <trkpt lat="45.42042" lon="5.86045">
        <ele>688.40002441406</ele>
        <time>2011-07-24T10:19:12.000Z</time>
      </trkpt>
      <trkpt lat="45.4204" lon="5.86031">
        <ele>686.59997558594</ele>
        <time>2011-07-24T10:19:17.000Z</time>
      </trkpt>
      <trkpt lat="45.42026" lon="5.86001">
        <ele>685.40002441406</ele>
        <time>2011-07-24T10:19:26.000Z</time>
      </trkpt>
      <trkpt lat="45.42028" lon="5.8599">
        <ele>682.59997558594</ele>
        <time>2011-07-24T10:19:29.000Z</time>
      </trkpt>
      <trkpt lat="45.42028" lon="5.85979">
        <ele>680</ele>
        <time>2011-07-24T10:19:33.000Z</time>
      </trkpt>
      <trkpt lat="45.42013" lon="5.85941">
        <ele>674.59997558594</ele>
        <time>2011-07-24T10:19:43.000Z</time>
      </trkpt>
      <trkpt lat="45.41996" lon="5.85922">
        <ele>673.59997558594</ele>
        <time>2011-07-24T10:19:51.000Z</time>
      </trkpt>
      <trkpt lat="45.41976" lon="5.85918">
        <ele>680.20001220703</ele>
        <time>2011-07-24T10:20:00.000Z</time>
      </trkpt>
      <trkpt lat="45.41953" lon="5.85898">
        <ele>683.59997558594</ele>
        <time>2011-07-24T10:20:10.000Z</time>
      </trkpt>
      <trkpt lat="45.41951" lon="5.85889">
        <ele>682.20001220703</ele>
        <time>2011-07-24T10:20:14.000Z</time>
      </trkpt>
      <trkpt lat="45.41937" lon="5.85875">
        <ele>683.79998779297</ele>
        <time>2011-07-24T10:20:23.000Z</time>
      </trkpt>
      <trkpt lat="45.41919" lon="5.85847">
        <ele>684.20001220703</ele>
        <time>2011-07-24T10:20:31.000Z</time>
      </trkpt>
      <trkpt lat="45.41907" lon="5.85817">
        <ele>680.40002441406</ele>
        <time>2011-07-24T10:20:40.000Z</time>
      </trkpt>
      <trkpt lat="45.4189" lon="5.8579">
        <ele>679.20001220703</ele>
        <time>2011-07-24T10:20:49.000Z</time>
      </trkpt>
      <trkpt lat="45.41876" lon="5.8576">
        <ele>675.40002441406</ele>
        <time>2011-07-24T10:20:58.000Z</time>
      </trkpt>
      <trkpt lat="45.41869" lon="5.85737">
        <ele>672.20001220703</ele>
        <time>2011-07-24T10:21:06.000Z</time>
      </trkpt>
      <trkpt lat="45.41837" lon="5.85679">
        <ele>665.79998779297</ele>
        <time>2011-07-24T10:21:20.000Z</time>
      </trkpt>
      <trkpt lat="45.41821" lon="5.85648">
        <ele>660.40002441406</ele>
        <time>2011-07-24T10:21:30.000Z</time>
      </trkpt>
      <trkpt lat="45.41799" lon="5.85613">
        <ele>655.79998779297</ele>
        <time>2011-07-24T10:21:42.000Z</time>
      </trkpt>
      <trkpt lat="45.41792" lon="5.85587">
        <ele>651.20001220703</ele>
        <time>2011-07-24T10:21:53.000Z</time>
      </trkpt>
      <trkpt lat="45.41789" lon="5.85579">
        <ele>650.40002441406</ele>
        <time>2011-07-24T10:22:00.000Z</time>
      </trkpt>
      <trkpt lat="45.41781" lon="5.8557">
        <ele>650.79998779297</ele>
        <time>2011-07-24T10:22:07.000Z</time>
      </trkpt>
      <trkpt lat="45.41772" lon="5.85564">
        <ele>651.20001220703</ele>
        <time>2011-07-24T10:22:11.000Z</time>
      </trkpt>
      <trkpt lat="45.41725" lon="5.8553">
        <ele>651.59997558594</ele>
        <time>2011-07-24T10:22:23.000Z</time>
      </trkpt>
      <trkpt lat="45.41709" lon="5.85508">
        <ele>648.79998779297</ele>
        <time>2011-07-24T10:22:29.000Z</time>
      </trkpt>
      <trkpt lat="45.41692" lon="5.8549">
        <ele>647.40002441406</ele>
        <time>2011-07-24T10:22:34.000Z</time>
      </trkpt>
      <trkpt lat="45.41689" lon="5.85478">
        <ele>647</ele>
        <time>2011-07-24T10:22:37.000Z</time>
      </trkpt>
      <trkpt lat="45.41689" lon="5.85474">
        <ele>646.59997558594</ele>
        <time>2011-07-24T10:22:38.000Z</time>
      </trkpt>
      <trkpt lat="45.41695" lon="5.85467">
        <ele>646.20001220703</ele>
        <time>2011-07-24T10:22:42.000Z</time>
      </trkpt>
      <trkpt lat="45.41712" lon="5.85472">
        <ele>646</ele>
        <time>2011-07-24T10:22:51.000Z</time>
      </trkpt>
      <trkpt lat="45.41725" lon="5.85474">
        <ele>645.59997558594</ele>
        <time>2011-07-24T10:22:56.000Z</time>
      </trkpt>
      <trkpt lat="45.41733" lon="5.85475">
        <ele>645.59997558594</ele>
        <time>2011-07-24T10:23:00.000Z</time>
      </trkpt>
      <trkpt lat="45.41763" lon="5.8549">
        <ele>645.59997558594</ele>
        <time>2011-07-24T10:23:12.000Z</time>
      </trkpt>
      <trkpt lat="45.41764" lon="5.85499">
        <ele>645.59997558594</ele>
        <time>2011-07-24T10:23:31.000Z</time>
      </trkpt>
      <trkpt lat="45.41766" lon="5.855">
        <ele>645.59997558594</ele>
        <time>2011-07-24T10:24:45.000Z</time>
      </trkpt>
      <trkpt lat="45.41768" lon="5.85498">
        <ele>645.40002441406</ele>
        <time>2011-07-24T10:25:13.000Z</time>
      </trkpt>
      <trkpt lat="45.41763" lon="5.85497">
        <ele>645.59997558594</ele>
        <time>2011-07-24T10:26:22.000Z</time>
      </trkpt>
      <trkpt lat="45.41762" lon="5.85497">
        <ele>645.59997558594</ele>
        <time>2011-07-24T10:26:44.000Z</time>
      </trkpt>
      <trkpt lat="45.41779" lon="5.85496">
        <ele>645.40002441406</ele>
        <time>2011-07-24T10:26:52.000Z</time>
      </trkpt>
      <trkpt lat="45.41794" lon="5.85502">
        <ele>645</ele>
        <time>2011-07-24T10:26:55.000Z</time>
      </trkpt>
      <trkpt lat="45.41813" lon="5.85477">
        <ele>647</ele>
        <time>2011-07-24T10:27:03.000Z</time>
      </trkpt>
      <trkpt lat="45.41811" lon="5.8547">
        <ele>647.79998779297</ele>
        <time>2011-07-24T10:27:04.000Z</time>
      </trkpt>
      <trkpt lat="45.41805" lon="5.85453">
        <ele>649.20001220703</ele>
        <time>2011-07-24T10:27:07.000Z</time>
      </trkpt>
      <trkpt lat="45.41784" lon="5.8541">
        <ele>649.40002441406</ele>
        <time>2011-07-24T10:27:15.000Z</time>
      </trkpt>
      <trkpt lat="45.41771" lon="5.85392">
        <ele>647.40002441406</ele>
        <time>2011-07-24T10:27:19.000Z</time>
      </trkpt>
      <trkpt lat="45.41739" lon="5.85305">
        <ele>643.79998779297</ele>
        <time>2011-07-24T10:27:34.000Z</time>
      </trkpt>
      <trkpt lat="45.41715" lon="5.85249">
        <ele>644.40002441406</ele>
        <time>2011-07-24T10:27:44.000Z</time>
      </trkpt>
      <trkpt lat="45.41712" lon="5.85236">
        <ele>644.40002441406</ele>
        <time>2011-07-24T10:27:46.000Z</time>
      </trkpt>
      <trkpt lat="45.41707" lon="5.85208">
        <ele>644.59997558594</ele>
        <time>2011-07-24T10:27:50.000Z</time>
      </trkpt>
      <trkpt lat="45.41715" lon="5.85074">
        <ele>644.40002441406</ele>
        <time>2011-07-24T10:28:09.000Z</time>
      </trkpt>
      <trkpt lat="45.41723" lon="5.84968">
        <ele>648</ele>
        <time>2011-07-24T10:28:25.000Z</time>
      </trkpt>
      <trkpt lat="45.41727" lon="5.84948">
        <ele>649.59997558594</ele>
        <time>2011-07-24T10:28:28.000Z</time>
      </trkpt>
      <trkpt lat="45.41729" lon="5.84914">
        <ele>651.79998779297</ele>
        <time>2011-07-24T10:28:33.000Z</time>
      </trkpt>
      <trkpt lat="45.41728" lon="5.84907">
        <ele>652</ele>
        <time>2011-07-24T10:28:34.000Z</time>
      </trkpt>
      <trkpt lat="45.41726" lon="5.84887">
        <ele>652</ele>
        <time>2011-07-24T10:28:37.000Z</time>
      </trkpt>
      <trkpt lat="45.4172" lon="5.84856">
        <ele>652</ele>
        <time>2011-07-24T10:28:42.000Z</time>
      </trkpt>
      <trkpt lat="45.41719" lon="5.84828">
        <ele>651.79998779297</ele>
        <time>2011-07-24T10:28:46.000Z</time>
      </trkpt>
      <trkpt lat="45.41722" lon="5.84808">
        <ele>650.59997558594</ele>
        <time>2011-07-24T10:28:49.000Z</time>
      </trkpt>
      <trkpt lat="45.41729" lon="5.84761">
        <ele>647</ele>
        <time>2011-07-24T10:28:56.000Z</time>
      </trkpt>
      <trkpt lat="45.41731" lon="5.84747">
        <ele>646</ele>
        <time>2011-07-24T10:28:58.000Z</time>
      </trkpt>
      <trkpt lat="45.41736" lon="5.84736">
        <ele>645.20001220703</ele>
        <time>2011-07-24T10:29:00.000Z</time>
      </trkpt>
      <trkpt lat="45.4175" lon="5.84717">
        <ele>643.40002441406</ele>
        <time>2011-07-24T10:29:04.000Z</time>
      </trkpt>
      <trkpt lat="45.4176" lon="5.84701">
        <ele>645</ele>
        <time>2011-07-24T10:29:07.000Z</time>
      </trkpt>
      <trkpt lat="45.41764" lon="5.84688">
        <ele>645</ele>
        <time>2011-07-24T10:29:09.000Z</time>
      </trkpt>
      <trkpt lat="45.41766" lon="5.84681">
        <ele>644.59997558594</ele>
        <time>2011-07-24T10:29:10.000Z</time>
      </trkpt>
      <trkpt lat="45.41767" lon="5.84674">
        <ele>644.20001220703</ele>
        <time>2011-07-24T10:29:11.000Z</time>
      </trkpt>
      <trkpt lat="45.41769" lon="5.8464">
        <ele>643.79998779297</ele>
        <time>2011-07-24T10:29:16.000Z</time>
      </trkpt>
      <trkpt lat="45.4177" lon="5.84613">
        <ele>644</ele>
        <time>2011-07-24T10:29:20.000Z</time>
      </trkpt>
      <trkpt lat="45.41773" lon="5.84576">
        <ele>644.79998779297</ele>
        <time>2011-07-24T10:29:28.000Z</time>
      </trkpt>
      <trkpt lat="45.41787" lon="5.84527">
        <ele>648</ele>
        <time>2011-07-24T10:29:40.000Z</time>
      </trkpt>
      <trkpt lat="45.41804" lon="5.84436">
        <ele>648.79998779297</ele>
        <time>2011-07-24T10:29:58.000Z</time>
      </trkpt>
      <trkpt lat="45.41808" lon="5.84402">
        <ele>647.79998779297</ele>
        <time>2011-07-24T10:30:04.000Z</time>
      </trkpt>
      <trkpt lat="45.41809" lon="5.84389">
        <ele>647.20001220703</ele>
        <time>2011-07-24T10:30:06.000Z</time>
      </trkpt>
      <trkpt lat="45.41802" lon="5.84375">
        <ele>647.79998779297</ele>
        <time>2011-07-24T10:30:14.000Z</time>
      </trkpt>
      <trkpt lat="45.41804" lon="5.84369">
        <ele>647.40002441406</ele>
        <time>2011-07-24T10:30:15.000Z</time>
      </trkpt>
      <trkpt lat="45.41817" lon="5.84354">
        <ele>644.40002441406</ele>
        <time>2011-07-24T10:30:18.000Z</time>
      </trkpt>
      <trkpt lat="45.41829" lon="5.84343">
        <ele>640.79998779297</ele>
        <time>2011-07-24T10:30:20.000Z</time>
      </trkpt>
      <trkpt lat="45.41855" lon="5.84304">
        <ele>646.59997558594</ele>
        <time>2011-07-24T10:30:24.000Z</time>
      </trkpt>
      <trkpt lat="45.41875" lon="5.8427">
        <ele>648.40002441406</ele>
        <time>2011-07-24T10:30:27.000Z</time>
      </trkpt>
      <trkpt lat="45.41889" lon="5.84251">
        <ele>646.79998779297</ele>
        <time>2011-07-24T10:30:29.000Z</time>
      </trkpt>
      <trkpt lat="45.41896" lon="5.84242">
        <ele>646.20001220703</ele>
        <time>2011-07-24T10:30:30.000Z</time>
      </trkpt>
      <trkpt lat="45.41922" lon="5.84215">
        <ele>644.59997558594</ele>
        <time>2011-07-24T10:30:33.000Z</time>
      </trkpt>
      <trkpt lat="45.41939" lon="5.84198">
        <ele>650.79998779297</ele>
        <time>2011-07-24T10:30:35.000Z</time>
      </trkpt>
      <trkpt lat="45.41952" lon="5.84153">
        <ele>655.20001220703</ele>
        <time>2011-07-24T10:30:40.000Z</time>
      </trkpt>
      <trkpt lat="45.4195" lon="5.84138">
        <ele>656.20001220703</ele>
        <time>2011-07-24T10:30:42.000Z</time>
      </trkpt>
      <trkpt lat="45.41937" lon="5.84097">
        <ele>654</ele>
        <time>2011-07-24T10:30:52.000Z</time>
      </trkpt>
      <trkpt lat="45.41934" lon="5.84091">
        <ele>653.20001220703</ele>
        <time>2011-07-24T10:30:53.000Z</time>
      </trkpt>
      <trkpt lat="45.41929" lon="5.84063">
        <ele>650</ele>
        <time>2011-07-24T10:30:57.000Z</time>
      </trkpt>
      <trkpt lat="45.41919" lon="5.84042">
        <ele>643.20001220703</ele>
        <time>2011-07-24T10:31:00.000Z</time>
      </trkpt>
      <trkpt lat="45.41914" lon="5.84033">
        <ele>642.40002441406</ele>
        <time>2011-07-24T10:31:01.000Z</time>
      </trkpt>
      <trkpt lat="45.41902" lon="5.83999">
        <ele>645.79998779297</ele>
        <time>2011-07-24T10:31:04.000Z</time>
      </trkpt>
      <trkpt lat="45.41897" lon="5.83989">
        <ele>647.20001220703</ele>
        <time>2011-07-24T10:31:05.000Z</time>
      </trkpt>
      <trkpt lat="45.41889" lon="5.8397">
        <ele>650.40002441406</ele>
        <time>2011-07-24T10:31:07.000Z</time>
      </trkpt>
      <trkpt lat="45.41886" lon="5.83961">
        <ele>651.59997558594</ele>
        <time>2011-07-24T10:31:08.000Z</time>
      </trkpt>
      <trkpt lat="45.41889" lon="5.83906">
        <ele>647.40002441406</ele>
        <time>2011-07-24T10:31:14.000Z</time>
      </trkpt>
      <trkpt lat="45.41892" lon="5.83878">
        <ele>641.20001220703</ele>
        <time>2011-07-24T10:31:18.000Z</time>
      </trkpt>
      <trkpt lat="45.41899" lon="5.83855">
        <ele>632</ele>
        <time>2011-07-24T10:31:22.000Z</time>
      </trkpt>
      <trkpt lat="45.41912" lon="5.8382">
        <ele>616.79998779297</ele>
        <time>2011-07-24T10:31:26.000Z</time>
      </trkpt>
      <trkpt lat="45.41919" lon="5.83799">
        <ele>610.40002441406</ele>
        <time>2011-07-24T10:31:28.000Z</time>
      </trkpt>
      <trkpt lat="45.41933" lon="5.83767">
        <ele>609</ele>
        <time>2011-07-24T10:31:31.000Z</time>
      </trkpt>
      <trkpt lat="45.41948" lon="5.8374">
        <ele>609.79998779297</ele>
        <time>2011-07-24T10:31:34.000Z</time>
      </trkpt>
      <trkpt lat="45.41951" lon="5.83714">
        <ele>611.20001220703</ele>
        <time>2011-07-24T10:31:39.000Z</time>
      </trkpt>
      <trkpt lat="45.41948" lon="5.8371">
        <ele>611.40002441406</ele>
        <time>2011-07-24T10:31:42.000Z</time>
      </trkpt>
      <trkpt lat="45.41945" lon="5.83705">
        <ele>611.59997558594</ele>
        <time>2011-07-24T10:31:44.000Z</time>
      </trkpt>
      <trkpt lat="45.41943" lon="5.83694">
        <ele>612.40002441406</ele>
        <time>2011-07-24T10:31:50.000Z</time>
      </trkpt>
      <trkpt lat="45.41939" lon="5.83685">
        <ele>613.59997558594</ele>
        <time>2011-07-24T10:31:55.000Z</time>
      </trkpt>
      <trkpt lat="45.41935" lon="5.83681">
        <ele>614.20001220703</ele>
        <time>2011-07-24T10:32:12.000Z</time>
      </trkpt>
      <trkpt lat="45.41942" lon="5.83691">
        <ele>612.59997558594</ele>
        <time>2011-07-24T10:32:20.000Z</time>
      </trkpt>
      <trkpt lat="45.41948" lon="5.83689">
        <ele>612.40002441406</ele>
        <time>2011-07-24T10:32:30.000Z</time>
      </trkpt>
      <trkpt lat="45.41953" lon="5.83683">
        <ele>612.20001220703</ele>
        <time>2011-07-24T10:32:35.000Z</time>
      </trkpt>
      <trkpt lat="45.41957" lon="5.83669">
        <ele>612.20001220703</ele>
        <time>2011-07-24T10:32:43.000Z</time>
      </trkpt>
      <trkpt lat="45.41958" lon="5.83658">
        <ele>613.40002441406</ele>
        <time>2011-07-24T10:32:54.000Z</time>
      </trkpt>
      <trkpt lat="45.41957" lon="5.83656">
        <ele>613.79998779297</ele>
        <time>2011-07-24T10:32:55.000Z</time>
      </trkpt>
      <trkpt lat="45.41957" lon="5.83652">
        <ele>614.40002441406</ele>
        <time>2011-07-24T10:32:58.000Z</time>
      </trkpt>
      <trkpt lat="45.41959" lon="5.83629">
        <ele>617.59997558594</ele>
        <time>2011-07-24T10:33:10.000Z</time>
      </trkpt>
      <trkpt lat="45.41968" lon="5.83617">
        <ele>616.40002441406</ele>
        <time>2011-07-24T10:33:23.000Z</time>
      </trkpt>
      <trkpt lat="45.41969" lon="5.83617">
        <ele>615.79998779297</ele>
        <time>2011-07-24T10:33:25.000Z</time>
      </trkpt>
      <trkpt lat="45.4197" lon="5.83618">
        <ele>615.40002441406</ele>
        <time>2011-07-24T10:33:27.000Z</time>
      </trkpt>
      <trkpt lat="45.41981" lon="5.83618">
        <ele>611.79998779297</ele>
        <time>2011-07-24T10:33:35.000Z</time>
      </trkpt>
      <trkpt lat="45.41982" lon="5.83618">
        <ele>611.59997558594</ele>
        <time>2011-07-24T10:33:36.000Z</time>
      </trkpt>
      <trkpt lat="45.41993" lon="5.83598">
        <ele>608.40002441406</ele>
        <time>2011-07-24T10:33:46.000Z</time>
      </trkpt>
      <trkpt lat="45.41991" lon="5.83586">
        <ele>609.59997558594</ele>
        <time>2011-07-24T10:33:53.000Z</time>
      </trkpt>
      <trkpt lat="45.41975" lon="5.83561">
        <ele>621</ele>
        <time>2011-07-24T10:34:01.000Z</time>
      </trkpt>
      <trkpt lat="45.41974" lon="5.83557">
        <ele>621.59997558594</ele>
        <time>2011-07-24T10:34:02.000Z</time>
      </trkpt>
      <trkpt lat="45.41965" lon="5.83544">
        <ele>628.20001220703</ele>
        <time>2011-07-24T10:34:11.000Z</time>
      </trkpt>
      <trkpt lat="45.41959" lon="5.83539">
        <ele>631.79998779297</ele>
        <time>2011-07-24T10:34:17.000Z</time>
      </trkpt>
      <trkpt lat="45.41959" lon="5.83539">
        <ele>632</ele>
        <time>2011-07-24T10:34:18.000Z</time>
      </trkpt>
      <trkpt lat="45.41959" lon="5.83539">
        <ele>631.59997558594</ele>
        <time>2011-07-24T10:34:19.000Z</time>
      </trkpt>
      <trkpt lat="45.41965" lon="5.83542">
        <ele>628.40002441406</ele>
        <time>2011-07-24T10:34:28.000Z</time>
      </trkpt>
      <trkpt lat="45.41966" lon="5.83547">
        <ele>627</ele>
        <time>2011-07-24T10:34:31.000Z</time>
      </trkpt>
      <trkpt lat="45.41967" lon="5.83555">
        <ele>625.40002441406</ele>
        <time>2011-07-24T10:34:41.000Z</time>
      </trkpt>
      <trkpt lat="45.41966" lon="5.83553">
        <ele>626</ele>
        <time>2011-07-24T10:34:44.000Z</time>
      </trkpt>
      <trkpt lat="45.41962" lon="5.8355">
        <ele>628.40002441406</ele>
        <time>2011-07-24T10:34:54.000Z</time>
      </trkpt>
      <trkpt lat="45.4196" lon="5.83551">
        <ele>629</ele>
        <time>2011-07-24T10:35:02.000Z</time>
      </trkpt>
      <trkpt lat="45.41951" lon="5.83548">
        <ele>634</ele>
        <time>2011-07-24T10:35:10.000Z</time>
      </trkpt>
      <trkpt lat="45.41944" lon="5.83548">
        <ele>637.40002441406</ele>
        <time>2011-07-24T10:35:24.000Z</time>
      </trkpt>
      <trkpt lat="45.41941" lon="5.83544">
        <ele>639.59997558594</ele>
        <time>2011-07-24T10:35:27.000Z</time>
      </trkpt>
      <trkpt lat="45.41932" lon="5.83538">
        <ele>645</ele>
        <time>2011-07-24T10:35:40.000Z</time>
      </trkpt>
      <trkpt lat="45.41926" lon="5.8353">
        <ele>649.40002441406</ele>
        <time>2011-07-24T10:35:52.000Z</time>
      </trkpt>
      <trkpt lat="45.41915" lon="5.83526">
        <ele>655.79998779297</ele>
        <time>2011-07-24T10:36:09.000Z</time>
      </trkpt>
      <trkpt lat="45.41913" lon="5.83525">
        <ele>656.79998779297</ele>
        <time>2011-07-24T10:36:11.000Z</time>
      </trkpt>
      <trkpt lat="45.41906" lon="5.83507">
        <ele>663.40002441406</ele>
        <time>2011-07-24T10:36:24.000Z</time>
      </trkpt>
      <trkpt lat="45.41909" lon="5.83501">
        <ele>662.79998779297</ele>
        <time>2011-07-24T10:36:48.000Z</time>
      </trkpt>
      <trkpt lat="45.41915" lon="5.83498">
        <ele>661</ele>
        <time>2011-07-24T10:36:56.000Z</time>
      </trkpt>
      <trkpt lat="45.41912" lon="5.83494">
        <ele>663</ele>
        <time>2011-07-24T10:37:08.000Z</time>
      </trkpt>
      <trkpt lat="45.41899" lon="5.83488">
        <ele>669.40002441406</ele>
        <time>2011-07-24T10:37:23.000Z</time>
      </trkpt>
      <trkpt lat="45.41887" lon="5.83471">
        <ele>676.40002441406</ele>
        <time>2011-07-24T10:37:37.000Z</time>
      </trkpt>
      <trkpt lat="45.41892" lon="5.83459">
        <ele>676.40002441406</ele>
        <time>2011-07-24T10:37:52.000Z</time>
      </trkpt>
      <trkpt lat="45.41882" lon="5.83453">
        <ele>680.59997558594</ele>
        <time>2011-07-24T10:38:06.000Z</time>
      </trkpt>
      <trkpt lat="45.41864" lon="5.83442">
        <ele>687.20001220703</ele>
        <time>2011-07-24T10:38:20.000Z</time>
      </trkpt>
      <trkpt lat="45.41855" lon="5.83445">
        <ele>689.59997558594</ele>
        <time>2011-07-24T10:38:32.000Z</time>
      </trkpt>
      <trkpt lat="45.41861" lon="5.8345">
        <ele>687.59997558594</ele>
        <time>2011-07-24T10:38:40.000Z</time>
      </trkpt>
      <trkpt lat="45.41857" lon="5.8345">
        <ele>688.79998779297</ele>
        <time>2011-07-24T10:38:52.000Z</time>
      </trkpt>
      <trkpt lat="45.41844" lon="5.83447">
        <ele>693</ele>
        <time>2011-07-24T10:39:01.000Z</time>
      </trkpt>
      <trkpt lat="45.4184" lon="5.83462">
        <ele>693.79998779297</ele>
        <time>2011-07-24T10:39:09.000Z</time>
      </trkpt>
      <trkpt lat="45.41834" lon="5.83489">
        <ele>694.79998779297</ele>
        <time>2011-07-24T10:39:22.000Z</time>
      </trkpt>
      <trkpt lat="45.4184" lon="5.83479">
        <ele>693</ele>
        <time>2011-07-24T10:39:40.000Z</time>
      </trkpt>
      <trkpt lat="45.41846" lon="5.83469">
        <ele>691</ele>
        <time>2011-07-24T10:39:53.000Z</time>
      </trkpt>
      <trkpt lat="45.41835" lon="5.83475">
        <ele>694.79998779297</ele>
        <time>2011-07-24T10:40:06.000Z</time>
      </trkpt>
      <trkpt lat="45.41829" lon="5.83484">
        <ele>697.59997558594</ele>
        <time>2011-07-24T10:40:22.000Z</time>
      </trkpt>
      <trkpt lat="45.41827" lon="5.83504">
        <ele>698</ele>
        <time>2011-07-24T10:40:39.000Z</time>
      </trkpt>
      <trkpt lat="45.41827" lon="5.83513">
        <ele>698.20001220703</ele>
        <time>2011-07-24T10:40:52.000Z</time>
      </trkpt>
      <trkpt lat="45.41827" lon="5.83523">
        <ele>698.40002441406</ele>
        <time>2011-07-24T10:41:06.000Z</time>
      </trkpt>
      <trkpt lat="45.41817" lon="5.83534">
        <ele>704.20001220703</ele>
        <time>2011-07-24T10:41:18.000Z</time>
      </trkpt>
      <trkpt lat="45.41814" lon="5.83534">
        <ele>706</ele>
        <time>2011-07-24T10:41:26.000Z</time>
      </trkpt>
      <trkpt lat="45.41808" lon="5.83528">
        <ele>709.40002441406</ele>
        <time>2011-07-24T10:41:41.000Z</time>
      </trkpt>
      <trkpt lat="45.41795" lon="5.8352">
        <ele>716.59997558594</ele>
        <time>2011-07-24T10:41:56.000Z</time>
      </trkpt>
      <trkpt lat="45.41788" lon="5.83509">
        <ele>720</ele>
        <time>2011-07-24T10:42:10.000Z</time>
      </trkpt>
      <trkpt lat="45.41778" lon="5.83496">
        <ele>724.40002441406</ele>
        <time>2011-07-24T10:42:24.000Z</time>
      </trkpt>
      <trkpt lat="45.4177" lon="5.83486">
        <ele>727.40002441406</ele>
        <time>2011-07-24T10:42:40.000Z</time>
      </trkpt>
      <trkpt lat="45.4176" lon="5.83473">
        <ele>730.20001220703</ele>
        <time>2011-07-24T10:42:59.000Z</time>
      </trkpt>
      <trkpt lat="45.4175" lon="5.83468">
        <ele>734</ele>
        <time>2011-07-24T10:43:17.000Z</time>
      </trkpt>
      <trkpt lat="45.41742" lon="5.83463">
        <ele>736.79998779297</ele>
        <time>2011-07-24T10:43:32.000Z</time>
      </trkpt>
      <trkpt lat="45.41735" lon="5.83457">
        <ele>738.59997558594</ele>
        <time>2011-07-24T10:43:46.000Z</time>
      </trkpt>
      <trkpt lat="45.41725" lon="5.83447">
        <ele>741</ele>
        <time>2011-07-24T10:44:05.000Z</time>
      </trkpt>
      <trkpt lat="45.41708" lon="5.83444">
        <ele>747.59997558594</ele>
        <time>2011-07-24T10:44:23.000Z</time>
      </trkpt>
      <trkpt lat="45.41696" lon="5.83441">
        <ele>752</ele>
        <time>2011-07-24T10:44:39.000Z</time>
      </trkpt>
      <trkpt lat="45.41684" lon="5.83437">
        <ele>756</ele>
        <time>2011-07-24T10:44:54.000Z</time>
      </trkpt>
      <trkpt lat="45.41669" lon="5.83438">
        <ele>762.40002441406</ele>
        <time>2011-07-24T10:45:12.000Z</time>
      </trkpt>
      <trkpt lat="45.41653" lon="5.83433">
        <ele>767.40002441406</ele>
        <time>2011-07-24T10:45:28.000Z</time>
      </trkpt>
      <trkpt lat="45.41649" lon="5.83431">
        <ele>768.40002441406</ele>
        <time>2011-07-24T10:45:33.000Z</time>
      </trkpt>
      <trkpt lat="45.41645" lon="5.83429">
        <ele>770</ele>
        <time>2011-07-24T10:45:40.000Z</time>
      </trkpt>
      <trkpt lat="45.41637" lon="5.83426">
        <ele>772.20001220703</ele>
        <time>2011-07-24T10:45:51.000Z</time>
      </trkpt>
      <trkpt lat="45.41629" lon="5.83427">
        <ele>775.59997558594</ele>
        <time>2011-07-24T10:46:09.000Z</time>
      </trkpt>
      <trkpt lat="45.41626" lon="5.83421">
        <ele>775.59997558594</ele>
        <time>2011-07-24T10:46:15.000Z</time>
      </trkpt>
      <trkpt lat="45.41608" lon="5.83414">
        <ele>782</ele>
        <time>2011-07-24T10:46:32.000Z</time>
      </trkpt>
      <trkpt lat="45.41607" lon="5.83423">
        <ele>783.79998779297</ele>
        <time>2011-07-24T10:46:42.000Z</time>
      </trkpt>
      <trkpt lat="45.41619" lon="5.8344">
        <ele>783</ele>
        <time>2011-07-24T10:46:52.000Z</time>
      </trkpt>
      <trkpt lat="45.41635" lon="5.83459">
        <ele>781.40002441406</ele>
        <time>2011-07-24T10:47:06.000Z</time>
      </trkpt>
      <trkpt lat="45.41637" lon="5.83463">
        <ele>782</ele>
        <time>2011-07-24T10:47:09.000Z</time>
      </trkpt>
      <trkpt lat="45.41644" lon="5.83474">
        <ele>781.59997558594</ele>
        <time>2011-07-24T10:47:20.000Z</time>
      </trkpt>
      <trkpt lat="45.41656" lon="5.83484">
        <ele>779.59997558594</ele>
        <time>2011-07-24T10:47:30.000Z</time>
      </trkpt>
      <trkpt lat="45.41666" lon="5.83498">
        <ele>780</ele>
        <time>2011-07-24T10:47:42.000Z</time>
      </trkpt>
      <trkpt lat="45.41672" lon="5.83513">
        <ele>782</ele>
        <time>2011-07-24T10:47:55.000Z</time>
      </trkpt>
      <trkpt lat="45.41677" lon="5.83531">
        <ele>784.79998779297</ele>
        <time>2011-07-24T10:48:08.000Z</time>
      </trkpt>
      <trkpt lat="45.41676" lon="5.83538">
        <ele>787.40002441406</ele>
        <time>2011-07-24T10:48:13.000Z</time>
      </trkpt>
      <trkpt lat="45.41676" lon="5.83542">
        <ele>789</ele>
        <time>2011-07-24T10:48:15.000Z</time>
      </trkpt>
      <trkpt lat="45.41669" lon="5.83554">
        <ele>797.20001220703</ele>
        <time>2011-07-24T10:48:23.000Z</time>
      </trkpt>
      <trkpt lat="45.41669" lon="5.83545">
        <ele>794.59997558594</ele>
        <time>2011-07-24T10:48:30.000Z</time>
      </trkpt>
      <trkpt lat="45.4167" lon="5.83537">
        <ele>791</ele>
        <time>2011-07-24T10:48:36.000Z</time>
      </trkpt>
      <trkpt lat="45.41656" lon="5.83528">
        <ele>794.40002441406</ele>
        <time>2011-07-24T10:48:54.000Z</time>
      </trkpt>
      <trkpt lat="45.41652" lon="5.83526">
        <ele>795.79998779297</ele>
        <time>2011-07-24T10:48:58.000Z</time>
      </trkpt>
      <trkpt lat="45.41646" lon="5.83525">
        <ele>798</ele>
        <time>2011-07-24T10:49:02.000Z</time>
      </trkpt>
      <trkpt lat="45.41642" lon="5.83526">
        <ele>800.20001220703</ele>
        <time>2011-07-24T10:49:05.000Z</time>
      </trkpt>
      <trkpt lat="45.41625" lon="5.83525">
        <ele>807.20001220703</ele>
        <time>2011-07-24T10:49:18.000Z</time>
      </trkpt>
      <trkpt lat="45.41613" lon="5.8352">
        <ele>810.40002441406</ele>
        <time>2011-07-24T10:49:30.000Z</time>
      </trkpt>
      <trkpt lat="45.41607" lon="5.83516">
        <ele>810.59997558594</ele>
        <time>2011-07-24T10:49:38.000Z</time>
      </trkpt>
      <trkpt lat="45.41591" lon="5.83516">
        <ele>817.59997558594</ele>
        <time>2011-07-24T10:49:55.000Z</time>
      </trkpt>
      <trkpt lat="45.41589" lon="5.83516">
        <ele>818</ele>
        <time>2011-07-24T10:49:57.000Z</time>
      </trkpt>
      <trkpt lat="45.41572" lon="5.83512">
        <ele>823.40002441406</ele>
        <time>2011-07-24T10:50:10.000Z</time>
      </trkpt>
      <trkpt lat="45.4157" lon="5.83512">
        <ele>824</ele>
        <time>2011-07-24T10:50:11.000Z</time>
      </trkpt>
      <trkpt lat="45.41564" lon="5.83512">
        <ele>826.59997558594</ele>
        <time>2011-07-24T10:50:23.000Z</time>
      </trkpt>
      <trkpt lat="45.41571" lon="5.83516">
        <ele>826.20001220703</ele>
        <time>2011-07-24T10:50:40.000Z</time>
      </trkpt>
      <trkpt lat="45.41579" lon="5.83523">
        <ele>826.59997558594</ele>
        <time>2011-07-24T10:50:46.000Z</time>
      </trkpt>
      <trkpt lat="45.41592" lon="5.83537">
        <ele>829.20001220703</ele>
        <time>2011-07-24T10:50:59.000Z</time>
      </trkpt>
      <trkpt lat="45.41585" lon="5.83542">
        <ele>836.20001220703</ele>
        <time>2011-07-24T10:51:13.000Z</time>
      </trkpt>
      <trkpt lat="45.41575" lon="5.83539">
        <ele>838</ele>
        <time>2011-07-24T10:51:20.000Z</time>
      </trkpt>
      <trkpt lat="45.41571" lon="5.83539">
        <ele>840</ele>
        <time>2011-07-24T10:51:24.000Z</time>
      </trkpt>
      <trkpt lat="45.41566" lon="5.83538">
        <ele>840.79998779297</ele>
        <time>2011-07-24T10:51:28.000Z</time>
      </trkpt>
      <trkpt lat="45.41563" lon="5.83536">
        <ele>841.20001220703</ele>
        <time>2011-07-24T10:51:31.000Z</time>
      </trkpt>
      <trkpt lat="45.41556" lon="5.83534">
        <ele>842.79998779297</ele>
        <time>2011-07-24T10:51:36.000Z</time>
      </trkpt>
      <trkpt lat="45.41544" lon="5.83533">
        <ele>847</ele>
        <time>2011-07-24T10:51:44.000Z</time>
      </trkpt>
      <trkpt lat="45.4153" lon="5.83538">
        <ele>854.79998779297</ele>
        <time>2011-07-24T10:52:00.000Z</time>
      </trkpt>
      <trkpt lat="45.41531" lon="5.8352">
        <ele>845.20001220703</ele>
        <time>2011-07-24T10:52:16.000Z</time>
      </trkpt>
      <trkpt lat="45.41532" lon="5.83514">
        <ele>841.59997558594</ele>
        <time>2011-07-24T10:52:20.000Z</time>
      </trkpt>
      <trkpt lat="45.41531" lon="5.83508">
        <ele>839</ele>
        <time>2011-07-24T10:52:23.000Z</time>
      </trkpt>
      <trkpt lat="45.41526" lon="5.83501">
        <ele>837.59997558594</ele>
        <time>2011-07-24T10:52:27.000Z</time>
      </trkpt>
      <trkpt lat="45.41516" lon="5.83496">
        <ele>840.59997558594</ele>
        <time>2011-07-24T10:52:32.000Z</time>
      </trkpt>
      <trkpt lat="45.41493" lon="5.83478">
        <ele>846.20001220703</ele>
        <time>2011-07-24T10:52:41.000Z</time>
      </trkpt>
      <trkpt lat="45.41475" lon="5.83479">
        <ele>853.40002441406</ele>
        <time>2011-07-24T10:52:48.000Z</time>
      </trkpt>
      <trkpt lat="45.41472" lon="5.83481">
        <ele>855.20001220703</ele>
        <time>2011-07-24T10:52:51.000Z</time>
      </trkpt>
      <trkpt lat="45.41466" lon="5.83483">
        <ele>857.59997558594</ele>
        <time>2011-07-24T10:52:56.000Z</time>
      </trkpt>
      <trkpt lat="45.41462" lon="5.83482">
        <ele>858.79998779297</ele>
        <time>2011-07-24T10:52:59.000Z</time>
      </trkpt>
      <trkpt lat="45.41459" lon="5.83478">
        <ele>859.59997558594</ele>
        <time>2011-07-24T10:53:02.000Z</time>
      </trkpt>
      <trkpt lat="45.41456" lon="5.83474">
        <ele>860</ele>
        <time>2011-07-24T10:53:05.000Z</time>
      </trkpt>
      <trkpt lat="45.41442" lon="5.83471">
        <ele>865.40002441406</ele>
        <time>2011-07-24T10:53:18.000Z</time>
      </trkpt>
      <trkpt lat="45.41432" lon="5.83467">
        <ele>869</ele>
        <time>2011-07-24T10:53:32.000Z</time>
      </trkpt>
      <trkpt lat="45.41434" lon="5.83474">
        <ele>868.79998779297</ele>
        <time>2011-07-24T10:53:36.000Z</time>
      </trkpt>
      <trkpt lat="45.41444" lon="5.83491">
        <ele>866.59997558594</ele>
        <time>2011-07-24T10:53:52.000Z</time>
      </trkpt>
      <trkpt lat="45.41455" lon="5.83498">
        <ele>863.79998779297</ele>
        <time>2011-07-24T10:54:07.000Z</time>
      </trkpt>
      <trkpt lat="45.41456" lon="5.83499">
        <ele>863.59997558594</ele>
        <time>2011-07-24T10:54:08.000Z</time>
      </trkpt>
      <trkpt lat="45.41472" lon="5.83508">
        <ele>861.79998779297</ele>
        <time>2011-07-24T10:54:25.000Z</time>
      </trkpt>
      <trkpt lat="45.41484" lon="5.83524">
        <ele>864.59997558594</ele>
        <time>2011-07-24T10:54:43.000Z</time>
      </trkpt>
      <trkpt lat="45.41492" lon="5.83534">
        <ele>866.79998779297</ele>
        <time>2011-07-24T10:54:56.000Z</time>
      </trkpt>
      <trkpt lat="45.41491" lon="5.83545">
        <ele>871.79998779297</ele>
        <time>2011-07-24T10:55:02.000Z</time>
      </trkpt>
      <trkpt lat="45.41496" lon="5.83576">
        <ele>885.20001220703</ele>
        <time>2011-07-24T10:55:16.000Z</time>
      </trkpt>
      <trkpt lat="45.41508" lon="5.83592">
        <ele>888.40002441406</ele>
        <time>2011-07-24T10:55:27.000Z</time>
      </trkpt>
      <trkpt lat="45.41511" lon="5.83595">
        <ele>889</ele>
        <time>2011-07-24T10:55:33.000Z</time>
      </trkpt>
      <trkpt lat="45.41524" lon="5.83598">
        <ele>886</ele>
        <time>2011-07-24T10:55:49.000Z</time>
      </trkpt>
      <trkpt lat="45.41536" lon="5.83591">
        <ele>879.79998779297</ele>
        <time>2011-07-24T10:56:05.000Z</time>
      </trkpt>
      <trkpt lat="45.41551" lon="5.83599">
        <ele>878.79998779297</ele>
        <time>2011-07-24T10:56:21.000Z</time>
      </trkpt>
      <trkpt lat="45.41559" lon="5.8361">
        <ele>881.20001220703</ele>
        <time>2011-07-24T10:56:36.000Z</time>
      </trkpt>
      <trkpt lat="45.41558" lon="5.83612">
        <ele>882.59997558594</ele>
        <time>2011-07-24T10:56:39.000Z</time>
      </trkpt>
      <trkpt lat="45.41543" lon="5.83618">
        <ele>889</ele>
        <time>2011-07-24T10:56:54.000Z</time>
      </trkpt>
      <trkpt lat="45.41541" lon="5.83615">
        <ele>888.20001220703</ele>
        <time>2011-07-24T10:57:07.000Z</time>
      </trkpt>
      <trkpt lat="45.41536" lon="5.83614">
        <ele>889</ele>
        <time>2011-07-24T10:57:13.000Z</time>
      </trkpt>
      <trkpt lat="45.41529" lon="5.83614">
        <ele>890.59997558594</ele>
        <time>2011-07-24T10:57:22.000Z</time>
      </trkpt>
      <trkpt lat="45.41527" lon="5.83616">
        <ele>892.20001220703</ele>
        <time>2011-07-24T10:57:28.000Z</time>
      </trkpt>
      <trkpt lat="45.41538" lon="5.83629">
        <ele>894.59997558594</ele>
        <time>2011-07-24T10:57:44.000Z</time>
      </trkpt>
      <trkpt lat="45.41553" lon="5.83654">
        <ele>902</ele>
        <time>2011-07-24T10:58:03.000Z</time>
      </trkpt>
      <trkpt lat="45.41556" lon="5.83663">
        <ele>905.40002441406</ele>
        <time>2011-07-24T10:58:12.000Z</time>
      </trkpt>
      <trkpt lat="45.41565" lon="5.83679">
        <ele>906.20001220703</ele>
        <time>2011-07-24T10:58:23.000Z</time>
      </trkpt>
      <trkpt lat="45.41565" lon="5.83681">
        <ele>906.40002441406</ele>
        <time>2011-07-24T10:58:24.000Z</time>
      </trkpt>
      <trkpt lat="45.4156" lon="5.83691">
        <ele>908.59997558594</ele>
        <time>2011-07-24T10:58:34.000Z</time>
      </trkpt>
      <trkpt lat="45.41556" lon="5.83696">
        <ele>909.79998779297</ele>
        <time>2011-07-24T10:58:39.000Z</time>
      </trkpt>
      <trkpt lat="45.41548" lon="5.83698">
        <ele>912</ele>
        <time>2011-07-24T10:58:53.000Z</time>
      </trkpt>
      <trkpt lat="45.41547" lon="5.83698">
        <ele>912.20001220703</ele>
        <time>2011-07-24T10:58:54.000Z</time>
      </trkpt>
      <trkpt lat="45.41545" lon="5.83699">
        <ele>913</ele>
        <time>2011-07-24T10:58:56.000Z</time>
      </trkpt>
      <trkpt lat="45.41542" lon="5.837">
        <ele>913.59997558594</ele>
        <time>2011-07-24T10:58:58.000Z</time>
      </trkpt>
      <trkpt lat="45.4152" lon="5.83704">
        <ele>919.59997558594</ele>
        <time>2011-07-24T10:59:12.000Z</time>
      </trkpt>
      <trkpt lat="45.41502" lon="5.83703">
        <ele>923.79998779297</ele>
        <time>2011-07-24T10:59:25.000Z</time>
      </trkpt>
      <trkpt lat="45.41485" lon="5.83703">
        <ele>924.40002441406</ele>
        <time>2011-07-24T10:59:38.000Z</time>
      </trkpt>
      <trkpt lat="45.41473" lon="5.83704">
        <ele>924.79998779297</ele>
        <time>2011-07-24T10:59:49.000Z</time>
      </trkpt>
      <trkpt lat="45.41466" lon="5.83705">
        <ele>925</ele>
        <time>2011-07-24T10:59:56.000Z</time>
      </trkpt>
      <trkpt lat="45.4146" lon="5.83705">
        <ele>925</ele>
        <time>2011-07-24T11:00:01.000Z</time>
      </trkpt>
      <trkpt lat="45.41449" lon="5.83704">
        <ele>924.79998779297</ele>
        <time>2011-07-24T11:00:12.000Z</time>
      </trkpt>
      <trkpt lat="45.41431" lon="5.83716">
        <ele>927.20001220703</ele>
        <time>2011-07-24T11:00:25.000Z</time>
      </trkpt>
      <trkpt lat="45.41425" lon="5.83723">
        <ele>928.40002441406</ele>
        <time>2011-07-24T11:00:31.000Z</time>
      </trkpt>
      <trkpt lat="45.41416" lon="5.83735">
        <ele>930.40002441406</ele>
        <time>2011-07-24T11:00:40.000Z</time>
      </trkpt>
      <trkpt lat="45.41415" lon="5.83737">
        <ele>930.59997558594</ele>
        <time>2011-07-24T11:00:41.000Z</time>
      </trkpt>
      <trkpt lat="45.41404" lon="5.83754">
        <ele>932.40002441406</ele>
        <time>2011-07-24T11:00:52.000Z</time>
      </trkpt>
      <trkpt lat="45.41394" lon="5.83758">
        <ele>931.79998779297</ele>
        <time>2011-07-24T11:00:59.000Z</time>
      </trkpt>
      <trkpt lat="45.41391" lon="5.8376">
        <ele>931.59997558594</ele>
        <time>2011-07-24T11:01:01.000Z</time>
      </trkpt>
      <trkpt lat="45.41392" lon="5.83766">
        <ele>931</ele>
        <time>2011-07-24T11:01:06.000Z</time>
      </trkpt>
      <trkpt lat="45.41399" lon="5.83768">
        <ele>930.79998779297</ele>
        <time>2011-07-24T11:01:10.000Z</time>
      </trkpt>
      <trkpt lat="45.41405" lon="5.83769">
        <ele>930.79998779297</ele>
        <time>2011-07-24T11:01:14.000Z</time>
      </trkpt>
      <trkpt lat="45.41415" lon="5.83771">
        <ele>930.79998779297</ele>
        <time>2011-07-24T11:01:21.000Z</time>
      </trkpt>
      <trkpt lat="45.41422" lon="5.83773">
        <ele>930.79998779297</ele>
        <time>2011-07-24T11:01:26.000Z</time>
      </trkpt>
      <trkpt lat="45.41429" lon="5.83776">
        <ele>930.79998779297</ele>
        <time>2011-07-24T11:01:32.000Z</time>
      </trkpt>
      <trkpt lat="45.41431" lon="5.83776">
        <ele>930.79998779297</ele>
        <time>2011-07-24T11:01:34.000Z</time>
      </trkpt>
      <trkpt lat="45.41434" lon="5.83779">
        <ele>930.79998779297</ele>
        <time>2011-07-24T11:01:37.000Z</time>
      </trkpt>
      <trkpt lat="45.41447" lon="5.83783">
        <ele>931</ele>
        <time>2011-07-24T11:01:48.000Z</time>
      </trkpt>
      <trkpt lat="45.41448" lon="5.83783">
        <ele>931</ele>
        <time>2011-07-24T11:01:49.000Z</time>
      </trkpt>
      <trkpt lat="45.41459" lon="5.83789">
        <ele>931.20001220703</ele>
        <time>2011-07-24T11:02:00.000Z</time>
      </trkpt>
      <trkpt lat="45.41475" lon="5.83791">
        <ele>931.79998779297</ele>
        <time>2011-07-24T11:02:14.000Z</time>
      </trkpt>
      <trkpt lat="45.41476" lon="5.8379">
        <ele>931.79998779297</ele>
        <time>2011-07-24T11:02:15.000Z</time>
      </trkpt>
      <trkpt lat="45.41496" lon="5.83794">
        <ele>932.59997558594</ele>
        <time>2011-07-24T11:02:29.000Z</time>
      </trkpt>
      <trkpt lat="45.41514" lon="5.83805">
        <ele>927.79998779297</ele>
        <time>2011-07-24T11:02:40.000Z</time>
      </trkpt>
      <trkpt lat="45.41514" lon="5.83804">
        <ele>927.79998779297</ele>
        <time>2011-07-24T11:02:44.000Z</time>
      </trkpt>
      <trkpt lat="45.41532" lon="5.83806">
        <ele>921.79998779297</ele>
        <time>2011-07-24T11:02:53.000Z</time>
      </trkpt>
      <trkpt lat="45.41547" lon="5.83813">
        <ele>916.79998779297</ele>
        <time>2011-07-24T11:02:57.000Z</time>
      </trkpt>
      <trkpt lat="45.41555" lon="5.83832">
        <ele>913.59997558594</ele>
        <time>2011-07-24T11:03:01.000Z</time>
      </trkpt>
      <trkpt lat="45.41554" lon="5.83849">
        <ele>910.40002441406</ele>
        <time>2011-07-24T11:03:07.000Z</time>
      </trkpt>
      <trkpt lat="45.4152" lon="5.83837">
        <ele>924.20001220703</ele>
        <time>2011-07-24T11:03:21.000Z</time>
      </trkpt>
      <trkpt lat="45.41492" lon="5.8382">
        <ele>931.59997558594</ele>
        <time>2011-07-24T11:03:29.000Z</time>
      </trkpt>
      <trkpt lat="45.41471" lon="5.83809">
        <ele>930.59997558594</ele>
        <time>2011-07-24T11:03:33.000Z</time>
      </trkpt>
      <trkpt lat="45.4145" lon="5.83799">
        <ele>930</ele>
        <time>2011-07-24T11:03:36.000Z</time>
      </trkpt>
      <trkpt lat="45.4144" lon="5.83797">
        <ele>929.59997558594</ele>
        <time>2011-07-24T11:03:38.000Z</time>
      </trkpt>
      <trkpt lat="45.41419" lon="5.83791">
        <ele>929</ele>
        <time>2011-07-24T11:03:42.000Z</time>
      </trkpt>
      <trkpt lat="45.41395" lon="5.8379">
        <ele>928.59997558594</ele>
        <time>2011-07-24T11:03:46.000Z</time>
      </trkpt>
      <trkpt lat="45.41362" lon="5.83791">
        <ele>927.59997558594</ele>
        <time>2011-07-24T11:03:55.000Z</time>
      </trkpt>
      <trkpt lat="45.41351" lon="5.83803">
        <ele>926</ele>
        <time>2011-07-24T11:03:58.000Z</time>
      </trkpt>
      <trkpt lat="45.41331" lon="5.83842">
        <ele>920.79998779297</ele>
        <time>2011-07-24T11:04:02.000Z</time>
      </trkpt>
      <trkpt lat="45.41313" lon="5.83884">
        <ele>918</ele>
        <time>2011-07-24T11:04:06.000Z</time>
      </trkpt>
      <trkpt lat="45.41308" lon="5.83895">
        <ele>917.20001220703</ele>
        <time>2011-07-24T11:04:07.000Z</time>
      </trkpt>
      <trkpt lat="45.4128" lon="5.83944">
        <ele>914.79998779297</ele>
        <time>2011-07-24T11:04:11.000Z</time>
      </trkpt>
      <trkpt lat="45.41265" lon="5.83972">
        <ele>913</ele>
        <time>2011-07-24T11:04:13.000Z</time>
      </trkpt>
      <trkpt lat="45.41259" lon="5.83987">
        <ele>911.20001220703</ele>
        <time>2011-07-24T11:04:14.000Z</time>
      </trkpt>
      <trkpt lat="45.41249" lon="5.84021">
        <ele>907.40002441406</ele>
        <time>2011-07-24T11:04:16.000Z</time>
      </trkpt>
      <trkpt lat="45.41239" lon="5.84068">
        <ele>902.40002441406</ele>
        <time>2011-07-24T11:04:19.000Z</time>
      </trkpt>
      <trkpt lat="45.41236" lon="5.84106">
        <ele>898.79998779297</ele>
        <time>2011-07-24T11:04:22.000Z</time>
      </trkpt>
      <trkpt lat="45.41213" lon="5.84152">
        <ele>900.79998779297</ele>
        <time>2011-07-24T11:04:26.000Z</time>
      </trkpt>
      <trkpt lat="45.41206" lon="5.84161">
        <ele>901.59997558594</ele>
        <time>2011-07-24T11:04:27.000Z</time>
      </trkpt>
      <trkpt lat="45.41185" lon="5.84184">
        <ele>901.20001220703</ele>
        <time>2011-07-24T11:04:30.000Z</time>
      </trkpt>
      <trkpt lat="45.41157" lon="5.84224">
        <ele>895.20001220703</ele>
        <time>2011-07-24T11:04:34.000Z</time>
      </trkpt>
      <trkpt lat="45.41143" lon="5.84241">
        <ele>893.20001220703</ele>
        <time>2011-07-24T11:04:36.000Z</time>
      </trkpt>
      <trkpt lat="45.41135" lon="5.84247">
        <ele>893</ele>
        <time>2011-07-24T11:04:37.000Z</time>
      </trkpt>
      <trkpt lat="45.41105" lon="5.84273">
        <ele>891.79998779297</ele>
        <time>2011-07-24T11:04:41.000Z</time>
      </trkpt>
      <trkpt lat="45.41089" lon="5.84313">
        <ele>880</ele>
        <time>2011-07-24T11:04:45.000Z</time>
      </trkpt>
      <trkpt lat="45.41094" lon="5.84341">
        <ele>872.20001220703</ele>
        <time>2011-07-24T11:04:47.000Z</time>
      </trkpt>
      <trkpt lat="45.41102" lon="5.84361">
        <ele>870.20001220703</ele>
        <time>2011-07-24T11:04:49.000Z</time>
      </trkpt>
      <trkpt lat="45.41107" lon="5.84372">
        <ele>869.20001220703</ele>
        <time>2011-07-24T11:04:51.000Z</time>
      </trkpt>
      <trkpt lat="45.41102" lon="5.84386">
        <ele>868.20001220703</ele>
        <time>2011-07-24T11:04:54.000Z</time>
      </trkpt>
      <trkpt lat="45.41093" lon="5.84391">
        <ele>868.59997558594</ele>
        <time>2011-07-24T11:04:56.000Z</time>
      </trkpt>
      <trkpt lat="45.41061" lon="5.84393">
        <ele>868.79998779297</ele>
        <time>2011-07-24T11:05:03.000Z</time>
      </trkpt>
      <trkpt lat="45.41039" lon="5.84395">
        <ele>867.79998779297</ele>
        <time>2011-07-24T11:05:08.000Z</time>
      </trkpt>
      <trkpt lat="45.40973" lon="5.84407">
        <ele>863.20001220703</ele>
        <time>2011-07-24T11:05:20.000Z</time>
      </trkpt>
      <trkpt lat="45.40941" lon="5.84413">
        <ele>860.79998779297</ele>
        <time>2011-07-24T11:05:26.000Z</time>
      </trkpt>
      <trkpt lat="45.40905" lon="5.84422">
        <ele>859</ele>
        <time>2011-07-24T11:05:33.000Z</time>
      </trkpt>
      <trkpt lat="45.40876" lon="5.84429">
        <ele>860.59997558594</ele>
        <time>2011-07-24T11:05:43.000Z</time>
      </trkpt>
      <trkpt lat="45.40871" lon="5.84426">
        <ele>861.59997558594</ele>
        <time>2011-07-24T11:05:46.000Z</time>
      </trkpt>
      <trkpt lat="45.40832" lon="5.84416">
        <ele>867.40002441406</ele>
        <time>2011-07-24T11:05:58.000Z</time>
      </trkpt>
      <trkpt lat="45.40822" lon="5.84416">
        <ele>867</ele>
        <time>2011-07-24T11:06:01.000Z</time>
      </trkpt>
      <trkpt lat="45.408" lon="5.84419">
        <ele>866.40002441406</ele>
        <time>2011-07-24T11:06:11.000Z</time>
      </trkpt>
      <trkpt lat="45.40798" lon="5.84418">
        <ele>866.59997558594</ele>
        <time>2011-07-24T11:06:12.000Z</time>
      </trkpt>
      <trkpt lat="45.40779" lon="5.84408">
        <ele>870</ele>
        <time>2011-07-24T11:06:28.000Z</time>
      </trkpt>
      <trkpt lat="45.40777" lon="5.84394">
        <ele>874.79998779297</ele>
        <time>2011-07-24T11:06:59.000Z</time>
      </trkpt>
      <trkpt lat="45.40771" lon="5.84386">
        <ele>877.40002441406</ele>
        <time>2011-07-24T11:07:27.000Z</time>
      </trkpt>
      <trkpt lat="45.4076" lon="5.84384">
        <ele>877.79998779297</ele>
        <time>2011-07-24T11:07:33.000Z</time>
      </trkpt>
      <trkpt lat="45.40752" lon="5.84386">
        <ele>877</ele>
        <time>2011-07-24T11:07:38.000Z</time>
      </trkpt>
      <trkpt lat="45.40747" lon="5.84375">
        <ele>879.59997558594</ele>
        <time>2011-07-24T11:07:49.000Z</time>
      </trkpt>
      <trkpt lat="45.40742" lon="5.84363">
        <ele>882.40002441406</ele>
        <time>2011-07-24T11:07:59.000Z</time>
      </trkpt>
      <trkpt lat="45.40733" lon="5.84359">
        <ele>881.59997558594</ele>
        <time>2011-07-24T11:08:10.000Z</time>
      </trkpt>
      <trkpt lat="45.40724" lon="5.84346">
        <ele>883.59997558594</ele>
        <time>2011-07-24T11:08:23.000Z</time>
      </trkpt>
      <trkpt lat="45.40719" lon="5.84331">
        <ele>886.59997558594</ele>
        <time>2011-07-24T11:08:38.000Z</time>
      </trkpt>
      <trkpt lat="45.4072" lon="5.84326">
        <ele>888</ele>
        <time>2011-07-24T11:08:55.000Z</time>
      </trkpt>
      <trkpt lat="45.40718" lon="5.84319">
        <ele>889.20001220703</ele>
        <time>2011-07-24T11:09:02.000Z</time>
      </trkpt>
      <trkpt lat="45.40723" lon="5.84316">
        <ele>891.20001220703</ele>
        <time>2011-07-24T11:09:12.000Z</time>
      </trkpt>
      <trkpt lat="45.40733" lon="5.84321">
        <ele>892.40002441406</ele>
        <time>2011-07-24T11:09:28.000Z</time>
      </trkpt>
      <trkpt lat="45.4074" lon="5.84318">
        <ele>895</ele>
        <time>2011-07-24T11:09:40.000Z</time>
      </trkpt>
      <trkpt lat="45.4074" lon="5.84318">
        <ele>895.20001220703</ele>
        <time>2011-07-24T11:09:41.000Z</time>
      </trkpt>
      <trkpt lat="45.40741" lon="5.84313">
        <ele>896.40002441406</ele>
        <time>2011-07-24T11:09:48.000Z</time>
      </trkpt>
      <trkpt lat="45.40725" lon="5.843">
        <ele>895.40002441406</ele>
        <time>2011-07-24T11:10:06.000Z</time>
      </trkpt>
      <trkpt lat="45.40723" lon="5.84296">
        <ele>896</ele>
        <time>2011-07-24T11:10:10.000Z</time>
      </trkpt>
      <trkpt lat="45.40708" lon="5.84295">
        <ele>892.59997558594</ele>
        <time>2011-07-24T11:10:18.000Z</time>
      </trkpt>
      <trkpt lat="45.40698" lon="5.84293">
        <ele>890.20001220703</ele>
        <time>2011-07-24T11:10:30.000Z</time>
      </trkpt>
      <trkpt lat="45.40698" lon="5.84292">
        <ele>890.59997558594</ele>
        <time>2011-07-24T11:10:40.000Z</time>
      </trkpt>
      <trkpt lat="45.40699" lon="5.8429">
        <ele>891.20001220703</ele>
        <time>2011-07-24T11:10:43.000Z</time>
      </trkpt>
      <trkpt lat="45.40698" lon="5.84286">
        <ele>891.79998779297</ele>
        <time>2011-07-24T11:10:46.000Z</time>
      </trkpt>
      <trkpt lat="45.40682" lon="5.84273">
        <ele>890.59997558594</ele>
        <time>2011-07-24T11:11:00.000Z</time>
      </trkpt>
      <trkpt lat="45.40679" lon="5.84271">
        <ele>890.40002441406</ele>
        <time>2011-07-24T11:11:02.000Z</time>
      </trkpt>
      <trkpt lat="45.40675" lon="5.84269">
        <ele>889.79998779297</ele>
        <time>2011-07-24T11:11:06.000Z</time>
      </trkpt>
      <trkpt lat="45.40646" lon="5.84248">
        <ele>885.59997558594</ele>
        <time>2011-07-24T11:11:21.000Z</time>
      </trkpt>
      <trkpt lat="45.40623" lon="5.84228">
        <ele>881.79998779297</ele>
        <time>2011-07-24T11:11:36.000Z</time>
      </trkpt>
      <trkpt lat="45.40612" lon="5.84215">
        <ele>881</ele>
        <time>2011-07-24T11:11:45.000Z</time>
      </trkpt>
      <trkpt lat="45.40591" lon="5.84199">
        <ele>878.20001220703</ele>
        <time>2011-07-24T11:11:56.000Z</time>
      </trkpt>
      <trkpt lat="45.40583" lon="5.84185">
        <ele>879</ele>
        <time>2011-07-24T11:12:03.000Z</time>
      </trkpt>
      <trkpt lat="45.40579" lon="5.84183">
        <ele>879.20001220703</ele>
        <time>2011-07-24T11:12:07.000Z</time>
      </trkpt>
      <trkpt lat="45.40575" lon="5.84178">
        <ele>880</ele>
        <time>2011-07-24T11:12:12.000Z</time>
      </trkpt>
      <trkpt lat="45.40568" lon="5.84181">
        <ele>879</ele>
        <time>2011-07-24T11:12:27.000Z</time>
      </trkpt>
      <trkpt lat="45.40567" lon="5.84182">
        <ele>878.59997558594</ele>
        <time>2011-07-24T11:12:29.000Z</time>
      </trkpt>
      <trkpt lat="45.40561" lon="5.84188">
        <ele>877.20001220703</ele>
        <time>2011-07-24T11:12:36.000Z</time>
      </trkpt>
      <trkpt lat="45.40549" lon="5.84179">
        <ele>878.40002441406</ele>
        <time>2011-07-24T11:12:49.000Z</time>
      </trkpt>
      <trkpt lat="45.40539" lon="5.84163">
        <ele>880.79998779297</ele>
        <time>2011-07-24T11:13:01.000Z</time>
      </trkpt>
      <trkpt lat="45.40534" lon="5.84157">
        <ele>881.59997558594</ele>
        <time>2011-07-24T11:13:05.000Z</time>
      </trkpt>
      <trkpt lat="45.40525" lon="5.84144">
        <ele>883.20001220703</ele>
        <time>2011-07-24T11:13:12.000Z</time>
      </trkpt>
      <trkpt lat="45.40516" lon="5.84146">
        <ele>882.20001220703</ele>
        <time>2011-07-24T11:13:19.000Z</time>
      </trkpt>
      <trkpt lat="45.40502" lon="5.84153">
        <ele>880.40002441406</ele>
        <time>2011-07-24T11:13:31.000Z</time>
      </trkpt>
      <trkpt lat="45.40482" lon="5.84168">
        <ele>878.59997558594</ele>
        <time>2011-07-24T11:13:50.000Z</time>
      </trkpt>
      <trkpt lat="45.40466" lon="5.84181">
        <ele>876.79998779297</ele>
        <time>2011-07-24T11:14:02.000Z</time>
      </trkpt>
      <trkpt lat="45.40449" lon="5.84194">
        <ele>874.59997558594</ele>
        <time>2011-07-24T11:14:16.000Z</time>
      </trkpt>
      <trkpt lat="45.4045" lon="5.84185">
        <ele>876.40002441406</ele>
        <time>2011-07-24T11:14:28.000Z</time>
      </trkpt>
      <trkpt lat="45.40453" lon="5.84176">
        <ele>878.20001220703</ele>
        <time>2011-07-24T11:14:34.000Z</time>
      </trkpt>
      <trkpt lat="45.40443" lon="5.84158">
        <ele>882.40002441406</ele>
        <time>2011-07-24T11:14:51.000Z</time>
      </trkpt>
      <trkpt lat="45.40433" lon="5.84143">
        <ele>886.40002441406</ele>
        <time>2011-07-24T11:15:08.000Z</time>
      </trkpt>
      <trkpt lat="45.40427" lon="5.84135">
        <ele>888.79998779297</ele>
        <time>2011-07-24T11:15:23.000Z</time>
      </trkpt>
      <trkpt lat="45.40419" lon="5.8413">
        <ele>890.59997558594</ele>
        <time>2011-07-24T11:15:32.000Z</time>
      </trkpt>
      <trkpt lat="45.40422" lon="5.84121">
        <ele>892.40002441406</ele>
        <time>2011-07-24T11:15:42.000Z</time>
      </trkpt>
      <trkpt lat="45.40441" lon="5.84101">
        <ele>895.20001220703</ele>
        <time>2011-07-24T11:15:54.000Z</time>
      </trkpt>
      <trkpt lat="45.40442" lon="5.84099">
        <ele>895.40002441406</ele>
        <time>2011-07-24T11:15:55.000Z</time>
      </trkpt>
      <trkpt lat="45.4044" lon="5.84087">
        <ele>898.40002441406</ele>
        <time>2011-07-24T11:16:03.000Z</time>
      </trkpt>
      <trkpt lat="45.40424" lon="5.84091">
        <ele>899.40002441406</ele>
        <time>2011-07-24T11:16:13.000Z</time>
      </trkpt>
      <trkpt lat="45.40419" lon="5.84091">
        <ele>899.79998779297</ele>
        <time>2011-07-24T11:16:16.000Z</time>
      </trkpt>
      <trkpt lat="45.40404" lon="5.84094">
        <ele>900.79998779297</ele>
        <time>2011-07-24T11:16:25.000Z</time>
      </trkpt>
      <trkpt lat="45.40373" lon="5.84105">
        <ele>902.40002441406</ele>
        <time>2011-07-24T11:16:39.000Z</time>
      </trkpt>
      <trkpt lat="45.40319" lon="5.84136">
        <ele>902.59997558594</ele>
        <time>2011-07-24T11:17:00.000Z</time>
      </trkpt>
      <trkpt lat="45.40272" lon="5.84157">
        <ele>901.79998779297</ele>
        <time>2011-07-24T11:17:17.000Z</time>
      </trkpt>
      <trkpt lat="45.40269" lon="5.84157">
        <ele>902.20001220703</ele>
        <time>2011-07-24T11:17:18.000Z</time>
      </trkpt>
      <trkpt lat="45.4025" lon="5.84151">
        <ele>905.20001220703</ele>
        <time>2011-07-24T11:17:26.000Z</time>
      </trkpt>
      <trkpt lat="45.40205" lon="5.84141">
        <ele>907.59997558594</ele>
        <time>2011-07-24T11:17:40.000Z</time>
      </trkpt>
      <trkpt lat="45.40198" lon="5.84141">
        <ele>907.59997558594</ele>
        <time>2011-07-24T11:17:42.000Z</time>
      </trkpt>
      <trkpt lat="45.40175" lon="5.84135">
        <ele>909.20001220703</ele>
        <time>2011-07-24T11:17:54.000Z</time>
      </trkpt>
      <trkpt lat="45.40139" lon="5.84135">
        <ele>912.20001220703</ele>
        <time>2011-07-24T11:18:10.000Z</time>
      </trkpt>
      <trkpt lat="45.40108" lon="5.84143">
        <ele>913.20001220703</ele>
        <time>2011-07-24T11:18:24.000Z</time>
      </trkpt>
      <trkpt lat="45.4008" lon="5.84155">
        <ele>913</ele>
        <time>2011-07-24T11:18:35.000Z</time>
      </trkpt>
      <trkpt lat="45.40047" lon="5.84162">
        <ele>912.20001220703</ele>
        <time>2011-07-24T11:18:46.000Z</time>
      </trkpt>
      <trkpt lat="45.40019" lon="5.84169">
        <ele>911</ele>
        <time>2011-07-24T11:19:01.000Z</time>
      </trkpt>
      <trkpt lat="45.40001" lon="5.84173">
        <ele>910.20001220703</ele>
        <time>2011-07-24T11:19:09.000Z</time>
      </trkpt>
      <trkpt lat="45.39994" lon="5.84173">
        <ele>910.20001220703</ele>
        <time>2011-07-24T11:19:11.000Z</time>
      </trkpt>
      <trkpt lat="45.3999" lon="5.84172">
        <ele>910.20001220703</ele>
        <time>2011-07-24T11:19:12.000Z</time>
      </trkpt>
      <trkpt lat="45.39937" lon="5.8414">
        <ele>918.40002441406</ele>
        <time>2011-07-24T11:19:25.000Z</time>
      </trkpt>
      <trkpt lat="45.39914" lon="5.84133">
        <ele>920.40002441406</ele>
        <time>2011-07-24T11:19:36.000Z</time>
      </trkpt>
      <trkpt lat="45.39889" lon="5.84123">
        <ele>923.20001220703</ele>
        <time>2011-07-24T11:19:50.000Z</time>
      </trkpt>
      <trkpt lat="45.39888" lon="5.84122">
        <ele>923.40002441406</ele>
        <time>2011-07-24T11:19:51.000Z</time>
      </trkpt>
      <trkpt lat="45.39866" lon="5.8411">
        <ele>926.20001220703</ele>
        <time>2011-07-24T11:20:06.000Z</time>
      </trkpt>
      <trkpt lat="45.3985" lon="5.84096">
        <ele>929.59997558594</ele>
        <time>2011-07-24T11:20:16.000Z</time>
      </trkpt>
      <trkpt lat="45.39851" lon="5.84085">
        <ele>932.79998779297</ele>
        <time>2011-07-24T11:20:34.000Z</time>
      </trkpt>
      <trkpt lat="45.39852" lon="5.84087">
        <ele>932.20001220703</ele>
        <time>2011-07-24T11:20:55.000Z</time>
      </trkpt>
      <trkpt lat="45.39842" lon="5.84085">
        <ele>932</ele>
        <time>2011-07-24T11:21:00.000Z</time>
      </trkpt>
      <trkpt lat="45.39816" lon="5.84086">
        <ele>930.59997558594</ele>
        <time>2011-07-24T11:21:14.000Z</time>
      </trkpt>
      <trkpt lat="45.39799" lon="5.84078">
        <ele>932.59997558594</ele>
        <time>2011-07-24T11:21:25.000Z</time>
      </trkpt>
      <trkpt lat="45.39781" lon="5.84067">
        <ele>935.59997558594</ele>
        <time>2011-07-24T11:21:38.000Z</time>
      </trkpt>
      <trkpt lat="45.39767" lon="5.84062">
        <ele>936.59997558594</ele>
        <time>2011-07-24T11:21:48.000Z</time>
      </trkpt>
      <trkpt lat="45.39746" lon="5.84047">
        <ele>941.59997558594</ele>
        <time>2011-07-24T11:22:01.000Z</time>
      </trkpt>
      <trkpt lat="45.39719" lon="5.84061">
        <ele>940</ele>
        <time>2011-07-24T11:22:11.000Z</time>
      </trkpt>
      <trkpt lat="45.39701" lon="5.84075">
        <ele>938.20001220703</ele>
        <time>2011-07-24T11:22:19.000Z</time>
      </trkpt>
      <trkpt lat="45.39686" lon="5.84088">
        <ele>937.20001220703</ele>
        <time>2011-07-24T11:22:29.000Z</time>
      </trkpt>
      <trkpt lat="45.39669" lon="5.84091">
        <ele>939</ele>
        <time>2011-07-24T11:22:37.000Z</time>
      </trkpt>
      <trkpt lat="45.39651" lon="5.84093">
        <ele>938.40002441406</ele>
        <time>2011-07-24T11:22:44.000Z</time>
      </trkpt>
      <trkpt lat="45.39612" lon="5.84076">
        <ele>940</ele>
        <time>2011-07-24T11:22:54.000Z</time>
      </trkpt>
      <trkpt lat="45.39583" lon="5.84075">
        <ele>939</ele>
        <time>2011-07-24T11:23:04.000Z</time>
      </trkpt>
      <trkpt lat="45.39581" lon="5.8409">
        <ele>936</ele>
        <time>2011-07-24T11:23:08.000Z</time>
      </trkpt>
      <trkpt lat="45.39591" lon="5.84128">
        <ele>930.20001220703</ele>
        <time>2011-07-24T11:23:11.000Z</time>
      </trkpt>
      <trkpt lat="45.39596" lon="5.84153">
        <ele>926.20001220703</ele>
        <time>2011-07-24T11:23:13.000Z</time>
      </trkpt>
      <trkpt lat="45.396" lon="5.84163">
        <ele>924.59997558594</ele>
        <time>2011-07-24T11:23:14.000Z</time>
      </trkpt>
      <trkpt lat="45.3962" lon="5.84184">
        <ele>920.79998779297</ele>
        <time>2011-07-24T11:23:17.000Z</time>
      </trkpt>
      <trkpt lat="45.39626" lon="5.84192">
        <ele>919.20001220703</ele>
        <time>2011-07-24T11:23:18.000Z</time>
      </trkpt>
      <trkpt lat="45.39634" lon="5.84198">
        <ele>918</ele>
        <time>2011-07-24T11:23:19.000Z</time>
      </trkpt>
      <trkpt lat="45.39646" lon="5.84212">
        <ele>915.40002441406</ele>
        <time>2011-07-24T11:23:21.000Z</time>
      </trkpt>
      <trkpt lat="45.39665" lon="5.84232">
        <ele>911.59997558594</ele>
        <time>2011-07-24T11:23:24.000Z</time>
      </trkpt>
      <trkpt lat="45.39673" lon="5.84236">
        <ele>909.79998779297</ele>
        <time>2011-07-24T11:23:25.000Z</time>
      </trkpt>
      <trkpt lat="45.39693" lon="5.84242">
        <ele>906</ele>
        <time>2011-07-24T11:23:27.000Z</time>
      </trkpt>
      <trkpt lat="45.39715" lon="5.84246">
        <ele>902.40002441406</ele>
        <time>2011-07-24T11:23:29.000Z</time>
      </trkpt>
      <trkpt lat="45.39734" lon="5.84249">
        <ele>899.20001220703</ele>
        <time>2011-07-24T11:23:31.000Z</time>
      </trkpt>
      <trkpt lat="45.39758" lon="5.84264">
        <ele>895</ele>
        <time>2011-07-24T11:23:34.000Z</time>
      </trkpt>
      <trkpt lat="45.39766" lon="5.84271">
        <ele>893.79998779297</ele>
        <time>2011-07-24T11:23:35.000Z</time>
      </trkpt>
      <trkpt lat="45.39779" lon="5.84285">
        <ele>892</ele>
        <time>2011-07-24T11:23:37.000Z</time>
      </trkpt>
      <trkpt lat="45.39788" lon="5.84317">
        <ele>888.59997558594</ele>
        <time>2011-07-24T11:23:41.000Z</time>
      </trkpt>
      <trkpt lat="45.39787" lon="5.84333">
        <ele>886.79998779297</ele>
        <time>2011-07-24T11:23:43.000Z</time>
      </trkpt>
      <trkpt lat="45.39786" lon="5.84349">
        <ele>885.40002441406</ele>
        <time>2011-07-24T11:23:47.000Z</time>
      </trkpt>
      <trkpt lat="45.39789" lon="5.84356">
        <ele>884.79998779297</ele>
        <time>2011-07-24T11:23:49.000Z</time>
      </trkpt>
      <trkpt lat="45.39791" lon="5.84369">
        <ele>883.59997558594</ele>
        <time>2011-07-24T11:23:51.000Z</time>
      </trkpt>
      <trkpt lat="45.39791" lon="5.84383">
        <ele>882.40002441406</ele>
        <time>2011-07-24T11:23:53.000Z</time>
      </trkpt>
      <trkpt lat="45.39786" lon="5.84403">
        <ele>880.59997558594</ele>
        <time>2011-07-24T11:24:00.000Z</time>
      </trkpt>
      <trkpt lat="45.39782" lon="5.84406">
        <ele>880.20001220703</ele>
        <time>2011-07-24T11:24:21.000Z</time>
      </trkpt>
      <trkpt lat="45.39783" lon="5.84405">
        <ele>880.40002441406</ele>
        <time>2011-07-24T11:24:26.000Z</time>
      </trkpt>
      <trkpt lat="45.39774" lon="5.84449">
        <ele>876.79998779297</ele>
        <time>2011-07-24T11:24:35.000Z</time>
      </trkpt>
      <trkpt lat="45.39776" lon="5.84479">
        <ele>874.40002441406</ele>
        <time>2011-07-24T11:24:41.000Z</time>
      </trkpt>
      <trkpt lat="45.398" lon="5.8448">
        <ele>874.40002441406</ele>
        <time>2011-07-24T11:24:46.000Z</time>
      </trkpt>
      <trkpt lat="45.3986" lon="5.84511">
        <ele>870.40002441406</ele>
        <time>2011-07-24T11:24:55.000Z</time>
      </trkpt>
      <trkpt lat="45.39867" lon="5.84514">
        <ele>869.59997558594</ele>
        <time>2011-07-24T11:24:56.000Z</time>
      </trkpt>
      <trkpt lat="45.39888" lon="5.84518">
        <ele>868.20001220703</ele>
        <time>2011-07-24T11:24:59.000Z</time>
      </trkpt>
      <trkpt lat="45.39913" lon="5.84521">
        <ele>866.59997558594</ele>
        <time>2011-07-24T11:25:03.000Z</time>
      </trkpt>
      <trkpt lat="45.39956" lon="5.84538">
        <ele>862.79998779297</ele>
        <time>2011-07-24T11:25:10.000Z</time>
      </trkpt>
      <trkpt lat="45.39973" lon="5.84544">
        <ele>861.79998779297</ele>
        <time>2011-07-24T11:25:14.000Z</time>
      </trkpt>
      <trkpt lat="45.39987" lon="5.84551">
        <ele>861</ele>
        <time>2011-07-24T11:25:18.000Z</time>
      </trkpt>
      <trkpt lat="45.40016" lon="5.84564">
        <ele>859.79998779297</ele>
        <time>2011-07-24T11:25:26.000Z</time>
      </trkpt>
      <trkpt lat="45.40025" lon="5.84565">
        <ele>859.40002441406</ele>
        <time>2011-07-24T11:25:34.000Z</time>
      </trkpt>
      <trkpt lat="45.40028" lon="5.84568">
        <ele>859.20001220703</ele>
        <time>2011-07-24T11:25:51.000Z</time>
      </trkpt>
      <trkpt lat="45.40036" lon="5.84571">
        <ele>858.79998779297</ele>
        <time>2011-07-24T11:25:54.000Z</time>
      </trkpt>
      <trkpt lat="45.40044" lon="5.84579">
        <ele>858.40002441406</ele>
        <time>2011-07-24T11:25:56.000Z</time>
      </trkpt>
      <trkpt lat="45.40049" lon="5.84587">
        <ele>857.59997558594</ele>
        <time>2011-07-24T11:25:58.000Z</time>
      </trkpt>
      <trkpt lat="45.40072" lon="5.84599">
        <ele>855</ele>
        <time>2011-07-24T11:26:02.000Z</time>
      </trkpt>
      <trkpt lat="45.40095" lon="5.84603">
        <ele>853</ele>
        <time>2011-07-24T11:26:05.000Z</time>
      </trkpt>
      <trkpt lat="45.40115" lon="5.8461">
        <ele>850.20001220703</ele>
        <time>2011-07-24T11:26:08.000Z</time>
      </trkpt>
      <trkpt lat="45.40141" lon="5.84612">
        <ele>847.79998779297</ele>
        <time>2011-07-24T11:26:10.000Z</time>
      </trkpt>
      <trkpt lat="45.4016" lon="5.84619">
        <ele>845.79998779297</ele>
        <time>2011-07-24T11:26:12.000Z</time>
      </trkpt>
      <trkpt lat="45.4018" lon="5.84638">
        <ele>842.79998779297</ele>
        <time>2011-07-24T11:26:16.000Z</time>
      </trkpt>
      <trkpt lat="45.40189" lon="5.84643">
        <ele>841.59997558594</ele>
        <time>2011-07-24T11:26:19.000Z</time>
      </trkpt>
      <trkpt lat="45.40188" lon="5.84649">
        <ele>841.40002441406</ele>
        <time>2011-07-24T11:26:22.000Z</time>
      </trkpt>
      <trkpt lat="45.40188" lon="5.8466">
        <ele>841</ele>
        <time>2011-07-24T11:26:24.000Z</time>
      </trkpt>
      <trkpt lat="45.4021" lon="5.84669">
        <ele>838.40002441406</ele>
        <time>2011-07-24T11:26:28.000Z</time>
      </trkpt>
      <trkpt lat="45.40231" lon="5.84665">
        <ele>836.79998779297</ele>
        <time>2011-07-24T11:26:32.000Z</time>
      </trkpt>
      <trkpt lat="45.40236" lon="5.84665">
        <ele>836.20001220703</ele>
        <time>2011-07-24T11:26:33.000Z</time>
      </trkpt>
      <trkpt lat="45.40246" lon="5.84661">
        <ele>835.20001220703</ele>
        <time>2011-07-24T11:26:35.000Z</time>
      </trkpt>
      <trkpt lat="45.40249" lon="5.84658">
        <ele>834.79998779297</ele>
        <time>2011-07-24T11:26:36.000Z</time>
      </trkpt>
      <trkpt lat="45.40261" lon="5.84632">
        <ele>833</ele>
        <time>2011-07-24T11:26:42.000Z</time>
      </trkpt>
      <trkpt lat="45.40277" lon="5.84624">
        <ele>830.79998779297</ele>
        <time>2011-07-24T11:26:47.000Z</time>
      </trkpt>
      <trkpt lat="45.40292" lon="5.84615">
        <ele>828.40002441406</ele>
        <time>2011-07-24T11:26:52.000Z</time>
      </trkpt>
      <trkpt lat="45.40323" lon="5.84622">
        <ele>824.40002441406</ele>
        <time>2011-07-24T11:26:59.000Z</time>
      </trkpt>
      <trkpt lat="45.4037" lon="5.84588">
        <ele>817.59997558594</ele>
        <time>2011-07-24T11:27:12.000Z</time>
      </trkpt>
      <trkpt lat="45.40375" lon="5.84586">
        <ele>817</ele>
        <time>2011-07-24T11:27:13.000Z</time>
      </trkpt>
      <trkpt lat="45.40394" lon="5.84583">
        <ele>814.59997558594</ele>
        <time>2011-07-24T11:27:18.000Z</time>
      </trkpt>
      <trkpt lat="45.40417" lon="5.84581">
        <ele>812</ele>
        <time>2011-07-24T11:27:24.000Z</time>
      </trkpt>
      <trkpt lat="45.40441" lon="5.84571">
        <ele>811.59997558594</ele>
        <time>2011-07-24T11:27:33.000Z</time>
      </trkpt>
      <trkpt lat="45.40456" lon="5.84564">
        <ele>811.79998779297</ele>
        <time>2011-07-24T11:27:44.000Z</time>
      </trkpt>
      <trkpt lat="45.4046" lon="5.84563">
        <ele>811.79998779297</ele>
        <time>2011-07-24T11:27:45.000Z</time>
      </trkpt>
      <trkpt lat="45.40471" lon="5.84555">
        <ele>812.40002441406</ele>
        <time>2011-07-24T11:27:49.000Z</time>
      </trkpt>
      <trkpt lat="45.40497" lon="5.84556">
        <ele>811.20001220703</ele>
        <time>2011-07-24T11:27:54.000Z</time>
      </trkpt>
      <trkpt lat="45.40512" lon="5.84567">
        <ele>809.20001220703</ele>
        <time>2011-07-24T11:27:58.000Z</time>
      </trkpt>
      <trkpt lat="45.4052" lon="5.84586">
        <ele>805.59997558594</ele>
        <time>2011-07-24T11:28:03.000Z</time>
      </trkpt>
      <trkpt lat="45.40526" lon="5.84597">
        <ele>804.40002441406</ele>
        <time>2011-07-24T11:28:05.000Z</time>
      </trkpt>
      <trkpt lat="45.40539" lon="5.84616">
        <ele>801.40002441406</ele>
        <time>2011-07-24T11:28:09.000Z</time>
      </trkpt>
      <trkpt lat="45.40542" lon="5.84627">
        <ele>799.79998779297</ele>
        <time>2011-07-24T11:28:11.000Z</time>
      </trkpt>
      <trkpt lat="45.40543" lon="5.84631">
        <ele>799.20001220703</ele>
        <time>2011-07-24T11:28:12.000Z</time>
      </trkpt>
      <trkpt lat="45.4055" lon="5.84644">
        <ele>796.59997558594</ele>
        <time>2011-07-24T11:28:15.000Z</time>
      </trkpt>
      <trkpt lat="45.40553" lon="5.84652">
        <ele>795</ele>
        <time>2011-07-24T11:28:16.000Z</time>
      </trkpt>
      <trkpt lat="45.40553" lon="5.84674">
        <ele>791.59997558594</ele>
        <time>2011-07-24T11:28:18.000Z</time>
      </trkpt>
      <trkpt lat="45.40555" lon="5.84693">
        <ele>788.79998779297</ele>
        <time>2011-07-24T11:28:20.000Z</time>
      </trkpt>
      <trkpt lat="45.40554" lon="5.84725">
        <ele>784.40002441406</ele>
        <time>2011-07-24T11:28:23.000Z</time>
      </trkpt>
      <trkpt lat="45.40551" lon="5.84748">
        <ele>782</ele>
        <time>2011-07-24T11:28:25.000Z</time>
      </trkpt>
      <trkpt lat="45.40553" lon="5.84763">
        <ele>778.79998779297</ele>
        <time>2011-07-24T11:28:27.000Z</time>
      </trkpt>
      <trkpt lat="45.4056" lon="5.84776">
        <ele>775</ele>
        <time>2011-07-24T11:28:30.000Z</time>
      </trkpt>
      <trkpt lat="45.40568" lon="5.84786">
        <ele>771.59997558594</ele>
        <time>2011-07-24T11:28:33.000Z</time>
      </trkpt>
      <trkpt lat="45.40573" lon="5.84795">
        <ele>768.79998779297</ele>
        <time>2011-07-24T11:28:35.000Z</time>
      </trkpt>
      <trkpt lat="45.40597" lon="5.8481">
        <ele>761.79998779297</ele>
        <time>2011-07-24T11:28:39.000Z</time>
      </trkpt>
      <trkpt lat="45.40607" lon="5.84815">
        <ele>759.59997558594</ele>
        <time>2011-07-24T11:28:40.000Z</time>
      </trkpt>
      <trkpt lat="45.40616" lon="5.8482">
        <ele>757.40002441406</ele>
        <time>2011-07-24T11:28:41.000Z</time>
      </trkpt>
      <trkpt lat="45.40633" lon="5.8483">
        <ele>753.40002441406</ele>
        <time>2011-07-24T11:28:43.000Z</time>
      </trkpt>
      <trkpt lat="45.40666" lon="5.84854">
        <ele>746.40002441406</ele>
        <time>2011-07-24T11:28:47.000Z</time>
      </trkpt>
      <trkpt lat="45.40678" lon="5.84876">
        <ele>743.40002441406</ele>
        <time>2011-07-24T11:28:49.000Z</time>
      </trkpt>
      <trkpt lat="45.40686" lon="5.84895">
        <ele>741.20001220703</ele>
        <time>2011-07-24T11:28:51.000Z</time>
      </trkpt>
      <trkpt lat="45.40691" lon="5.84906">
        <ele>740</ele>
        <time>2011-07-24T11:28:53.000Z</time>
      </trkpt>
      <trkpt lat="45.40712" lon="5.84937">
        <ele>736.79998779297</ele>
        <time>2011-07-24T11:29:03.000Z</time>
      </trkpt>
      <trkpt lat="45.40718" lon="5.84946">
        <ele>736</ele>
        <time>2011-07-24T11:29:05.000Z</time>
      </trkpt>
      <trkpt lat="45.4074" lon="5.84968">
        <ele>734.79998779297</ele>
        <time>2011-07-24T11:29:10.000Z</time>
      </trkpt>
      <trkpt lat="45.40752" lon="5.84988">
        <ele>733.40002441406</ele>
        <time>2011-07-24T11:29:14.000Z</time>
      </trkpt>
      <trkpt lat="45.40758" lon="5.85">
        <ele>731.20001220703</ele>
        <time>2011-07-24T11:29:16.000Z</time>
      </trkpt>
      <trkpt lat="45.40773" lon="5.85021">
        <ele>725.59997558594</ele>
        <time>2011-07-24T11:29:21.000Z</time>
      </trkpt>
      <trkpt lat="45.40788" lon="5.85035">
        <ele>721.40002441406</ele>
        <time>2011-07-24T11:29:25.000Z</time>
      </trkpt>
      <trkpt lat="45.40791" lon="5.8504">
        <ele>720.40002441406</ele>
        <time>2011-07-24T11:29:26.000Z</time>
      </trkpt>
      <trkpt lat="45.40813" lon="5.85049">
        <ele>716.40002441406</ele>
        <time>2011-07-24T11:29:30.000Z</time>
      </trkpt>
      <trkpt lat="45.40839" lon="5.85051">
        <ele>713.20001220703</ele>
        <time>2011-07-24T11:29:33.000Z</time>
      </trkpt>
      <trkpt lat="45.40853" lon="5.85061">
        <ele>711.59997558594</ele>
        <time>2011-07-24T11:29:35.000Z</time>
      </trkpt>
      <trkpt lat="45.40876" lon="5.85082">
        <ele>708.79998779297</ele>
        <time>2011-07-24T11:29:39.000Z</time>
      </trkpt>
      <trkpt lat="45.40884" lon="5.85085">
        <ele>708</ele>
        <time>2011-07-24T11:29:40.000Z</time>
      </trkpt>
      <trkpt lat="45.40913" lon="5.8509">
        <ele>705.40002441406</ele>
        <time>2011-07-24T11:29:43.000Z</time>
      </trkpt>
      <trkpt lat="45.40924" lon="5.85093">
        <ele>704.20001220703</ele>
        <time>2011-07-24T11:29:44.000Z</time>
      </trkpt>
      <trkpt lat="45.40949" lon="5.85099">
        <ele>701.40002441406</ele>
        <time>2011-07-24T11:29:47.000Z</time>
      </trkpt>
      <trkpt lat="45.40967" lon="5.85108">
        <ele>698.40002441406</ele>
        <time>2011-07-24T11:29:52.000Z</time>
      </trkpt>
      <trkpt lat="45.40972" lon="5.85113">
        <ele>697.20001220703</ele>
        <time>2011-07-24T11:29:57.000Z</time>
      </trkpt>
      <trkpt lat="45.40969" lon="5.85114">
        <ele>697.20001220703</ele>
        <time>2011-07-24T11:30:00.000Z</time>
      </trkpt>
      <trkpt lat="45.40964" lon="5.85126">
        <ele>695.79998779297</ele>
        <time>2011-07-24T11:30:03.000Z</time>
      </trkpt>
      <trkpt lat="45.40959" lon="5.85135">
        <ele>695.20001220703</ele>
        <time>2011-07-24T11:30:07.000Z</time>
      </trkpt>
      <trkpt lat="45.40958" lon="5.85144">
        <ele>694</ele>
        <time>2011-07-24T11:30:11.000Z</time>
      </trkpt>
      <trkpt lat="45.4096" lon="5.85145">
        <ele>693.40002441406</ele>
        <time>2011-07-24T11:30:13.000Z</time>
      </trkpt>
      <trkpt lat="45.40967" lon="5.85148">
        <ele>692.20001220703</ele>
        <time>2011-07-24T11:30:16.000Z</time>
      </trkpt>
      <trkpt lat="45.40977" lon="5.85144">
        <ele>691.79998779297</ele>
        <time>2011-07-24T11:30:20.000Z</time>
      </trkpt>
      <trkpt lat="45.40992" lon="5.85153">
        <ele>688.40002441406</ele>
        <time>2011-07-24T11:30:24.000Z</time>
      </trkpt>
      <trkpt lat="45.40997" lon="5.85157">
        <ele>687</ele>
        <time>2011-07-24T11:30:25.000Z</time>
      </trkpt>
      <trkpt lat="45.41038" lon="5.85186">
        <ele>684.59997558594</ele>
        <time>2011-07-24T11:30:37.000Z</time>
      </trkpt>
      <trkpt lat="45.41079" lon="5.85209">
        <ele>681.79998779297</ele>
        <time>2011-07-24T11:30:48.000Z</time>
      </trkpt>
      <trkpt lat="45.41103" lon="5.85233">
        <ele>678.59997558594</ele>
        <time>2011-07-24T11:30:57.000Z</time>
      </trkpt>
      <trkpt lat="45.41107" lon="5.85243">
        <ele>676.59997558594</ele>
        <time>2011-07-24T11:30:59.000Z</time>
      </trkpt>
      <trkpt lat="45.41108" lon="5.8525">
        <ele>675.40002441406</ele>
        <time>2011-07-24T11:31:00.000Z</time>
      </trkpt>
      <trkpt lat="45.41118" lon="5.85274">
        <ele>676.20001220703</ele>
        <time>2011-07-24T11:31:04.000Z</time>
      </trkpt>
      <trkpt lat="45.41135" lon="5.85292">
        <ele>675.79998779297</ele>
        <time>2011-07-24T11:31:09.000Z</time>
      </trkpt>
      <trkpt lat="45.41154" lon="5.85288">
        <ele>675.59997558594</ele>
        <time>2011-07-24T11:31:13.000Z</time>
      </trkpt>
      <trkpt lat="45.41181" lon="5.85292">
        <ele>675.40002441406</ele>
        <time>2011-07-24T11:31:16.000Z</time>
      </trkpt>
      <trkpt lat="45.41187" lon="5.85297">
        <ele>674.79998779297</ele>
        <time>2011-07-24T11:31:17.000Z</time>
      </trkpt>
      <trkpt lat="45.41212" lon="5.85319">
        <ele>671</ele>
        <time>2011-07-24T11:31:24.000Z</time>
      </trkpt>
      <trkpt lat="45.41234" lon="5.85329">
        <ele>668.40002441406</ele>
        <time>2011-07-24T11:31:28.000Z</time>
      </trkpt>
      <trkpt lat="45.41273" lon="5.85341">
        <ele>665.20001220703</ele>
        <time>2011-07-24T11:31:35.000Z</time>
      </trkpt>
      <trkpt lat="45.41308" lon="5.85359">
        <ele>661.40002441406</ele>
        <time>2011-07-24T11:31:41.000Z</time>
      </trkpt>
      <trkpt lat="45.4136" lon="5.85395">
        <ele>655.40002441406</ele>
        <time>2011-07-24T11:31:49.000Z</time>
      </trkpt>
      <trkpt lat="45.41377" lon="5.85415">
        <ele>653.20001220703</ele>
        <time>2011-07-24T11:31:52.000Z</time>
      </trkpt>
      <trkpt lat="45.4141" lon="5.85437">
        <ele>652.40002441406</ele>
        <time>2011-07-24T11:31:57.000Z</time>
      </trkpt>
      <trkpt lat="45.41424" lon="5.85437">
        <ele>652.40002441406</ele>
        <time>2011-07-24T11:31:59.000Z</time>
      </trkpt>
      <trkpt lat="45.41441" lon="5.85444">
        <ele>652.40002441406</ele>
        <time>2011-07-24T11:32:04.000Z</time>
      </trkpt>
      <trkpt lat="45.41442" lon="5.85447">
        <ele>652.40002441406</ele>
        <time>2011-07-24T11:32:07.000Z</time>
      </trkpt>
      <trkpt lat="45.41434" lon="5.85463">
        <ele>652</ele>
        <time>2011-07-24T11:32:11.000Z</time>
      </trkpt>
      <trkpt lat="45.41442" lon="5.85513">
        <ele>654</ele>
        <time>2011-07-24T11:32:20.000Z</time>
      </trkpt>
      <trkpt lat="45.41446" lon="5.8552">
        <ele>655.79998779297</ele>
        <time>2011-07-24T11:32:22.000Z</time>
      </trkpt>
      <trkpt lat="45.41458" lon="5.85522">
        <ele>657</ele>
        <time>2011-07-24T11:32:26.000Z</time>
      </trkpt>
      <trkpt lat="45.41471" lon="5.85527">
        <ele>659.20001220703</ele>
        <time>2011-07-24T11:32:31.000Z</time>
      </trkpt>
      <trkpt lat="45.4149" lon="5.85532">
        <ele>662</ele>
        <time>2011-07-24T11:32:36.000Z</time>
      </trkpt>
      <trkpt lat="45.41498" lon="5.85535">
        <ele>663.59997558594</ele>
        <time>2011-07-24T11:32:41.000Z</time>
      </trkpt>
      <trkpt lat="45.41505" lon="5.8553">
        <ele>662</ele>
        <time>2011-07-24T11:32:44.000Z</time>
      </trkpt>
      <trkpt lat="45.41527" lon="5.85544">
        <ele>666</ele>
        <time>2011-07-24T11:32:49.000Z</time>
      </trkpt>
      <trkpt lat="45.41549" lon="5.85537">
        <ele>663.20001220703</ele>
        <time>2011-07-24T11:32:53.000Z</time>
      </trkpt>
      <trkpt lat="45.41585" lon="5.85499">
        <ele>650.79998779297</ele>
        <time>2011-07-24T11:32:59.000Z</time>
      </trkpt>
      <trkpt lat="45.41611" lon="5.85473">
        <ele>649</ele>
        <time>2011-07-24T11:33:03.000Z</time>
      </trkpt>
      <trkpt lat="45.41618" lon="5.85468">
        <ele>648.59997558594</ele>
        <time>2011-07-24T11:33:04.000Z</time>
      </trkpt>
      <trkpt lat="45.41643" lon="5.85456">
        <ele>647.20001220703</ele>
        <time>2011-07-24T11:33:08.000Z</time>
      </trkpt>
      <trkpt lat="45.41667" lon="5.85456">
        <ele>646.20001220703</ele>
        <time>2011-07-24T11:33:12.000Z</time>
      </trkpt>
      <trkpt lat="45.41688" lon="5.85457">
        <ele>645.79998779297</ele>
        <time>2011-07-24T11:33:16.000Z</time>
      </trkpt>
      <trkpt lat="45.41711" lon="5.85461">
        <ele>645.40002441406</ele>
        <time>2011-07-24T11:33:22.000Z</time>
      </trkpt>
      <trkpt lat="45.41746" lon="5.85482">
        <ele>645.40002441406</ele>
        <time>2011-07-24T11:33:29.000Z</time>
      </trkpt>
      <trkpt lat="45.41762" lon="5.85499">
        <ele>645.59997558594</ele>
        <time>2011-07-24T11:33:33.000Z</time>
      </trkpt>
      <trkpt lat="45.41768" lon="5.8551">
        <ele>646.40002441406</ele>
        <time>2011-07-24T11:33:45.000Z</time>
      </trkpt>
      <trkpt lat="45.41768" lon="5.8551">
        <ele>646.40002441406</ele>
        <time>2011-07-24T11:33:49.000Z</time>
      </trkpt>
      <trkpt lat="45.41768" lon="5.8551">
        <ele>646.40002441406</ele>
        <time>2011-07-24T11:33:50.000Z</time>
      </trkpt>
      <trkpt lat="45.41769" lon="5.8551">
        <ele>646.40002441406</ele>
        <time>2011-07-24T11:33:59.000Z</time>
      </trkpt>
    </trkseg>
  </trk>
</gpx>